[[{"header":{"parameterUnit":"m.s-1","parameterCategory":1,"la1":30.6,"la2":29.2853,"lo1":-89.7004,"lo2":-87.6739,"dy":0.0162,"dx":0.0183,"nx":112,"ny":82,"refTime":"2024-06-22T18:00:00:Z","depth":0,"parameterNumber":2,"parameterNumberName":"U-component_of_WINDS"},"data":[0.0,0.0,0.0,0.0,0.0,0.0,0.0,0.0,0.0,0.0,0.0,0.0,0.0,0.0,0.0,0.0,0.0,0.0,0.0,0.0,0.0,0.0,0.0,0.0,0.0,0.0,0.0,0.0,0.0,0.0,0.0,0.0,0.0,0.0,0.0,0.0,0.0,0.0,0.0,0.0,0.0,0.0,0.0,0.0,0.0,0.0,0.0,0.0,0.0,0.0,0.0,0.0,0.0,0.0,0.0,0.0,0.0,0.0,0.0,0.0,0.0,0.0,0.0,0.0,0.0,0.0,0.0,0.0,0.0,0.0,0.0,0.0,0.0,0.0,0.0,0.0,0.0,0.0,0.0,0.0,0.0,0.0,0.0,0.0,0.0,0.0,0.0,0.0,0.0,0.0,-3.2676,-3.5789,-3.8093,-3.9388,-3.9388,-3.8691,-3.6881,-3.3694,0.0,0.0,0.0,0.0,0.0,0.0,0.0,0.0,0.0,0.0,0.0,0.0,0.0,0.0,0.0,0.0,0.0,0.0,0.0,0.0,0.0,0.0,0.0,0.0,0.0,0.0,0.0,0.0,0.0,0.0,0.0,0.0,0.0,0.0,0.0,0.0,0.0,0.0,0.0,0.0,0.0,0.0,0.0,0.0,0.0,0.0,0.0,0.0,0.0,0.0,0.0,0.0,0.0,0.0,0.0,0.0,0.0,0.0,0.0,0.0,0.0,0.0,0.0,0.0,0.0,0.0,0.0,0.0,0.0,0.0,0.0,0.0,0.0,0.0,0.0,0.0,0.0,0.0,0.0,0.0,0.0,0.0,0.0,0.0,0.0,0.0,0.0,0.0,0.0,0.0,0.0,0.0,0.0,0.0,0.0,0.0,0.0,0.0,0.0,0.0,0.0,0.0,0.0,0.0,-3.3379,-3.8267,-3.9149,-3.9388,-3.9388,-3.8272,-3.6387,-3.3664,0.0,0.0,0.0,0.0,0.0,0.0,0.0,0.0,0.0,0.0,0.0,0.0,0.0,0.0,0.0,0.0,0.0,0.0,0.0,0.0,0.0,0.0,0.0,0.0,0.0,0.0,0.0,0.0,0.0,0.0,0.0,0.0,0.0,0.0,0.0,0.0,0.0,0.0,0.0,0.0,0.0,0.0,0.0,0.0,0.0,0.0,0.0,0.0,0.0,0.0,0.0,0.0,0.0,0.0,0.0,0.0,0.0,0.0,0.0,0.0,0.0,0.0,0.0,0.0,0.0,0.0,0.0,0.0,0.0,0.0,0.0,0.0,0.0,0.0,0.0,0.0,0.0,0.0,0.0,0.0,0.0,0.0,0.0,0.0,0.0,0.0,0.0,0.0,0.0,0.0,0.0,0.0,0.0,0.0,0.0,0.0,0.0,0.0,0.0,0.0,0.0,0.0,0.0,-3.2572,-3.4741,-3.894,-3.9388,-3.9388,-3.9388,-3.8182,-3.6282,-3.3664,-3.0953,0.0,0.0,0.0,0.0,0.0,0.0,0.0,0.0,0.0,0.0,0.0,0.0,0.0,0.0,0.0,0.0,0.0,0.0,0.0,0.0,0.0,0.0,0.0,0.0,0.0,0.0,0.0,0.0,0.0,0.0,0.0,0.0,0.0,0.0,0.0,0.0,0.0,0.0,0.0,0.0,0.0,0.0,0.0,0.0,0.0,0.0,0.0,0.0,0.0,0.0,0.0,0.0,0.0,0.0,0.0,0.0,0.0,0.0,0.0,0.0,0.0,0.0,0.0,0.0,0.0,0.0,0.0,0.0,0.0,0.0,0.0,0.0,0.0,0.0,0.0,0.0,0.0,0.0,0.0,0.0,0.0,0.0,0.0,0.0,0.0,0.0,0.0,0.0,0.0,0.0,0.0,0.0,0.0,0.0,0.0,0.0,0.0,0.0,0.0,0.0,0.0,0.0,-3.4528,-3.6267,-3.911,-3.9388,-3.9388,-3.9388,-3.761,-3.5517,-3.3211,-2.9667,0.0,0.0,0.0,0.0,0.0,0.0,0.0,0.0,0.0,0.0,0.0,0.0,0.0,0.0,0.0,0.0,0.0,0.0,0.0,0.0,0.0,0.0,0.0,0.0,0.0,0.0,0.0,0.0,0.0,0.0,0.0,0.0,0.0,0.0,0.0,0.0,0.0,0.0,0.0,0.0,0.0,0.0,0.0,0.0,0.0,0.0,0.0,0.0,0.0,0.0,0.0,0.0,0.0,0.0,0.0,0.0,0.0,0.0,0.0,0.0,0.0,0.0,0.0,0.0,0.0,0.0,0.0,0.0,0.0,0.0,0.0,0.0,0.0,0.0,0.0,0.0,0.0,0.0,0.0,0.0,0.0,0.0,0.0,0.0,0.0,0.0,0.0,0.0,0.0,0.0,0.0,0.0,0.0,0.0,0.0,0.0,0.0,0.0,0.0,0.0,0.0,0.0,-3.4584,-3.7778,-3.9224,-3.9388,-3.9388,-3.9388,-3.5956,-3.3185,-3.1813,-2.7484,0.0,0.0,0.0,0.0,0.0,0.0,0.0,0.0,0.0,0.0,0.0,0.0,0.0,0.0,0.0,0.0,0.0,0.0,0.0,0.0,0.0,0.0,0.0,0.0,0.0,0.0,0.0,0.0,0.0,0.0,0.0,0.0,0.0,0.0,0.0,0.0,0.0,0.0,0.0,0.0,0.0,0.0,0.0,0.0,0.0,0.0,0.0,0.0,0.0,0.0,0.0,0.0,0.0,0.0,0.0,0.0,0.0,0.0,0.0,0.0,0.0,0.0,0.0,0.0,0.0,0.0,0.0,0.0,0.0,0.0,0.0,0.0,0.0,0.0,0.0,0.0,0.0,0.0,0.0,0.0,0.0,0.0,0.0,0.0,0.0,0.0,0.0,0.0,0.0,0.0,0.0,0.0,0.0,0.0,0.0,0.0,0.0,0.0,0.0,0.0,0.0,0.0,-3.2023,-3.4676,-3.7149,-3.7405,-3.7405,-3.7405,-3.5533,-3.3293,-3.075,0.0,0.0,0.0,0.0,0.0,0.0,0.0,0.0,0.0,0.0,0.0,0.0,0.0,0.0,0.0,0.0,0.0,0.0,0.0,0.0,0.0,0.0,0.0,0.0,0.0,0.0,0.0,0.0,0.0,0.0,0.0,0.0,0.0,0.0,0.0,0.0,0.0,0.0,0.0,0.0,0.0,0.0,0.0,0.0,0.0,0.0,0.0,0.0,0.0,0.0,0.0,0.0,0.0,0.0,0.0,0.0,0.0,0.0,0.0,0.0,0.0,0.0,0.0,0.0,0.0,0.0,0.0,0.0,0.0,0.0,0.0,0.0,0.0,0.0,0.0,0.0,0.0,0.0,0.0,0.0,0.0,0.0,0.0,0.0,0.0,0.0,0.0,0.0,0.0,0.0,0.0,0.0,0.0,0.0,0.0,0.0,0.0,0.0,0.0,0.0,0.0,0.0,-2.8356,-3.087,-3.3381,-3.5935,-3.6198,-3.6129,-3.5949,-3.4301,-3.2067,-2.9278,0.0,0.0,0.0,0.0,0.0,0.0,0.0,0.0,0.0,0.0,0.0,0.0,0.0,0.0,0.0,0.0,0.0,0.0,0.0,0.0,0.0,0.0,0.0,0.0,0.0,0.0,0.0,0.0,0.0,0.0,0.0,0.0,0.0,0.0,0.0,0.0,0.0,0.0,0.0,0.0,0.0,0.0,0.0,0.0,0.0,0.0,0.0,0.0,0.0,0.0,0.0,0.0,0.0,0.0,0.0,0.0,0.0,0.0,0.0,0.0,0.0,0.0,0.0,0.0,0.0,0.0,0.0,0.0,0.0,0.0,0.0,0.0,0.0,0.0,0.0,0.0,0.0,0.0,0.0,0.0,0.0,0.0,0.0,0.0,0.0,0.0,0.0,0.0,0.0,0.0,0.0,0.0,0.0,0.0,0.0,0.0,0.0,0.0,0.0,0.0,0.0,0.0,-2.7819,-3.1714,-3.482,-3.6034,-3.6172,-3.5937,-3.5397,-3.1884,-2.8985,0.0,0.0,0.0,0.0,0.0,0.0,0.0,0.0,0.0,0.0,0.0,0.0,0.0,0.0,0.0,0.0,0.0,0.0,0.0,0.0,0.0,0.0,0.0,0.0,0.0,0.0,0.0,0.0,0.0,0.0,0.0,0.0,0.0,0.0,0.0,0.0,0.0,0.0,0.0,0.0,0.0,0.0,0.0,0.0,0.0,0.0,0.0,0.0,0.0,0.0,0.0,0.0,0.0,0.0,0.0,0.0,0.0,0.0,0.0,0.0,0.0,0.0,0.0,0.0,0.0,0.0,0.0,0.0,0.0,0.0,0.0,0.0,0.0,0.0,0.0,0.0,0.0,0.0,0.0,0.0,0.0,0.0,0.0,0.0,0.0,0.0,0.0,0.0,0.0,0.0,0.0,0.0,0.0,0.0,0.0,0.0,0.0,0.0,0.0,0.0,0.0,0.0,0.0,-2.6785,-3.0081,-3.2743,-3.3894,-3.4024,-3.3778,-3.3209,-3.1575,-2.9301,-2.6255,0.0,0.0,0.0,0.0,0.0,0.0,0.0,0.0,0.0,0.0,0.0,0.0,0.0,0.0,0.0,0.0,0.0,0.0,0.0,0.0,0.0,0.0,0.0,0.0,0.0,0.0,0.0,0.0,0.0,0.0,0.0,0.0,0.0,0.0,0.0,0.0,0.0,0.0,0.0,0.0,0.0,0.0,0.0,0.0,0.0,0.0,0.0,0.0,0.0,0.0,0.0,0.0,0.0,0.0,0.0,0.0,0.0,0.0,0.0,0.0,0.0,0.0,0.0,0.0,0.0,0.0,0.0,0.0,0.0,0.0,0.0,0.0,0.0,0.0,0.0,0.0,0.0,0.0,0.0,0.0,0.0,0.0,0.0,0.0,0.0,0.0,0.0,0.0,0.0,0.0,0.0,0.0,0.0,0.0,0.0,0.0,0.0,0.0,0.0,0.0,0.0,0.0,-2.6348,-2.9378,-3.1825,-3.2998,-3.3124,-3.2754,-3.1951,-3.1058,-2.9125,-2.5808,0.0,0.0,0.0,0.0,0.0,0.0,0.0,0.0,0.0,0.0,0.0,0.0,0.0,0.0,0.0,0.0,0.0,0.0,0.0,0.0,0.0,0.0,0.0,0.0,0.0,0.0,0.0,0.0,0.0,0.0,0.0,0.0,0.0,0.0,0.0,0.0,0.0,0.0,0.0,0.0,0.0,0.0,0.0,0.0,0.0,0.0,0.0,0.0,0.0,0.0,0.0,0.0,0.0,0.0,0.0,0.0,0.0,0.0,0.0,0.0,0.0,0.0,0.0,0.0,0.0,0.0,0.0,0.0,0.0,0.0,0.0,0.0,0.0,0.0,0.0,0.0,0.0,0.0,0.0,0.0,0.0,0.0,0.0,0.0,0.0,0.0,0.0,0.0,0.0,0.0,0.0,0.0,0.0,0.0,0.0,0.0,0.0,0.0,0.0,0.0,0.0,0.0,-2.6424,-2.9416,-3.1825,-3.2998,-3.3124,-3.2616,-3.1486,-3.0457,-2.8674,-2.585,0.0,0.0,0.0,0.0,0.0,0.0,0.0,0.0,0.0,0.0,0.0,0.0,0.0,0.0,0.0,0.0,0.0,0.0,0.0,0.0,0.0,0.0,0.0,0.0,0.0,0.0,0.0,0.0,0.0,0.0,0.0,0.0,0.0,0.0,0.0,0.0,0.0,0.0,0.0,0.0,0.0,0.0,0.0,0.0,0.0,0.0,0.0,0.0,0.0,0.0,0.0,0.0,0.0,0.0,0.0,0.0,0.0,0.0,0.0,0.0,-3.3926,0.0,0.0,0.0,0.0,0.0,0.0,0.0,0.0,0.0,0.0,0.0,0.0,0.0,0.0,0.0,0.0,0.0,0.0,0.0,0.0,0.0,0.0,0.0,0.0,0.0,0.0,0.0,0.0,0.0,0.0,0.0,0.0,0.0,0.0,0.0,0.0,0.0,0.0,0.0,0.0,0.0,-2.6939,-2.9616,-3.1825,-3.2998,-3.3124,-3.2616,-3.1486,-3.0809,-2.9252,-2.6487,-2.4305,0.0,0.0,0.0,0.0,0.0,0.0,0.0,0.0,0.0,0.0,0.0,0.0,0.0,0.0,0.0,0.0,0.0,0.0,0.0,0.0,0.0,0.0,0.0,0.0,0.0,0.0,0.0,0.0,0.0,0.0,0.0,0.0,0.0,0.0,0.0,0.0,0.0,0.0,0.0,0.0,0.0,0.0,0.0,0.0,0.0,0.0,0.0,0.0,0.0,0.0,0.0,0.0,0.0,0.0,0.0,0.0,0.0,0.0,0.0,0.0,-3.596,0.0,0.0,0.0,0.0,0.0,0.0,0.0,0.0,0.0,0.0,0.0,0.0,0.0,0.0,0.0,0.0,0.0,0.0,0.0,0.0,0.0,0.0,0.0,0.0,0.0,0.0,0.0,0.0,0.0,0.0,0.0,0.0,0.0,0.0,0.0,0.0,0.0,0.0,0.0,0.0,-2.7067,-2.9691,-3.1825,-3.2998,-3.3124,-3.2616,-3.1486,-3.0922,-2.9654,-2.7394,-2.541,0.0,0.0,0.0,0.0,0.0,0.0,0.0,0.0,0.0,0.0,0.0,0.0,0.0,0.0,0.0,0.0,0.0,0.0,0.0,0.0,0.0,0.0,0.0,0.0,0.0,0.0,0.0,0.0,0.0,0.0,0.0,0.0,0.0,0.0,0.0,0.0,0.0,0.0,0.0,0.0,0.0,0.0,0.0,0.0,0.0,0.0,0.0,0.0,0.0,0.0,0.0,0.0,0.0,-4.597,-4.5757,-4.5287,-4.4478,-4.4219,-4.4187,-4.1035,-3.9952,-4.035,-3.8522,0.0,0.0,0.0,0.0,0.0,0.0,0.0,0.0,0.0,0.0,0.0,0.0,0.0,0.0,0.0,0.0,0.0,0.0,0.0,0.0,0.0,0.0,0.0,0.0,-3.465,-3.4021,-3.0002,0.0,0.0,0.0,0.0,0.0,0.0,0.0,0.0,0.0,0.0,0.0,-2.7344,-2.9804,-3.1825,-3.2998,-3.2993,-3.2503,-3.1474,-3.0922,-2.9942,-2.8348,-2.6766,-2.5184,0.0,0.0,0.0,0.0,0.0,0.0,0.0,0.0,0.0,0.0,0.0,0.0,0.0,0.0,0.0,0.0,0.0,0.0,0.0,0.0,0.0,0.0,0.0,0.0,0.0,0.0,0.0,0.0,0.0,0.0,0.0,0.0,-3.2564,-3.4179,0.0,0.0,0.0,0.0,0.0,0.0,0.0,0.0,0.0,0.0,0.0,0.0,0.0,-4.6691,-4.7498,-4.9756,-5.0912,-5.1041,-5.0515,-5.0242,-5.014,-4.8816,-4.8233,-4.8206,-4.709,0.0,-4.1982,-4.1694,0.0,0.0,0.0,0.0,0.0,0.0,0.0,0.0,0.0,0.0,0.0,0.0,0.0,0.0,0.0,0.0,0.0,0.0,0.0,0.0,0.0,0.0,-3.7599,-3.703,-3.7396,-3.7421,0.0,-3.221,-2.9012,-2.7723,-2.6226,0.0,0.0,0.0,0.0,0.0,0.0,0.0,-2.8399,-3.0281,-3.1825,-3.2998,-3.2629,-3.2064,-3.1436,-3.0922,-3.0066,-2.8863,-2.7708,-2.6527,-2.5322,-2.3722,0.0,0.0,0.0,0.0,0.0,0.0,0.0,0.0,0.0,0.0,0.0,0.0,0.0,0.0,0.0,0.0,0.0,0.0,0.0,0.0,0.0,0.0,0.0,0.0,0.0,0.0,0.0,0.0,0.0,-3.3293,-3.5624,-3.6321,-3.689,-3.6872,0.0,0.0,0.0,0.0,0.0,0.0,0.0,0.0,0.0,-4.6893,-4.882,-5.0453,-5.172,-5.2803,-5.3365,-5.3408,-5.2723,-5.2181,-5.1728,-5.0714,-5.0253,-5.0236,-4.9898,-4.8359,-4.594,-4.4293,-4.2557,-4.0899,0.0,0.0,0.0,0.0,-3.8514,-3.7535,-3.7609,-3.7087,-3.6075,-3.3894,0.0,0.0,0.0,0.0,0.0,0.0,0.0,0.0,0.0,0.0,-3.8422,-3.8512,-3.8751,-3.8811,-3.8257,-3.6202,-3.3744,0.0,-2.9498,-2.7691,-2.4964,0.0,0.0,0.0,0.0,-2.7595,-2.9202,-3.0846,-3.2164,-3.2993,-3.2554,-3.1989,-3.1436,-3.0922,-3.0269,-2.9465,-2.8662,-2.7708,-2.659,-2.5234,-2.374,0.0,0.0,0.0,0.0,0.0,0.0,0.0,0.0,0.0,0.0,0.0,0.0,0.0,0.0,0.0,0.0,0.0,0.0,0.0,0.0,0.0,0.0,0.0,0.0,0.0,0.0,0.0,0.0,-3.5862,-3.8043,-3.8649,-3.9971,-4.0283,0.0,0.0,0.0,0.0,0.0,0.0,-4.5626,-4.7774,-4.9554,-5.0804,-5.2582,-5.4106,-5.5317,-5.5537,-5.5569,-5.5426,-5.4465,-5.3616,-5.2848,-5.2128,-5.1809,-5.1792,-5.1589,-5.0879,-4.9627,-4.6853,-4.5043,-4.3866,-4.2794,-4.1914,-4.1356,-4.2083,-4.1437,-4.0279,-4.0788,-4.037,-3.9185,-3.6806,-3.5878,-3.5415,-3.3558,0.0,0.0,0.0,0.0,-3.6507,-3.7629,-3.8287,-3.8781,-3.929,-3.9388,-3.9388,-3.9388,-3.8775,-3.7264,0.0,-3.2408,-3.0594,-2.725,0.0,0.0,0.0,0.0,-2.8938,-3.0055,-3.1373,-3.2441,-3.3061,-3.2441,-3.1838,-3.1424,-3.0783,-3.0231,-2.9817,-2.9252,-2.8461,-2.7532,-2.6414,-2.5034,-2.3358,0.0,0.0,0.0,0.0,0.0,0.0,0.0,0.0,0.0,0.0,0.0,0.0,0.0,0.0,0.0,0.0,0.0,0.0,0.0,0.0,0.0,0.0,0.0,0.0,0.0,0.0,0.0,0.0,0.0,-4.1791,-4.28,0.0,0.0,0.0,0.0,-4.5424,-4.7829,-4.9922,-5.1481,-5.3133,-5.4069,-5.4161,-5.6455,-5.774,-5.7813,-5.8584,-5.8598,-5.7887,-5.6336,-5.5215,-5.4454,-5.3713,-5.3382,-5.3348,-5.2587,-5.2198,-5.1961,-4.9712,-4.753,-4.5585,-4.5517,-4.501,-4.4479,-4.5196,-4.4858,-4.4027,-4.391,-4.3255,-4.2227,-4.0601,-3.8437,-3.6522,-3.6971,-3.6282,0.0,0.0,-3.7704,-3.8407,-3.9125,-3.9298,-3.9379,-3.9373,-3.9388,-3.9388,-3.9388,-3.8554,-3.7329,0.0,-3.4279,-3.2636,-3.0037,0.0,-2.8737,-2.865,-2.9264,-3.0093,-3.1173,-3.1838,-3.2441,-3.3061,-3.2089,-3.1424,-3.1386,-3.0432,-2.9829,-2.9792,-2.9252,-2.8662,-2.8084,-2.704,-2.5682,-2.3991,-2.2297,0.0,0.0,0.0,0.0,0.0,0.0,0.0,0.0,0.0,0.0,0.0,0.0,0.0,0.0,0.0,0.0,0.0,0.0,0.0,0.0,0.0,0.0,0.0,0.0,0.0,0.0,0.0,0.0,-4.515,-4.6581,0.0,-4.6966,-4.77,-4.8655,-4.9738,-5.1591,-5.2931,-5.35,-5.5556,-5.6712,-5.6712,-5.8565,-5.9286,-5.8765,-5.9056,-5.8547,-5.7248,-5.6663,-5.603,-5.5263,-5.4534,-5.4211,-5.416,-5.3399,-5.279,-5.2232,-5.1454,-4.983,-4.7817,-4.7817,-4.7073,-4.6041,-4.6295,-4.5474,-4.4171,-4.413,-4.3126,-4.176,-4.1213,-4.0113,-3.905,-3.9275,-3.8721,-3.8108,-3.8571,-3.8871,-3.911,-3.9349,-3.9388,-3.9388,-3.9388,-3.9388,-3.9388,-3.9388,-3.9104,-3.845,-3.7187,-3.5717,-3.4187,-3.2634,-3.1855,-3.0971,-2.9655,-3.0545,-3.1486,-3.1876,-3.2416,-3.2855,-3.3099,-3.2064,-3.1386,-3.1386,-3.0068,-2.9239,-2.9239,-2.8712,-2.8147,-2.7595,-2.6889,-2.5883,-2.4556,-2.3226,-2.182,0.0,0.0,0.0,0.0,0.0,0.0,0.0,0.0,0.0,0.0,0.0,0.0,0.0,0.0,0.0,0.0,0.0,0.0,0.0,0.0,0.0,0.0,0.0,0.0,0.0,-4.291,-4.581,-4.7719,-4.9389,-5.04,-5.0343,-5.1353,-5.2344,-5.3133,-5.4711,-5.5739,-5.6014,-5.7795,-5.8804,-5.8804,-6.0107,-6.043,-5.961,-5.961,-5.8801,-5.7207,-5.6948,-5.6418,-5.5683,-5.4938,-5.4583,-5.4549,-5.3822,-5.3196,-5.2706,-5.2706,-5.1691,-5.0101,-4.9847,-4.8984,-4.7872,-4.7564,-4.6305,-4.4694,-4.4047,-4.2892,-4.1752,-4.1752,-4.1265,-4.0696,-4.0472,-4.0098,-3.9709,-3.9448,-3.9388,-3.9388,-3.9388,-3.9388,-3.9388,-3.9388,-3.9388,-3.9388,-3.9388,-3.9388,-3.9177,-3.8472,-3.7144,-3.5704,-3.433,-3.3749,-3.2867,-3.1158,-3.1813,-3.2503,-3.2503,-3.2842,-3.3124,-3.3124,-3.2064,-3.1386,-3.1386,-2.988,-2.8888,-2.8888,-2.8235,-2.7657,-2.7293,-2.66,-2.5749,-2.4813,-2.3684,-2.2569,-2.1493,0.0,0.0,0.0,0.0,0.0,0.0,0.0,0.0,0.0,0.0,0.0,0.0,0.0,0.0,0.0,0.0,0.0,0.0,0.0,0.0,0.0,0.0,0.0,-4.2415,-4.4507,-4.6948,-4.9427,-5.1116,-5.2087,-5.2123,-5.3573,-5.484,-5.5669,-5.7171,-5.8419,-5.9184,-6.0015,-6.0438,-6.0438,-6.1184,-6.1226,-6.044,-6.0385,-5.9591,-5.8019,-5.7209,-5.6471,-5.575,-5.5006,-5.4668,-5.4617,-5.3856,-5.3534,-5.3534,-5.3518,-5.3044,-5.2266,-5.1539,-5.0777,-5.0023,-4.9078,-4.7639,-4.5925,-4.3974,-4.2925,-4.2425,-4.2425,-4.1991,-4.1294,-4.0651,-4.0427,-4.0262,-3.9634,-3.9439,-3.9388,-3.9388,-3.9388,-3.9388,-3.9388,-3.9388,-3.9388,-3.9388,-3.9388,-3.9388,-3.9388,-3.8546,-3.7204,-3.5102,-3.4705,-3.4317,-3.3283,-3.3124,0.0,-3.3124,-3.3124,-3.3124,-3.3124,-3.2077,-3.1411,-3.1386,-2.988,-2.8888,-2.8863,-2.7871,-2.7268,-2.7281,-2.6214,-2.5372,-2.4825,-2.3722,-2.3158,-2.3158,0.0,0.0,0.0,0.0,0.0,0.0,0.0,0.0,0.0,0.0,0.0,0.0,0.0,0.0,0.0,0.0,0.0,0.0,0.0,0.0,0.0,-4.3057,-4.4911,-4.4911,-4.7535,-5.0141,-5.1995,-5.3115,-5.4197,-5.5372,-5.6418,-5.7336,-5.8162,-5.9171,-5.985,-6.007,-6.0823,-6.1263,-6.1263,-6.148,-6.1471,-6.1279,-6.0073,-5.9242,-5.8783,-5.798,-5.7489,-5.7273,-5.6528,-5.619,-5.6122,-5.4854,-5.4296,-5.4245,-5.3721,-5.3365,-5.3095,-5.23,-5.1555,-5.0796,-5.0015,-4.8232,-4.5925,-4.3974,-4.317,-4.306,-4.306,-4.2626,-4.2096,-4.1916,-4.116,-4.0367,-4.0187,-3.9783,-3.9388,-3.9388,-3.9388,-3.9388,-3.9388,-3.9388,-3.9388,-3.9388,-3.9388,-3.9388,-3.9388,-3.9141,-3.8294,-3.6132,-3.454,-3.3441,-3.3154,-3.3124,0.0,-3.3124,-3.3124,-3.3124,-3.3124,-3.2428,-3.1825,-3.1424,-2.988,-2.8712,-2.836,-2.7293,-2.6901,-2.7268,-2.6637,-2.5996,-2.5398,-2.4675,-2.4324,0.0,0.0,0.0,0.0,0.0,0.0,0.0,0.0,0.0,0.0,0.0,0.0,0.0,0.0,0.0,0.0,0.0,0.0,0.0,0.0,0.0,0.0,-4.614,-4.8196,-4.8857,-5.06,-5.2399,-5.4014,-5.4932,-5.6051,-5.7643,-5.8235,-5.8841,-5.9648,-6.0456,-6.0896,-6.0896,-6.1667,-6.2108,-6.2108,-6.2113,-6.1788,-6.1084,-6.0131,-5.9278,-5.8599,-5.8137,-5.7881,-5.7865,-5.7137,-5.6799,-5.6748,-5.5581,-5.4888,-5.4566,-5.4143,-5.3788,0.0,0.0,0.0,0.0,0.0,-4.7714,-4.5793,-4.3925,-4.329,-4.329,-4.329,-4.3075,-4.2716,-4.2485,-4.1677,-4.0756,-4.0472,-3.9933,-3.9388,-3.9388,-3.9388,-3.9388,-3.9388,-3.9388,-3.9388,-3.9388,-3.9388,-3.9388,-3.9388,-3.8694,0.0,-3.6395,-3.5183,-3.4095,-3.3227,-3.3124,-3.3124,-3.3124,-3.3124,-3.3124,-3.3124,-3.2554,-3.2077,-3.1763,-3.0231,0.0,0.0,0.0,-2.7228,-2.7281,-2.7014,0.0,0.0,0.0,0.0,0.0,0.0,0.0,0.0,-2.6101,-2.6038,0.0,0.0,0.0,0.0,0.0,0.0,0.0,0.0,0.0,0.0,0.0,0.0,0.0,0.0,0.0,0.0,-4.9114,-5.1628,-5.3243,-5.3555,-5.4142,-5.5556,-5.6363,-5.7423,-5.9038,-5.9276,-5.9661,-6.0474,-6.1282,-6.1741,-6.1741,0.0,0.0,0.0,0.0,-6.1888,-6.0567,-6.026,-5.9412,-5.8046,-5.7954,-5.7881,-5.7865,-5.7222,-5.6917,-5.6884,-5.6156,-5.5412,-5.4718,-5.4617,-5.416,-5.3501,-5.3501,-5.2943,-5.1766,-4.8654,-4.6824,-4.5634,-4.3971,0.0,0.0,-4.329,-4.329,-4.3185,-4.2641,-4.2006,-4.1265,-4.0666,-3.9993,-3.9388,-3.9388,-3.9388,-3.9388,-3.9388,-3.9388,-3.9388,-3.9388,-3.9388,-3.9388,-3.9388,-3.7852,-3.6526,-3.6408,-3.6093,-3.5224,-3.3398,-3.3124,-3.3124,-3.3124,-3.3124,-3.3124,-3.3124,0.0,0.0,-3.2227,-3.0834,-2.9917,-2.9804,-2.8787,-2.7984,-2.7494,-2.7532,-2.7532,-2.7469,-2.7469,-2.7984,-2.8988,-2.8988,-2.9352,-2.993,-2.7907,-2.7492,0.0,0.0,0.0,0.0,0.0,0.0,0.0,0.0,0.0,0.0,0.0,0.0,0.0,0.0,0.0,-5.0196,-5.1903,-5.3298,-5.4913,-5.5702,-5.6235,-5.6528,-5.6712,-5.7423,-5.9038,-5.9771,-6.0511,-6.13,-6.2108,-6.2585,-6.2585,-6.2732,-6.278,-6.278,-6.1548,-6.1044,-6.1361,-5.9377,-5.8546,-5.8875,0.0,0.0,-5.7881,-5.7746,-5.7679,-5.7645,-5.6917,-5.6173,-5.5446,-5.4854,-5.416,-5.3501,-5.3501,-5.252,-5.0925,-4.9503,-4.7593,-4.5565,-4.4499,-4.3738,-4.329,-4.329,-4.329,-4.3275,-4.314,-4.2327,0.0,-4.122,-4.0337,-3.9388,-3.9388,-3.9388,-3.9388,-3.9388,-3.9388,-3.9388,-3.9388,-3.9388,-3.9388,-3.9388,-3.9053,-3.8494,-3.7625,-3.5373,-3.3543,-3.3154,-3.3124,-3.3124,-3.3124,-3.3124,-3.3124,-3.3124,-3.3023,-3.2717,-3.2252,-3.1524,-3.0708,-2.9842,-2.9151,-2.8687,-2.8574,-2.9063,-2.9089,-2.8612,-2.8574,-2.895,-2.9628,-2.9628,-3.0131,-3.106,-3.0206,-2.993,0.0,0.0,0.0,0.0,0.0,0.0,0.0,0.0,0.0,0.0,0.0,-4.3039,-4.5461,0.0,-4.9756,-5.2197,-5.361,-5.4821,-5.6033,-5.6547,-5.6804,-5.6804,-5.7171,-5.8033,-5.9648,-6.0162,-6.0896,-6.2108,-6.2585,-6.278,-6.278,-6.278,-6.261,-6.22,-6.1418,-6.0772,-6.0344,-5.9128,-5.8494,-5.8494,-5.8101,-5.7881,-5.7881,-5.7881,-5.7881,-5.7865,-5.7509,-5.6934,-5.6173,-5.5057,-5.416,-5.3501,-5.3501,-5.2601,-5.1133,-4.9301,-4.7606,-4.6121,-4.4755,-4.3843,-4.329,-4.329,-4.329,-4.329,-4.329,-4.2641,-4.1841,-4.1474,-4.0666,-3.9828,-3.9514,-3.9388,-3.9388,-3.9388,-3.9388,-3.9388,-3.9388,-3.9388,-3.9388,-3.9388,-3.898,-3.8435,-3.7866,-3.6041,-3.4485,-3.3995,-3.3911,-3.3713,-3.3154,-3.3124,-3.3124,-3.3124,-3.3124,-3.2998,-3.2667,-3.2127,-3.1348,-3.0269,-2.9942,-2.9654,-2.9365,-2.9905,-3.0068,-2.974,-3.003,-3.0306,-3.0595,-3.0595,-3.1009,-3.1788,-3.1537,-3.1411,0.0,0.0,0.0,0.0,0.0,0.0,0.0,-3.8878,-4.0377,-4.2791,-4.4346,-4.6024,-4.8561,-5.0666,-5.2383,-5.3497,-5.4895,-5.6106,-5.6932,-5.7042,-5.7042,-5.7042,-5.7611,-5.8639,-6.0236,-6.0401,-6.108,-6.2695,-6.278,-6.278,-6.278,-6.2661,-6.2271,-6.1632,-6.1286,-6.0484,-5.9111,-5.8925,-5.8529,-5.7881,-5.7881,-5.7881,-5.7881,-5.7881,-5.7881,-5.7881,-5.7746,-5.7273,-5.6478,-5.5141,-5.416,-5.3467,-5.3264,-5.2557,-5.1349,-4.9126,-4.7572,-4.6394,-4.4986,-4.3947,-4.329,-4.329,-4.329,-4.329,-4.329,-4.288,-4.2261,-4.1602,-4.0905,-4.0247,-3.9553,-3.9388,-3.9388,-3.9388,-3.9388,-3.9388,-3.9388,-3.9388,-3.9388,-3.9388,-3.8708,-3.8107,-3.8107,-3.7214,-3.6107,-3.4856,-3.4705,-3.4317,-3.324,-3.3124,-3.3124,-3.3124,-3.3124,-3.3124,-3.3124,-3.2554,-3.1838,-3.0984,-3.0821,-3.057,-3.0118,-3.0532,-3.0771,-3.0771,-3.1173,-3.1436,-3.1549,-3.1549,-3.1838,-3.2378,-3.2378,-3.2378,-3.2439,-3.4309,-3.6369,-3.8652,-3.8817,-3.9406,0.0,-4.3617,-4.3906,-4.6331,-4.7071,-4.8153,-5.1059,-5.1861,-5.279,-5.4994,-5.6088,-5.695,-5.7758,-5.7868,-5.7868,-5.7868,-5.7941,-5.8639,-6.0236,-6.0401,-6.108,-6.2695,-6.278,-6.278,-6.278,-6.2121,-6.1687,-6.1586,-6.0176,-5.9294,-5.9111,-5.837,-5.7991,-5.7881,-5.7881,-5.7881,-5.7881,-5.7881,-5.7881,-5.7848,-5.7205,-5.6511,-5.5784,-5.4938,-5.416,-5.3433,-5.2435,-5.1467,-5.055,-5.024,-4.8135,-4.544,-4.5241,-4.4377,-4.329,-4.329,-4.329,-4.329,-4.329,-4.288,-4.2261,-4.1602,-4.0905,-4.0247,-3.9553,-3.9388,-3.9388,-3.9388,-3.9388,-3.9388,-3.9388,-3.9388,-3.9388,-3.9388,-3.9301,-3.9228,-3.9228,-3.8345,-3.6958,-3.4979,-3.4705,-3.4317,-3.324,-3.3124,-3.3124,-3.3124,-3.3124,-3.3124,-3.3124,-3.2554,-3.2164,-3.2039,-3.1574,-3.1273,-3.121,-3.1273,-3.1298,-3.1298,-3.1361,-3.1625,-3.2127,-3.2127,-3.2416,-3.298,-3.298,-3.298,-3.4965,-3.6879,-3.8438,-3.9892,-4.1022,-4.2255,-4.4014,-4.4528,-4.5294,-4.7734,-4.8578,-4.941,-5.1149,-5.2576,-5.3827,-5.4844,-5.6049,-5.7134,-5.7895,-5.7997,-5.7831,-5.7373,-5.7703,-5.8639,-6.0236,-6.0401,-6.108,-6.2695,-6.278,-6.261,-6.2121,-6.177,-6.1153,-6.0176,-5.9458,-5.8875,-5.8406,-5.8082,-5.7881,-5.7881,-5.7881,-5.7881,-5.7881,-5.7881,-5.7881,-5.7865,-5.756,-5.6782,-5.57,-5.5378,-5.4549,-5.3382,-5.2312,-5.1283,-5.032,-4.9694,-4.769,-4.5289,-4.5289,-4.4436,-4.329,-4.329,-4.329,-4.329,-4.329,-4.3135,-4.2791,-4.2171,-4.1512,-4.0816,-4.0157,-3.9709,-3.9388,-3.9388,-3.9388,-3.9388,-3.9388,-3.9388,-3.9388,-3.9388,-3.9388,-3.9388,-3.9388,-3.8509,-3.7305,-3.5788,-3.5088,-3.4317,-3.324,-3.3124,-3.3124,-3.3124,-3.3124,-3.3124,-3.3124,-3.2855,-3.2566,-3.2227,-3.2001,-3.1725,-3.1399,-3.17,-3.1863,-3.1863,-3.2202,-3.2478,-3.2717,-3.2717,-3.2842,-3.3124,-3.3124,-3.3124,-3.6809,-3.8758,-4.0294,-4.1241,-4.2922,-4.4347,-4.4413,-4.4864,-4.5844,-4.7812,-4.8448,-4.9099,-5.0535,-5.2519,-5.3986,-5.4227,-5.5764,-5.7083,-5.7613,-5.7502,-5.7316,-5.7148,-5.7446,-5.8309,-5.9924,-6.0272,-6.108,-6.2695,-6.278,-6.2446,-6.1659,-6.1389,-6.0605,-5.9144,-5.8857,-5.8511,-5.7935,-5.7881,-5.7881,-5.7881,-5.7881,-5.7881,-5.7881,-5.7881,-5.7881,-5.7881,-5.7881,-5.7171,-5.6004,-5.5766,-5.4765,-5.3259,-5.2272,-5.1117,-4.9852,-4.911,-4.7435,-4.5544,-4.5364,-4.4541,-4.3544,-4.3349,-4.329,-4.329,-4.329,-4.329,-4.3155,-4.259,-4.1931,-4.1235,-4.0561,-3.9903,-3.9388,-3.9388,-3.9388,-3.9388,-3.9388,-3.9388,-3.9388,-3.9388,-3.9388,-3.9388,-3.9388,-3.8509,-3.742,-3.6369,-3.5359,-3.4317,-3.324,-3.3124,-3.3124,-3.3124,-3.3124,-3.3124,-3.3124,-3.3124,-3.2893,-3.2478,-3.2453,-3.2265,-3.1863,-3.224,-3.2453,-3.2453,-3.2867,-3.3124,-3.3124,-3.3124,-3.3124,-3.3124,-3.3124,-3.3124,-3.7486,-3.9588,-4.2072,-4.3527,-4.4539,-4.5211,-4.5405,-4.5468,-4.5736,-4.6586,-4.6265,-4.6696,-4.9501,-5.1367,-5.2688,-5.3335,-5.5373,-5.6912,-5.6938,-5.627,-5.6321,-5.778,-5.7299,-5.7483,-5.9074,-5.9942,-6.108,-6.2695,-6.278,-6.2446,-6.1659,-6.0849,-6.0023,-5.9144,-5.8352,-5.7918,-5.7881,-5.7881,-5.7881,-5.7881,-5.7881,-5.7881,-5.7881,-5.7881,-5.7881,-5.7881,-5.7881,-5.7459,-5.6714,-5.6004,-5.4647,-5.295,-5.2185,-5.0649,-4.8825,-4.8825,-4.774,-4.6202,-4.5529,-4.4855,-4.4182,-4.3499,-4.329,-4.329,-4.329,-4.329,-4.3155,-4.259,-4.1931,-4.1235,-4.0561,-3.9903,-3.9388,-3.9388,-3.9388,-3.9388,-3.9388,-3.9388,-3.9388,-3.9388,-3.9388,-3.9388,-3.9388,-3.8509,-3.742,-3.6369,-3.5359,-3.4317,-3.324,-3.3124,-3.3124,-3.3124,-3.3124,-3.3124,-3.3124,-3.3124,-3.3111,-3.3056,-3.3056,-3.3086,-3.3074,-3.3043,-3.3056,-3.3056,-3.3111,-3.3124,-3.3124,-3.3124,-3.3124,-3.3124,-3.3124,-3.3124,-3.9494,-4.1021,-4.2377,-4.3366,-4.4207,-4.4816,-4.4892,-4.4906,-4.5128,-4.5862,-4.6203,-4.666,-4.7692,-4.9476,-5.1081,-5.1896,-5.4368,-5.6159,-5.6104,-5.7209,-5.7658,-5.6599,-5.7622,-5.8608,-5.9161,-5.9423,0.0,-6.1887,-6.1514,-6.109,-6.0832,-6.0005,-5.9162,-5.8317,-5.8046,-5.7881,-5.7881,-5.7881,-5.7881,-5.7881,-5.7881,-5.7881,-5.7881,-5.7881,-5.7881,-5.7881,-5.7881,-5.7476,-5.6748,-5.6021,-5.4611,-5.2856,-5.1468,-5.0032,-4.8718,-4.8072,-4.7144,-4.6175,-4.5529,-4.487,-4.4212,-4.3499,-4.329,-4.329,-4.329,-4.329,-4.3245,-4.306,-4.2536,-4.1916,-4.122,-4.0561,-3.9963,-3.9529,-3.9388,-3.9388,-3.9388,-3.9388,-3.9388,-3.9388,-3.9388,-3.9388,-3.9388,-3.8509,-3.719,-3.548,-3.4304,-3.3513,-3.3154,-3.3124,-3.3124,-3.3124,-3.3124,-3.3124,-3.3124,-3.3124,-3.3124,-3.3124,-3.3124,-3.3124,-3.3124,-3.3124,-3.3124,-3.3124,-3.3124,-3.3124,-3.3124,-3.3124,-3.3124,-3.3124,-3.3124,-3.3124,-4.0993,-4.1931,-4.254,-4.3572,-4.4215,-4.4615,-4.4615,-4.4615,-4.475,-4.5213,-4.5429,-4.5689,-4.6281,-4.774,-4.9312,-5.0646,-5.3427,-5.5465,-5.5684,-5.7228,-5.7999,-5.7059,-5.8041,-5.8867,-5.9163,-5.9212,-5.9869,-6.1481,-6.1109,-6.0565,-5.9956,-5.941,-5.872,-5.7918,-5.7881,-5.7881,-5.7881,-5.7881,-5.7881,-5.7881,-5.7881,-5.7881,-5.7881,-5.7881,-5.7881,-5.7881,-5.7881,-5.7628,-5.712,-5.6122,-5.4581,-5.2677,-5.1035,-4.9496,-4.8183,-4.7538,-4.689,-4.6175,-4.5529,-4.487,-4.4212,-4.3499,-4.329,-4.329,-4.329,-4.329,-4.329,-4.329,-4.2865,-4.2246,-4.1587,-4.0891,-4.0232,-3.9574,-3.9388,-3.9388,-3.9388,-3.9388,-3.9388,-3.9388,-3.9388,-3.9388,-3.9388,-3.8509,-3.7242,-3.548,-3.4345,-3.3513,-3.3154,-3.3124,-3.3124,-3.3124,-3.3124,-3.3124,-3.3124,-3.3124,-3.3124,-3.3124,-3.3124,-3.3124,-3.3124,-3.3124,-3.3124,-3.3124,-3.3124,-3.3124,-3.3124,-3.3124,-3.3124,-3.3124,-3.3124,-3.3124,-4.1965,-4.2388,-4.276,-4.4242,-4.4615,-4.4615,-4.4615,-4.4581,-4.4547,-4.4547,-4.391,-4.3781,-4.5263,-4.6172,-4.7444,-4.963,-5.2642,-5.4913,-5.5556,-5.6387,-5.7455,-5.8916,-5.8466,-5.8358,-5.9141,-5.925,-5.9898,-6.1348,0.0,-6.0749,-5.9178,-5.9044,-5.8686,-5.7918,-5.7881,-5.7881,-5.7881,-5.7881,-5.7881,-5.7881,-5.7881,-5.7881,-5.7881,-5.7881,-5.7881,-5.7881,-5.7881,-5.7881,-5.7763,-5.6237,-5.4427,-5.2429,-5.0918,-4.9085,-4.7309,-4.7309,-4.686,-4.6172,-4.5529,-4.487,-4.4212,-4.3499,-4.329,-4.329,-4.329,-4.329,-4.329,-4.329,-4.2895,-4.2291,-4.1632,-4.0935,-4.0292,-3.9634,-3.9403,-3.9388,-3.9388,-3.9388,-3.9388,-3.9388,-3.9388,-3.9388,-3.9388,-3.8509,-3.742,-3.6369,-3.5359,-3.4317,-3.324,-3.3124,-3.3124,-3.3124,-3.3124,-3.3124,-3.3124,-3.3124,-3.3124,-3.3124,-3.3124,-3.3124,-3.3124,-3.3124,-3.3124,-3.3124,-3.3124,-3.3124,-3.3124,-3.3124,-3.3124,-3.3124,-3.3124,-3.3124,-4.2878,-4.3555,-4.4124,-4.4513,-4.4615,-4.4615,-4.4615,-4.413,-4.3724,-4.3724,-4.3115,-4.2692,-4.3081,-4.4714,-4.6521,-4.8186,-5.1964,-5.4747,-5.4853,-5.6976,-5.8221,-5.7499,-5.8248,-5.8905,-5.9189,-5.9746,-5.9985,0.0,-5.9176,-5.893,-5.9076,-5.8529,-5.8101,-5.7935,-5.7881,-5.7881,-5.7881,-5.7881,-5.7881,-5.7881,-5.7881,-5.7881,-5.7881,-5.7881,-5.7881,-5.7881,-5.7881,-5.7881,-5.7727,-5.5449,-5.376,-5.2389,-5.0111,-4.8418,-4.7309,-4.7309,-4.6561,-4.5529,-4.5349,-4.487,-4.4212,-4.3499,-4.329,-4.329,-4.329,-4.329,-4.329,-4.329,-4.317,-4.294,-4.2321,-4.1662,-4.0965,-4.0307,-3.9768,-3.9388,-3.9388,-3.9388,-3.9388,-3.9388,-3.9388,-3.9388,-3.9388,-3.8509,-3.742,-3.6369,-3.5359,-3.4317,-3.324,-3.3124,-3.3124,-3.3124,-3.3124,-3.3124,-3.3124,-3.3124,-3.3124,-3.3124,-3.3124,-3.3124,-3.3124,-3.3124,-3.3124,-3.3124,-3.3124,-3.3124,-3.3124,-3.3124,-3.3124,-3.3124,-3.3124,-3.3124,-4.3724,-4.4485,-4.4993,-4.4682,-4.4852,-4.4807,-4.3836,-4.3487,-4.3105,-4.2141,-4.1897,-4.1711,-4.1373,-4.2912,-4.4807,-4.665,-5.0488,-5.3573,-5.4466,-5.6934,-5.8435,-5.7865,-5.8558,-5.9104,-5.9155,-5.9569,-5.9476,-5.8633,-5.8478,-5.846,-5.8564,-5.8137,-5.7881,-5.7881,-5.7881,-5.7881,-5.7881,-5.7881,-5.7881,-5.7881,-5.7881,-5.7881,-5.7881,-5.7881,-5.7881,-5.7881,0.0,-5.7881,-5.7727,-5.5649,-5.3928,-5.2389,-5.0311,-4.861,-4.7264,-4.698,-4.6202,-4.5259,-4.496,-4.4436,-4.3783,-4.3409,-4.329,-4.329,-4.329,-4.329,-4.329,-4.329,-4.329,-4.314,-4.2575,-4.1916,-4.1205,-4.0561,-3.9903,-3.9388,-3.9388,-3.9388,-3.9388,-3.9388,-3.9388,-3.9388,-3.9388,-3.8509,-3.742,-3.6369,-3.5359,-3.4317,-3.324,-3.3124,-3.3124,-3.3124,-3.3124,-3.3124,-3.3124,-3.3124,-3.3124,-3.3124,-3.3124,-3.3124,-3.3124,-3.3124,-3.3124,-3.3124,-3.3124,-3.3124,-3.3124,-3.3124,-3.3124,-3.3124,-3.3124,-3.3124,-4.4519,-4.5128,-4.5415,-4.4874,-4.5145,-4.501,-4.2912,-4.2794,-4.253,-4.0502,-4.046,-4.0595,-4.0062,-4.1179,-4.2929,-4.5314,-4.8804,-5.2002,-5.4279,-5.6456,-5.813,-5.8839,-5.8925,-5.8925,-5.8925,-5.8925,-5.8651,-5.7954,-5.8529,-5.8616,-5.7954,-5.7881,-5.7881,-5.7881,-5.7881,-5.7881,-5.7881,-5.7881,-5.7881,-5.7881,-5.7881,-5.7881,-5.7881,-5.7881,-5.7881,-5.7881,-5.7881,0.0,-5.7645,-5.6115,-5.4287,-5.23,-5.0792,-4.9004,-4.7234,-4.6576,-4.5888,-4.52,-4.4541,-4.3843,-4.329,-4.329,-4.329,-4.329,-4.329,-4.329,-4.329,-4.329,-4.329,-4.317,-4.2641,-4.1976,-4.1235,-4.0666,-3.9963,-3.9388,-3.9388,-3.9388,-3.9388,-3.9388,-3.9388,-3.9388,-3.9388,-3.8509,-3.742,-3.6369,-3.5359,-3.4317,-3.324,-3.3124,-3.3124,-3.3124,-3.3124,-3.3124,-3.3124,-3.3124,-3.3124,-3.3124,-3.3124,-3.3124,-3.3124,-3.3124,-3.3124,-3.3124,-3.3124,-3.3124,-3.3124,-3.3124,-3.3124,-3.3124,-3.3124,-3.3124,-4.5314,-4.5145,-4.4919,-4.5382,-4.5145,-4.4502,-4.3453,-4.2371,-4.1305,-4.029,-3.9225,-3.8633,-3.9089,-4.0392,-4.2337,-4.5229,-4.8307,-5.1325,-5.4194,-5.5992,-5.7286,-5.8016,-5.8101,-5.8101,-5.8101,-5.8101,-5.8046,0.0,-5.8046,-5.8046,-5.7918,-5.7881,-5.7881,-5.7881,-5.7881,-5.7881,-5.7881,-5.7881,-5.7881,-5.7881,-5.7881,-5.7881,-5.7881,-5.7881,-5.7881,-5.7881,-5.7881,0.0,-5.6846,-5.5109,-5.3324,-5.1533,-4.977,-4.8335,-4.7234,-4.6576,-4.5888,-4.52,-4.4541,-4.3843,-4.329,-4.329,-4.329,-4.329,-4.329,-4.329,-4.329,-4.329,-4.329,-4.3275,-4.3155,-4.2282,-4.1354,-4.1235,-4.0292,-3.9388,-3.9388,-3.9388,-3.9388,-3.9388,-3.9388,-3.9388,-3.9388,-3.8509,-3.742,-3.6369,-3.5359,-3.4317,-3.324,-3.3124,-3.3124,-3.3124,-3.3124,-3.3124,-3.3124,-3.3124,-3.3124,-3.3124,-3.3124,-3.3124,-3.3124,-3.3124,-3.3124,-3.3124,-3.3124,-3.3124,-3.3124,-3.3124,-3.3124,-3.3124,-3.3124,-3.3124,-4.55,-4.572,-4.572,-4.572,-4.572,-4.501,-4.2286,-4.1424,-4.0561,-3.8227,-3.7838,-3.777,-3.7313,-3.9106,-4.1238,-4.3064,-4.5855,-4.8984,-5.2367,-5.4126,-5.5649,-5.7154,-5.7662,-5.7881,-5.7881,-5.7881,-5.7881,-5.7881,-5.7881,-5.7881,-5.7881,-5.7881,-5.7881,-5.7881,-5.7881,-5.7881,-5.7881,-5.7881,-5.7881,-5.7881,-5.7881,-5.7881,-5.7881,-5.7881,-5.7881,-5.7881,-5.7881,0.0,-5.6696,-5.5437,-5.3576,-5.1396,-5.0121,-4.8692,-4.7189,-4.6172,-4.5589,-4.5155,-4.4152,-4.3559,-4.329,-4.329,-4.329,-4.329,-4.329,-4.329,-4.329,-4.329,-4.329,-4.3215,-4.291,-4.2102,-4.1294,-4.095,-4.0127,-3.9388,-3.9388,-3.9388,-3.9388,-3.9388,-3.9388,-3.9388,-3.9388,-3.8509,-3.742,-3.6369,-3.5359,-3.4317,-3.324,-3.3124,-3.3124,-3.3124,-3.3124,-3.3124,-3.3124,-3.3124,-3.3124,-3.3124,-3.3124,-3.3124,-3.3124,-3.3124,-3.3124,-3.3124,-3.3124,-3.3124,-3.3124,-3.3124,-3.3124,-3.3124,-3.3124,-3.3124,-4.55,-4.6007,-4.6227,-4.5805,-4.5889,-4.506,-4.123,-4.0527,-3.98,-3.6535,-3.6688,-3.7094,-3.6039,-3.778,-3.9851,-4.1221,-4.3572,-4.6616,-5.061,-5.2536,-5.4329,-5.6545,-5.7442,-5.7881,-5.7881,-5.7881,0.0,-5.7881,-5.7881,-5.7881,-5.7881,-5.7881,-5.7881,-5.7881,-5.7881,-5.7881,-5.7881,-5.7881,-5.7881,-5.7881,-5.7881,-5.7881,-5.7881,-5.7881,-5.7881,-5.7881,-5.7881,0.0,0.0,-5.5953,-5.3934,-5.1188,-5.0621,-4.9125,-4.7145,-4.5783,-4.5289,-4.511,-4.3753,-4.329,-4.329,-4.329,-4.329,-4.329,-4.329,-4.329,-4.329,-4.329,-4.329,-4.314,-4.2575,-4.1916,-4.1175,-4.0382,-3.9798,-3.9388,-3.9388,-3.9388,-3.9388,-3.9388,-3.9388,-3.9388,-3.9388,-3.8708,-3.7701,-3.6408,-3.5507,-3.454,-3.3283,-3.3124,-3.3124,-3.3124,-3.3124,-3.3124,-3.3124,-3.3124,-3.3124,-3.3124,-3.3124,-3.3124,-3.3124,-3.3124,-3.3124,-3.3124,-3.3124,-3.3124,-3.3124,-3.3124,-3.3124,-3.3124,-3.3124,-3.3124,-4.55,-4.5263,-4.4953,-4.5551,-4.4705,-4.3267,-4.1508,-4.0121,-3.8717,-3.7049,-3.6231,-3.5988,-3.6592,-3.6931,-3.8234,-4.1627,-4.2997,-4.5387,-5.0475,-5.2536,-5.4329,-5.6545,-5.7442,-5.7881,-5.7881,-5.7881,-5.7881,-5.7881,-5.7881,-5.7881,-5.7881,-5.7881,-5.7881,-5.7881,-5.7881,-5.7881,-5.7881,-5.7881,-5.7881,-5.7881,-5.7881,-5.7881,-5.7881,-5.7881,-5.7881,-5.7881,-5.7881,0.0,0.0,-5.5715,-5.3652,-5.0493,-5.0429,-4.9125,-4.7145,-4.5783,-4.5289,-4.511,-4.3753,-4.329,-4.329,-4.329,-4.329,-4.329,-4.329,-4.329,-4.329,-4.329,-4.329,-4.314,-4.2575,-4.1916,-4.107,-3.9813,-3.9433,-3.9388,-3.9388,-3.9388,-3.9388,-3.9388,-3.9388,-3.9388,-3.9388,-3.9301,-3.8568,-3.6526,-3.6119,-3.5346,-3.3356,-3.3124,-3.3124,-3.3124,-3.3124,-3.3124,-3.3124,-3.3124,-3.3124,-3.3124,-3.3124,-3.3124,-3.3124,-3.3124,-3.3124,-3.3124,-3.3124,-3.3124,-3.3124,-3.3124,-3.3124,-3.3124,-3.3124,-3.3124,-4.5382,-4.5483,-4.5331,-4.5635,-4.4908,-4.3487,-4.1102,-3.9749,-3.843,-3.6485,-3.5802,-3.5701,-3.6028,-3.6468,-3.7726,-4.0527,-4.161,-4.3606,-4.7936,-4.9847,-5.1792,-5.4499,-5.5869,-5.6917,-5.7797,0.0,-5.7881,-5.7881,-5.7881,-5.7881,-5.7881,-5.7881,-5.7881,-5.7881,-5.7881,-5.7881,-5.7881,-5.7881,-5.7881,-5.7881,-5.7881,-5.7881,-5.7881,-5.7881,-5.7881,-5.7865,-5.7425,0.0,0.0,-5.4525,-5.2606,-5.0336,-4.9694,-4.8569,-4.7145,-4.5783,-4.5289,-4.511,-4.3753,-4.329,-4.329,-4.329,-4.329,-4.329,-4.329,-4.329,-4.329,-4.329,-4.329,-4.305,-4.2043,-4.0995,-4.0068,-3.9544,-3.9388,-3.9388,-3.9388,-3.9388,-3.9388,-3.9388,-3.9388,-3.9388,-3.9388,-3.887,-3.7942,-3.6448,-3.5668,-3.4761,-3.3283,-3.3124,-3.3124,-3.3124,-3.3124,-3.3124,-3.3124,-3.3124,-3.3124,-3.3124,-3.3124,-3.3124,-3.3124,-3.3124,-3.3124,-3.3124,-3.3124,-3.3124,-3.3124,-3.3124,-3.3124,-3.3124,-3.3124,-3.3124,-4.4671,-4.5196,-4.5365,-4.5365,-4.4637,-4.3234,-4.0679,-3.936,-3.8091,-3.6022,-3.56,-3.56,-3.56,-3.6265,-3.7455,-3.9462,-4.0595,-4.2506,-4.6261,-4.8071,-5.0033,-5.2807,-5.4279,-5.5632,-5.7103,-5.7628,-5.7881,-5.7881,-5.7881,-5.7881,-5.7881,-5.7881,-5.7881,-5.7881,-5.7881,-5.7881,-5.7881,-5.7881,-5.7881,-5.7881,-5.7881,-5.7881,-5.7881,-5.7662,-5.756,-5.7526,-5.6799,0.0,0.0,-5.3678,-5.1976,-5.0281,-4.9215,-4.8183,-4.7145,-4.5783,-4.5289,-4.511,-4.3753,-4.329,-4.329,-4.329,-4.329,-4.329,-4.329,-4.329,-4.329,-4.329,-4.3021,-4.2536,-4.1624,-4.0412,-3.9388,-3.9388,-3.9388,-3.9388,-3.9388,-3.9388,-3.9388,-3.9388,-3.9388,-3.9388,-3.9388,-3.8509,-3.742,-3.6369,-3.5359,-3.4317,-3.324,-3.3124,-3.3124,-3.3124,-3.3124,-3.3124,-3.3124,-3.3124,-3.3124,-3.3124,-3.3124,-3.3124,-3.3124,-3.3124,-3.3124,-3.3124,-3.3124,-3.3124,-3.3124,-3.3124,-3.3124,-3.3124,-3.3124,-3.3124,-4.3234,-4.4012,-4.4615,-4.4615,-4.3481,-4.1914,-4.0451,-3.8954,-3.7483,-3.5921,-3.56,-3.56,-3.56,-3.6265,-3.7303,-3.8751,-4.024,-4.2506,-4.6261,-4.8071,-4.983,-5.2046,-5.3044,-5.411,-5.5563,-5.7036,-5.7881,-5.7881,-5.7881,0.0,-5.7881,-5.7881,-5.7881,-5.7881,-5.7881,-5.7881,-5.7881,-5.7881,-5.7881,-5.7881,-5.7881,-5.7881,-5.7865,-5.7137,-5.6816,-5.6765,0.0,0.0,0.0,-5.3462,-5.1976,-5.0281,-4.9215,-4.8183,-4.7145,-4.5783,-4.5289,-4.511,-4.3753,-4.329,-4.329,-4.329,-4.329,-4.329,-4.329,-4.329,-4.329,-4.329,-4.2402,-4.1437,-4.1422,-4.0412,-3.9388,-3.9388,-3.9388,-3.9388,-3.9388,-3.9388,-3.9388,-3.9388,-3.9388,-3.9388,-3.9388,-3.8509,-3.742,-3.6369,-3.5359,-3.4317,-3.324,-3.3124,-3.3124,-3.3124,-3.3124,-3.3124,-3.3124,-3.3124,-3.3124,-3.3124,-3.3124,-3.3124,-3.3124,-3.3124,-3.3124,-3.3124,-3.3124,-3.3124,-3.3124,-3.3124,-3.3124,-3.3124,-3.3124,-3.3124,-4.1076,-4.1711,-4.2151,-4.166,-4.1153,-4.0417,-3.892,-3.8244,-3.7466,-3.5921,-3.56,-3.56,-3.56,-3.6265,-3.7625,-4.0104,-4.1322,-4.3081,-4.6329,-4.8071,-4.983,-5.2046,-5.4786,-5.6681,0.0,0.0,-5.7881,-5.7881,-5.7881,-5.7881,-5.7881,-5.7881,-5.7881,-5.7881,-5.7881,-5.7881,-5.7881,-5.7881,-5.7881,-5.7881,-5.7881,-5.7628,-5.7137,-5.6917,-5.6528,0.0,0.0,0.0,0.0,-5.2895,-5.1515,-5.0281,-4.9215,-4.8183,-4.7145,-4.5783,-4.5289,-4.511,-4.3753,-4.329,-4.329,-4.329,-4.329,-4.329,-4.329,-4.329,-4.329,-4.329,-4.2716,-4.1991,-4.1542,-4.0741,-3.9978,-3.9493,-3.9388,-3.9388,-3.9388,-3.9388,-3.9388,-3.9388,-3.9388,-3.9388,-3.9388,-3.8509,-3.742,-3.6369,-3.5359,-3.4317,-3.324,-3.3124,-3.3124,-3.3124,-3.3124,-3.3124,-3.3124,-3.3124,-3.3124,-3.3124,-3.3124,-3.3124,-3.3124,-3.3124,-3.3124,-3.3124,-3.3124,-3.3124,-3.3124,-3.3124,-3.3124,-3.3124,-3.3124,-3.3124,-3.9529,-4.0223,-4.0663,-4.0206,-3.9884,-3.9385,-3.8176,-3.7686,-3.7127,-3.5853,-3.56,-3.5684,-3.6011,-3.6688,-3.7905,-4.0037,-4.1457,-4.3149,-4.5602,-4.7479,-4.9509,-5.1995,-5.5124,0.0,0.0,-5.756,-5.7881,-5.7881,-5.7881,-5.7881,-5.7881,-5.7881,-5.7881,-5.7881,-5.7881,-5.7881,-5.7881,-5.7881,-5.7881,-5.7881,-5.7611,-5.7239,-5.6782,-5.6224,-5.5716,0.0,0.0,0.0,0.0,-5.2119,-5.0968,-5.0242,-4.88,-4.7683,-4.68,-4.5708,-4.514,-4.4766,-4.3663,-4.329,-4.329,-4.329,-4.329,-4.329,-4.329,-4.329,-4.329,-4.329,-4.2865,-4.2306,-4.1901,-4.107,-4.0292,-3.9888,-3.9568,-3.9388,-3.9388,-3.9388,-3.9388,-3.9388,-3.9388,-3.9388,-3.9388,-3.8509,-3.742,-3.6369,-3.5359,-3.4317,-3.324,-3.3124,-3.3124,-3.3124,-3.3124,-3.3124,-3.3124,-3.3124,-3.3124,-3.3124,-3.3124,-3.3124,-3.3124,-3.3124,-3.3124,-3.3124,-3.3124,-3.3124,-3.3124,-3.3124,-3.3124,-3.3124,-3.3124,-3.3124,0.0,-3.9266,-3.9859,-3.9791,-3.9317,-3.865,-3.7922,-3.7246,0.0,-3.5752,-3.56,-3.5853,-3.6728,-3.7432,-3.821,-3.9157,-4.1035,-4.2946,-4.4615,-4.6836,-4.9342,-5.2198,-5.4515,0.0,-5.5869,-5.7103,-5.7881,-5.7881,-5.7831,0.0,-5.7814,-5.7763,-5.7729,-5.7729,-5.7729,-5.778,-5.7881,-5.7831,-5.7814,-5.7797,-5.707,-5.6697,-5.6596,-5.5209,-5.4566,0.0,0.0,0.0,0.0,-5.132,-5.0435,-5.0204,-4.8153,-4.6903,-4.619,-4.5499,-4.484,-4.4212,-4.3529,-4.329,-4.329,-4.329,-4.329,-4.329,-4.329,-4.329,-4.329,-4.329,-4.2895,-4.2455,-4.241,-4.1452,-4.0457,-4.0412,-3.9903,-3.9388,-3.9388,-3.9388,-3.9388,-3.9388,-3.9388,-3.9388,-3.9388,-3.8509,-3.742,-3.6369,-3.5359,-3.4317,-3.324,-3.3124,-3.3124,-3.3124,-3.3124,-3.3124,-3.3124,-3.3124,-3.3124,-3.3124,-3.3124,-3.3124,-3.3124,-3.3124,-3.3124,-3.3124,-3.3124,-3.3124,-3.3124,-3.3124,-3.3124,-3.3124,-3.3124,-3.3124,-3.5453,0.0,-3.7438,-3.6806,-3.6992,-3.7094,0.0,-3.6485,-3.6552,-3.5752,-3.56,-3.6005,-3.7398,-3.7787,-3.8886,-4.1871,-4.2811,-4.4079,-4.6752,-5.005,-5.2875,-5.4685,-5.6376,-5.7374,-5.7374,-5.7695,-5.7881,-5.7881,-5.7374,-5.7053,-5.7053,-5.6528,-5.6224,-5.6224,-5.6224,-5.6765,-5.7881,-5.734,-5.7053,-5.7053,-5.6325,-5.5666,-5.5108,-5.4752,-5.4279,0.0,0.0,0.0,-5.3382,-5.2098,-5.108,-5.0233,-4.8373,-4.7137,-4.6145,-4.4975,-4.4451,-4.4212,-4.3529,-4.329,-4.329,-4.329,-4.329,-4.329,-4.329,-4.329,-4.329,-4.329,-4.3185,-4.2985,-4.253,-4.1796,-4.1025,-4.0516,-3.9903,-3.9388,-3.9388,-3.9388,-3.9388,-3.9388,-3.9388,-3.9388,-3.9388,-3.8509,-3.742,-3.6369,-3.5359,-3.4317,-3.324,-3.3124,-3.3124,-3.3124,-3.3124,-3.3124,-3.3124,-3.3124,-3.3124,-3.3124,-3.3124,-3.3124,-3.3124,-3.3124,-3.3124,-3.3124,-3.3124,-3.3124,-3.3124,-3.3124,-3.3124,-3.3124,-3.3124,-3.3124,-3.3998,-3.5368,-3.6795,-3.6688,-3.6992,-3.7178,-3.6749,-3.6451,-3.6129,-3.5684,-3.56,-3.6073,-3.7635,-3.8176,-3.9292,-4.1965,-4.3267,-4.5111,-4.8443,-5.1251,-5.3636,-5.5497,-5.6714,-5.7526,0.0,-5.7577,-5.7391,-5.7391,0.0,-5.6308,-5.6308,-5.5936,-5.5681,-5.5681,-5.5681,-5.6089,-5.6884,-5.6494,-5.6308,-5.6292,-5.5564,-5.4989,-5.4583,-5.4245,-5.3873,0.0,0.0,0.0,-5.2646,-5.1326,-5.015,-4.904,-4.7311,-4.6142,-4.5278,-4.4586,-4.4122,-4.3768,-4.3424,-4.329,-4.329,-4.329,-4.329,-4.329,-4.329,-4.329,-4.329,-4.329,-4.329,-4.32,-4.2895,-4.2102,-4.1294,-4.0935,-4.0113,-3.9388,-3.9388,-3.9388,-3.9388,-3.9388,-3.9388,-3.9388,-3.9388,-3.8509,-3.742,-3.6369,-3.5359,-3.4317,-3.324,-3.3124,-3.3124,-3.3124,-3.3124,-3.3124,-3.3124,-3.3124,-3.3124,-3.3124,-3.3124,-3.3124,-3.3124,-3.3124,-3.3124,-3.3124,-3.3124,-3.3124,-3.3124,-3.3124,-3.3124,-3.3124,-3.3124,-3.3124,-3.3508,-3.5233,-3.7032,-3.7313,-3.7736,-3.8024,-3.7787,-3.6721,-3.5769,-3.5769,-3.5769,-3.6276,-3.7939,-3.8751,-3.9749,-4.1593,-4.3792,-4.6409,-4.9627,-5.1471,-5.3247,-5.531,-5.619,0.0,-5.7492,-5.7002,-5.663,0.0,0.0,-5.5547,-5.5547,-5.5446,-5.5378,-5.5378,-5.5378,-5.5378,-5.5378,-5.5497,-5.5547,-5.553,-5.4786,-5.4431,-5.4397,-5.3788,-5.3501,-5.3501,0.0,0.0,-5.1619,-4.9939,-4.8595,-4.7521,-4.5818,-4.4811,-4.4302,-4.4212,-4.3768,-4.329,-4.329,-4.329,-4.329,-4.329,-4.329,-4.329,-4.329,-4.329,-4.329,-4.329,-4.329,-4.3275,-4.317,-4.2297,-4.1354,-4.125,-4.0307,-3.9388,-3.9388,-3.9388,-3.9388,-3.9388,-3.9388,-3.9388,-3.9388,-3.8383,-3.7266,-3.633,-3.5197,-3.4108,-3.324,-3.3124,-3.3124,-3.3124,-3.3124,-3.3124,-3.3124,-3.3124,-3.3124,-3.3124,-3.3124,-3.3124,-3.3124,-3.3124,-3.3124,-3.3124,-3.3124,-3.3124,-3.3124,-3.3124,-3.3124,-3.3124,-3.3124,-3.3124,-3.3981,-3.5994,-3.7297,-3.547,-3.6941,-3.8497,-3.7246,-3.6795,-3.6626,-3.6626,-3.6626,-3.7269,-3.9385,-3.9859,-4.106,-4.4468,-4.687,-4.8731,-4.9915,-5.1961,-5.3687,-5.4651,0.0,-5.5919,-5.6038,-5.5953,0.0,0.0,0.0,-5.4769,-5.4769,-5.4177,-5.3839,-5.3839,-5.3839,-5.3839,-5.3839,-5.4465,-5.4769,-5.4752,-5.4025,-5.367,-5.367,-5.3551,-5.3501,-5.3467,0.0,-5.195,-5.0916,-4.9176,-4.7884,-4.6865,-4.5138,-4.4407,-4.4242,-4.3648,-4.3379,-4.329,-4.329,-4.329,-4.329,-4.329,-4.329,-4.329,-4.329,-4.329,-4.329,-4.329,-4.329,-4.317,-4.2656,-4.1991,-4.125,-4.0681,-3.9963,-3.9388,-3.9388,-3.9388,-3.9388,-3.9388,-3.9388,-3.9388,-3.9388,-3.7776,-3.6408,-3.6237,-3.4568,-3.3283,-3.3124,-3.3124,-3.3124,-3.3124,-3.3124,-3.3124,-3.3124,-3.3124,-3.3124,-3.3124,-3.3124,-3.3124,-3.3124,-3.3124,-3.3124,-3.3124,-3.3124,-3.3124,-3.3124,-3.3124,-3.3124,-3.3124,-3.3124,-3.3124,-3.2123,-3.4124,-3.5764,-3.4314,-3.7394,-4.0595,-3.9943,-3.9165,-3.8589,-3.8589,-3.8582,-3.9022,-4.0426,-4.1018,-4.2506,-4.6295,-4.8088,-4.9543,-5.1065,-5.2181,-5.3298,0.0,0.0,-5.526,-5.5647,-5.5344,0.0,0.0,0.0,0.0,-5.4008,-5.3687,-5.3501,-5.3501,-5.3501,-5.3501,-5.3501,-5.3839,-5.4008,-5.3991,-5.367,-5.3501,-5.3501,-5.3501,-5.3264,-5.2841,0.0,-5.1226,-4.9397,-4.8232,-4.6872,-4.5373,-4.4218,-4.3738,-4.3708,-4.3409,-4.329,-4.329,-4.329,-4.329,-4.329,-4.329,-4.329,-4.329,-4.329,-4.329,-4.329,-4.329,-4.329,-4.323,-4.297,-4.2147,-4.1309,-4.0995,-4.0157,-3.9388,-3.9388,-3.9388,-3.9388,-3.9388,-3.9388,-3.9388,-3.9388,-3.8092,-3.6852,-3.629,-3.4925,-3.3755,-3.3154,-3.3124,-3.3124,-3.3124,-3.3124,-3.3124,-3.3124,-3.3124,-3.3124,-3.3124,-3.3124,-3.3124,-3.3124,-3.3124,-3.3124,-3.3124,-3.3124,-3.3124,-3.3124,-3.3124,-3.3124,-3.3124,-3.3124,-3.3124,-3.0662,-3.2466,-3.4341,-3.4127,-3.758,-4.1167,-4.156,-4.0735,-3.9951,-4.0236,-4.0466,-4.0772,-4.1356,-4.2489,-4.4299,-4.7192,-4.8714,-5.0118,-5.1809,-5.235,-5.3027,-5.4194,-5.4329,-5.4566,-5.5141,0.0,0.0,0.0,0.0,0.0,-5.3501,-5.3501,-5.3501,-5.3501,-5.3501,-5.3501,-5.3501,-5.3501,-5.3501,-5.3501,-5.3501,-5.3399,-5.323,-5.323,-5.279,-5.2029,-5.1646,-5.0183,-4.7997,-4.7075,-4.5654,-4.3992,-4.3484,-4.329,-4.329,-4.329,-4.329,-4.329,-4.329,-4.329,-4.329,-4.329,-4.329,-4.329,-4.329,-4.3185,-4.3105,-4.3105,-4.3,-4.288,-4.288,-4.2013,-4.1115,-4.0965,-4.0157,-3.9388,-3.9388,-3.9388,-3.9388,-3.9388,-3.9388,-3.9388,-3.9388,-3.8294,-3.7137,-3.6316,-3.5129,-3.4037,-3.3197,-3.3124,-3.3124,-3.3124,-3.3124,-3.3124,-3.3124,-3.3124,-3.3124,-3.3124,-3.3124,-3.3124,-3.3124,-3.3124,-3.3124,-3.3124,-3.3124,-3.3124,-3.3124,-3.3124,-3.3124,-3.3124,-3.3124,-3.3124,-3.1295,-3.2602,-3.4076,-3.5395,-3.6524,-3.7721,-3.9422,-3.9467,-3.9472,-4.0614,-4.1543,-4.2151,-4.2202,-4.4536,-4.6549,-4.6836,-4.9221,-5.1083,-5.1268,0.0,-5.345,-5.3568,-5.3585,-5.3602,0.0,0.0,0.0,0.0,0.0,0.0,-5.3501,-5.3501,-5.3501,-5.3501,-5.3501,-5.3501,-5.3501,-5.3501,-5.3501,-5.3501,-5.3501,-5.3112,-5.2384,-5.2384,-5.1995,-5.1186,-4.9626,-4.8346,-4.7261,-4.5661,-4.4358,-4.3364,-4.3319,-4.329,-4.329,-4.329,-4.329,-4.329,-4.329,-4.329,-4.329,-4.329,-4.329,-4.329,-4.329,-4.291,-4.247,-4.247,-4.2036,-4.1519,-4.1519,-4.0995,-4.0322,-3.9709,-3.9448,-3.9388,-3.9388,-3.9388,-3.9388,-3.9388,-3.9388,-3.9388,-3.9388,-3.7686,-3.629,-3.6198,-3.4485,-3.3197,-3.3124,-3.3124,-3.3124,-3.3124,-3.3124,-3.3124,-3.3124,-3.3124,-3.3124,-3.3124,-3.3124,-3.3124,-3.3124,-3.3124,-3.3124,-3.3124,-3.3124,-3.3124,-3.3124,-3.3124,-3.3124,-3.3124,-3.3124,-3.3124,-2.969,-3.125,-3.3029,-3.3633,-3.4921,-3.6816,-3.9784,-4.1146,-4.2142,-4.3443,-4.4449,-4.4959,-4.4502,-4.572,-4.6955,-4.7411,-4.8714,-4.9826,-5.0259,-5.069,-5.0943,-5.0943,-5.1316,-5.1557,0.0,0.0,0.0,0.0,0.0,0.0,-5.0339,-5.0883,-5.1192,-5.1192,-5.1782,-5.208,-5.208,-5.208,-5.208,-5.2097,-5.2536,-5.2587,-5.2283,-5.1843,-5.1217,-5.0458,-4.9227,-4.7901,-4.6522,-4.53,-4.422,-4.329,-4.329,-4.329,-4.329,-4.329,-4.329,-4.329,-4.329,-4.329,-4.329,-4.329,-4.329,-4.3215,-4.2851,-4.259,-4.2306,-4.1916,-4.128,-4.0861,-4.1265,-4.0891,-4.0337,-4.0083,-3.9709,-3.9388,-3.9388,-3.9388,-3.9388,-3.9388,-3.9388,-3.9388,-3.9388,-3.8167,-3.6982,-3.629,-3.5007,-3.3839,-3.3197,-3.3124,-3.3124,-3.3124,-3.3124,-3.3124,-3.3124,-3.3124,-3.3124,-3.3124,-3.3124,-3.3124,-3.3124,-3.3124,-3.3124,-3.3124,-3.3124,-3.3124,-3.3124,-3.3124,-3.3124,-3.3124,-3.3124,-3.3124,-2.9015,-3.0612,-3.2492,-3.2736,-3.4173,-3.6371,-3.9727,-4.1582,-4.2956,-4.4269,-4.5124,-4.5593,-4.56,-4.6042,-4.6629,-4.7354,-4.8164,-4.8773,-4.8973,-4.9054,-4.9085,-4.9085,-4.9496,0.0,0.0,0.0,0.0,0.0,0.0,0.0,0.0,-4.8995,-4.9365,-4.9365,-5.0258,-5.0775,-5.0775,-5.1038,-5.1185,-5.1185,-5.1488,-5.1606,-5.1589,-5.1082,-5.0456,-4.9666,-4.8447,-4.7269,-4.6103,-4.4856,-4.3927,-4.329,-4.329,-4.329,-4.329,-4.329,-4.329,-4.329,-4.329,-4.329,-4.329,-4.329,-4.3155,-4.294,-4.2545,-4.2111,-4.1692,-4.119,-4.0591,-4.0187,-4.0651,-4.0427,-4.0083,-4.0083,-3.9753,-3.9388,-3.9388,-3.9388,-3.9388,-3.9388,-3.9388,-3.9397,-3.9393,-3.84,-3.7254,-3.607,-3.4924,-3.3911,-3.3197,-3.3124,-3.3124,-3.3124,-3.3124,-3.3124,-3.3124,-3.3124,-3.3124,-3.3124,-3.3124,-3.3124,-3.3124,-3.3124,-3.3124,-3.3124,-3.3124,-3.3124,-3.3124,-3.3124,-3.3124,-3.3124,-3.3124,-3.3124,-2.9738,-3.1016,-3.2677,-3.3335,-3.4532,-3.6222,-3.8826,-4.015,-4.1165,-4.2452,-4.2905,-4.3507,-4.5109,-4.5431,-4.5693,-4.6387,-4.7704,-4.8353,-4.7425,-4.7894,-4.8363,-4.8363,-4.8379,0.0,0.0,0.0,0.0,0.0,0.0,0.0,0.0,-4.8347,-4.8363,-4.8363,-4.9279,-4.9765,-4.9765,-5.0676,-5.1168,-5.1151,-5.039,-5.0084,-5.0084,-5.0084,-4.9678,-4.8909,-4.7036,-4.6208,-4.6032,-4.4113,-4.329,-4.329,-4.329,-4.329,-4.3275,-4.3275,-4.3275,-4.3275,-4.3275,-4.3275,-4.3275,-4.3275,-4.288,-4.2396,-4.2381,-4.1467,-4.0397,-4.0382,-3.9918,-3.9388,-3.9388,-3.9388,-3.9388,-3.9388,-3.9388,-3.9388,-3.9388,-3.9388,-3.9388,-3.9388,-3.9388,-3.9407,-3.9383,-3.8206,-3.6801,-3.541,-3.4014,-3.3124,-3.3124,-3.3124,-3.3124,-3.3124,-3.3124,-3.3124,-3.3124,-3.3124,-3.3124,-3.3124,-3.3124,-3.3124,-3.3124,-3.3124,-3.3124,-3.3124,-3.3124,-3.3124,-3.3124,-3.3124,-3.3124,-3.3124,-3.3124,-3.3124,-2.9064,-3.0672,-3.2677,-3.3335,-3.5893,-3.8467,-3.9209,-4.0481,-4.2193,-4.4658,-4.4814,-4.4623,-4.5103,-4.5219,-4.5283,-4.5459,-4.5741,-4.5856,-4.5561,-4.5511,-4.5528,-4.5528,-4.5941,0.0,0.0,0.0,0.0,0.0,0.0,0.0,0.0,-4.5483,-4.5859,-4.5859,-4.6777,-4.7257,-4.7257,-4.7552,-4.769,-4.769,-4.7478,-4.8332,-5.0067,-4.956,-4.9204,-4.8909,-4.7036,-4.6208,-4.6032,-4.4113,-4.306,-4.2656,-4.2656,-4.2372,-4.1953,-4.1953,-4.1953,-4.1953,-4.1953,-4.1953,-4.1953,-4.1953,-4.1833,-4.1632,-4.113,-4.0711,-4.0307,-3.9843,-3.9574,-3.9388,-3.9388,-3.9388,-3.9388,-3.9388,-3.9388,-3.9388,-3.9388,-3.9388,-3.9388,-3.9388,-3.9388,-3.9407,-3.9383,-3.743,-3.5693,-3.5261,-3.4014,-3.3124,-3.3124,-3.3124,-3.3124,-3.3124,-3.3124,-3.3124,-3.3124,-3.3124,-3.3124,-3.3124,-3.3124,-3.3124,-3.3124,-3.3124,-3.3124,-3.3124,-3.3124,-3.3124,-3.3124,-3.3124,-3.3124,-3.3124,-3.3124,-3.3124,-3.0761,-3.2482,-3.4307,-3.522,-3.724,-3.9155,-3.9694,-4.0949,-4.2606,-4.4625,-4.4502,-4.4236,-4.4863,-4.4761,0.0,-4.4934,-4.4888,-4.4662,-4.4259,-4.404,-4.3888,-4.3888,0.0,0.0,0.0,0.0,0.0,0.0,0.0,0.0,0.0,-4.3888,-4.422,-4.422,-4.5138,-4.5634,-4.5634,-4.6012,-4.6208,-4.6208,-4.6208,-4.688,-4.8182,-4.8356,-4.8433,-4.8304,-4.6198,-4.5027,-4.459,-4.3114,-4.2327,-4.2006,-4.2006,-4.1767,-4.1422,-4.1422,-4.1422,-4.1422,-4.1422,-4.1422,-4.1422,-4.1422,-4.1205,-4.092,-4.0516,-4.0217,-3.9933,-3.9493,-3.9388,-3.9388,-3.9388,-3.9388,-3.9388,-3.9388,-3.9388,-3.9388,-3.9388,-3.9388,-3.9388,-3.9388,-3.9388,-3.9393,-3.9419,-3.659,-3.438,-3.4384,-3.3662,-3.3124,-3.3124,-3.3124,-3.3124,-3.3124,-3.3124,-3.3124,-3.3124,-3.3124,-3.3124,-3.3124,-3.3124,-3.3124,-3.3124,-3.3124,-3.3124,-3.3124,-3.3124,-3.3124,-3.3124,-3.3124,-3.3124,-3.3124,-3.3124,-3.3124,-3.356,-3.5267,-3.6626,-3.7973,-3.8437,-3.8916,-4.0202,-4.1414,-4.247,-4.2991,-4.2731,-4.2846,-4.431,-4.4127,-4.3942,-4.4553,-4.4662,-4.4335,-4.3448,-4.329,-4.329,-4.329,0.0,0.0,0.0,0.0,0.0,0.0,0.0,0.0,0.0,-4.329,-4.329,-4.329,-4.4121,-4.46,-4.4662,-4.5399,-4.5801,-4.5865,-4.5801,-4.5486,-4.5019,-4.6646,-4.7308,-4.7043,-4.4713,-4.3179,-4.2261,-4.1662,-4.1339,-4.1294,-4.1294,-4.125,-4.1205,-4.1205,-4.1205,-4.1205,-4.1205,-4.1205,-4.1205,-4.1205,-4.0801,-4.0307,-4.0307,-3.9888,-3.9388,-3.9388,-3.9388,-3.9388,-3.9388,-3.9388,-3.9388,-3.9388,-3.9388,-3.9388,-3.9388,-3.9388,-3.9388,-3.9388,-3.9382,-3.9395,-3.9401,-3.589,-3.3113,-3.3101,-3.3124,-3.3124,-3.3124,-3.3124,-3.3124,-3.3124,-3.3124,-3.3124,-3.3124,-3.3124,-3.3124,-3.3124,-3.3124,-3.3124,-3.3124,-3.3124,-3.3124,-3.3124,-3.3124,-3.3124,-3.3124,-3.3124,-3.3124,-3.3124,-3.3124,-3.3124,-3.1839,-3.3514,-3.534,-3.7165,-3.8796,-4.0172,-4.0995,-4.1384,-4.1624,-4.1773,-4.2141,-4.2518,-4.2831,-4.3201,-4.3449,-4.36,-4.363,-4.3551,-4.3329,-4.329,-4.329,-4.329,0.0,0.0,0.0,0.0,0.0,0.0,0.0,0.0,-4.326,-4.329,-4.329,-4.329,-4.3055,-4.3141,-4.363,-4.2842,-4.2681,0.0,-4.2666,-4.2759,-4.338,-4.4968,-4.5019,-4.3815,-4.325,-4.2475,-4.1617,-4.1482,-4.107,-4.0606,-4.0606,-4.0292,-3.9843,-3.9843,-3.9843,-3.9843,-3.9843,-3.9843,-3.9843,-3.9843,-3.9753,-3.9634,-3.9634,-3.9493,-3.9388,-3.9388,-3.9388,-3.9388,-3.9388,-3.9388,-3.9388,-3.9388,-3.9388,-3.9388,-3.9388,-3.9388,-3.9388,-3.9388,-3.9387,-3.9387,-3.938,-3.5885,-3.3091,-3.3109,-3.3124,-3.3124,-3.3124,-3.3124,-3.3124,-3.3124,-3.3124,-3.3124,-3.3124,-3.3124,-3.3124,-3.3124,-3.3124,-3.3124,-3.3124,-3.3124,-3.3124,-3.3124,-3.3124,-3.3124,-3.3124,-3.3124,-3.3124,-3.3124,-3.3124,-3.3124,-3.1943,-3.3918,-3.5908,-3.7883,-3.9155,-4.0023,-4.0367,-4.0442,-4.0442,-4.0442,-4.1205,-4.1931,-4.1931,-4.2432,-4.2865,-4.2865,-4.3135,-4.329,-4.329,-4.329,-4.317,-4.2895,0.0,0.0,0.0,0.0,0.0,0.0,0.0,-4.2081,-4.2372,-4.2402,-4.2402,-4.2402,-4.2073,-4.2058,-4.2402,-4.1728,-4.1587,-4.1931,-4.1587,-4.149,-4.1708,-4.3329,-4.358,-4.2756,-4.1996,-4.1379,-4.0891,-4.0561,-4.0247,-3.9933,-3.9933,-3.9723,-3.9388,-3.9388,-3.9388,-3.9388,-3.9388,-3.9388,-3.9388,-3.9388,-3.9388,-3.9388,-3.9388,-3.9388,-3.9388,-3.9388,-3.9388,-3.9388,-3.9388,-3.9388,-3.9388,-3.9388,-3.9388,-3.9388,-3.9388,-3.9388,-3.9388,-3.9388,-3.9417,-3.875,-3.6733,-3.4548,-3.3107,-3.3086,-3.3124,-3.3124,-3.3124,-3.3124,-3.3124,-3.3124,-3.3124,-3.3124,-3.3124,-3.3124,-3.3124,-3.3124,-3.3124,-3.3124,-3.3124,-3.3124,-3.3124,-3.3124,-3.3124,-3.3124,-3.3124,-3.3124,-3.3124,-3.3124,-3.3124,-3.3124,-3.1854,-3.4442,-3.6791,-3.8751,-3.9334,-3.9388,-3.9388,-3.9388,-3.9388,-3.9388,-4.0367,-4.1205,-4.1205,-4.1796,-4.2231,-4.2231,-4.2641,-4.2961,-4.2961,-4.2961,-4.2791,-4.2291,0.0,0.0,0.0,0.0,0.0,0.0,0.0,-4.1265,-4.1369,-4.1422,-4.1422,-4.1422,-4.1265,-4.1265,-4.1422,-4.116,-4.11,-4.1205,-4.11,-4.0756,-4.0284,-4.1591,-4.2217,-4.215,-4.0794,-4.0232,-4.0187,-3.9649,-3.9388,-3.9388,-3.9388,-3.9388,-3.9388,-3.9388,-3.9388,-3.9388,-3.9388,-3.9388,-3.9388,-3.9388,-3.9388,-3.9388,-3.9388,-3.9388,-3.9388,-3.9388,-3.9388,-3.9388,-3.9388,-3.9388,-3.9388,-3.9388,-3.9388,-3.9388,-3.9388,-3.9388,-3.9403,-3.9399,-3.88,-3.7215,-3.3688,-3.3091,-3.3124,-3.3124,-3.3124,-3.3124,-3.3124,-3.3124,-3.3124,-3.3124,-3.3124,-3.3124,-3.3124,-3.3124,-3.3124,-3.3124,-3.3124,-3.3124,-3.3124,-3.3124,-3.3124,-3.3124,-3.3124,-3.3124,-3.3124,-3.3124,-3.3124,-3.3124,-3.3124,-3.3124,-2.8816,-3.2377,-3.6103,-3.8048,-3.8975,-3.9388,-3.9388,-3.9388,-3.9388,-3.9388,-4.0008,-4.0531,-4.0531,-4.107,-4.1504,-4.1504,-4.1579,-4.1639,-4.1639,-4.1639,-4.1609,-4.1519,0.0,0.0,0.0,0.0,0.0,0.0,-4.0531,-4.0786,-4.1354,-4.1422,-4.1422,-4.1422,-4.0831,-4.0801,-4.1369,-4.0247,-3.9963,-4.0531,-3.9948,-3.9634,-3.9544,-3.9778,-3.9845,-3.983,-3.9625,-3.9508,-3.9544,-3.9454,-3.9388,-3.9388,-3.9388,-3.9388,-3.9388,-3.9388,-3.9388,-3.9388,-3.9388,-3.9388,-3.9388,-3.9388,-3.9388,-3.9388,-3.9388,-3.9388,-3.9388,-3.9388,-3.9388,-3.9388,-3.9388,-3.9388,-3.9388,-3.9388,-3.9388,-3.9388,-3.9388,-3.9388,-3.9414,-3.9393,-3.645,-3.3751,-3.32,-3.3109,-3.3124,-3.3124,-3.3124,-3.3124,-3.3124,-3.3124,-3.3124,-3.3124,-3.3124,-3.3124,-3.3124,-3.3124,-3.3124,-3.3124,-3.3124,-3.3124,-3.3124,-3.3124,-3.3124,-3.3124,-3.3124,-3.3124,-3.3124,-3.3124,-3.3124,-3.3124,-3.3124,-3.3124,-2.9924,-3.2542,-3.5026,-3.7719,-3.8616,-3.8945,-3.9334,-3.9388,-3.9388,-3.9388,-3.9649,-3.9843,-3.9843,-4.0382,-4.0831,-4.0831,-4.113,-4.1422,-4.1422,-4.1422,-4.125,-4.0876,0.0,0.0,0.0,0.0,0.0,0.0,-3.9843,-3.9978,-4.0262,-4.0277,-4.0277,-4.0277,-3.9993,-3.9993,-4.0277,-3.9709,-3.9574,-3.9843,-3.9559,-3.9388,-3.9388,-3.9388,-3.9388,-3.9388,-3.9388,-3.9388,-3.9388,-3.9388,-3.9388,-3.9388,-3.9388,-3.9388,-3.9388,-3.9388,-3.9388,-3.9388,-3.9388,-3.9388,-3.9388,-3.9388,-3.9388,-3.9388,-3.9388,-3.9388,-3.9388,-3.9388,-3.9388,-3.9388,-3.9388,-3.9388,-3.9388,-3.9388,-3.9388,-3.9388,-3.9388,-3.9388,-3.8701,-3.6326,-3.4366,-3.3094,-3.3122,-3.3124,-3.3124,-3.3124,-3.3124,-3.3124,-3.3124,-3.3124,-3.3124,-3.3124,-3.3124,-3.3124,-3.3124,-3.3124,-3.3124,-3.3124,-3.3124,-3.3124,-3.3124,-3.3124,-3.3124,-3.3124,-3.3124,-3.3124,-3.3124,-3.3124,-3.3124,-3.3124,-3.3124,-3.3124,-2.9939,-3.1734,-3.3245,-3.6372,-3.7644,-3.8317,-3.9005,-3.929,-3.9388,0.0,-3.9388,-3.9388,-3.9388,-3.9828,-4.0157,-4.0157,-4.0561,-4.0876,-4.0876,-4.0876,-4.0696,0.0,0.0,0.0,0.0,0.0,0.0,0.0,-3.9388,-3.9388,-3.9388,-3.9388,-3.9388,-3.9388,-3.9388,-3.9388,-3.9388,-3.9388,-3.9388,-3.9388,-3.9388,-3.9388,-3.9388,-3.9388,-3.9388,-3.9388,-3.9388,-3.9388,-3.9388,-3.9388,-3.9388,-3.9388,-3.9388,-3.9388,-3.9388,-3.9388,-3.9388,-3.9388,-3.9388,-3.9388,-3.9388,-3.9388,-3.9388,-3.9388,-3.9388,-3.9388,-3.9388,-3.9388,-3.9388,-3.9388,-3.9388,-3.9388,-3.9388,-3.9388,-3.9388,-3.9388,-3.9388,-3.8561,-3.6853,-3.3698,-3.3081,-3.308,-3.3091,-3.3124,-3.3124,-3.3124,-3.3124,-3.3124,-3.3124,-3.3124,-3.3124,-3.3124,-3.3124,-3.3124,-3.3124,-3.3124,-3.3124,-3.3124,-3.3124,-3.3124,-3.3124,-3.3124,-3.3124,-3.3124,-3.3124,-3.3124,-3.3124,-3.3124,-3.3124,-3.3124,-3.3124,-3.3124,-2.6318,-2.8308,-3.0445,-3.308,-3.5624,-3.7629,-3.8287,-3.8945,-3.9388,-3.9388,-3.9388,-3.9388,-3.9388,-3.9454,-3.9433,-3.9433,-3.9463,-3.9514,-3.9514,-3.9514,-3.9514,0.0,0.0,0.0,0.0,0.0,0.0,0.0,-3.9388,-3.9388,-3.9388,-3.9388,-3.9388,-3.9388,-3.9388,-3.9388,-3.9388,-3.9388,-3.9388,-3.9388,-3.9388,-3.9388,-3.9388,-3.9388,-3.9388,-3.9388,-3.9388,-3.9388,-3.9388,-3.9388,-3.9388,-3.9388,-3.9388,-3.9388,-3.9388,-3.9388,-3.9388,-3.9388,-3.9388,-3.9388,-3.9388,-3.9388,-3.9388,-3.9388,-3.9388,-3.9388,-3.9388,-3.9388,-3.9388,-3.9388,-3.9388,-3.9388,-3.9388,-3.9388,-3.9388,-3.9388,-3.9388,-3.6269,-3.3357,-3.3146,-3.3091,-3.3086,-3.3111,-3.3124,-3.3124,-3.3124,-3.3124,-3.3124,-3.3124,-3.3124,-3.3124,-3.3124,-3.3124,-3.3124,-3.3124,-3.3124,-3.3124,-3.3124,-3.3124,-3.3124,-3.3124,-3.3124,-3.3124,-3.3124,-3.3124,-3.3124,-3.3124,-3.3124,-3.3124,-3.3124,-3.3124,-3.3124,-2.6033,-2.7111,-2.8397,-3.1465,-3.3574,-3.519,-3.6282,-3.7689,-3.8751,-3.8751,-3.911,-3.9388,-3.9388,-3.9388,-3.9388,-3.9388,-3.9388,-3.9388,-3.9388,-3.9388,-3.9388,0.0,0.0,0.0,0.0,0.0,0.0,0.0,0.0,-3.9388,-3.9388,-3.9388,-3.9388,-3.9388,-3.9388,-3.9388,-3.9388,-3.9388,-3.9388,-3.9388,-3.9388,-3.9388,-3.9388,-3.9388,-3.9388,-3.9388,-3.9388,-3.9388,-3.9388,-3.9388,-3.9388,-3.9388,-3.9388,-3.9388,-3.9388,-3.9388,-3.9388,-3.9388,-3.9388,-3.9388,-3.9388,-3.9388,-3.9388,-3.9388,-3.9388,-3.9388,-3.9388,-3.9388,-3.9388,-3.9388,-3.9388,-3.9388,-3.9388,-3.9388,-3.9388,-3.9147,-3.8251,-3.6151,-3.4179,-3.3258,-3.3097,-3.3124,-3.3124,-3.3124,-3.3124,-3.3124,-3.3124,-3.3124,-3.3124,-3.3124,-3.3124,-3.3124,-3.3124,-3.3124,-3.3124,-3.3124,-3.3124,-3.3124,-3.3124,-3.3124,-3.3124,-3.3124,-3.3124,-3.3124,-3.3124,-3.3124,-3.3124,-3.3124,-3.3124,-3.3124,-3.3124,-3.3124,-2.5226,-2.5914,-2.7006,-3.0076,-3.1689,-3.3021,-3.504,-3.6507,-3.7539,-3.7973,-3.8601,-3.914,-3.9379,-3.9388,-3.9388,-3.9388,-3.9388,-3.9388,-3.9388,-3.9388,0.0,0.0,0.0,0.0,0.0,0.0,0.0,0.0,0.0,0.0,-3.9388,-3.9388,-3.9388,-3.9388,-3.9388,-3.9388,-3.9388,-3.9388,-3.9388,-3.9388,-3.9388,-3.9388,-3.9388,-3.9388,-3.9388,-3.9388,-3.9388,-3.9388,-3.9388,-3.9388,-3.9388,-3.9388,-3.9388,-3.9388,-3.9388,-3.9388,-3.9388,-3.9388,-3.9388,-3.9388,-3.9388,-3.9388,-3.9388,-3.9388,-3.9388,-3.9388,-3.9388,-3.9388,-3.9388,-3.9388,-3.9388,-3.9388,-3.9388,-3.9388,-3.9388,-3.895,-3.7277,-3.6036,-3.4793,-3.3394,-3.3098,-3.3124,-3.3124,-3.3124,-3.3124,-3.3124,-3.3124,-3.3124,-3.3124,-3.3124,-3.3124,-3.3124,-3.3124,-3.3124,-3.3124,-3.3124,-3.3124,-3.3124,-3.3124,-3.3124,-3.3124,-3.3124,-3.3124,-3.3124,-3.3124,-3.3124,-3.3124,-3.3124,-3.3124,-3.3124,-3.3124,-3.3124,0.0,0.0,0.0,-2.8786,-2.9909,-3.1255,-3.4562,0.0,-3.5759,-3.706,-3.7838,-3.8512,-3.9194,-3.9328,-3.9328,-3.9328,-3.9358,-3.9388,-3.9388,-3.9388,0.0,0.0,0.0,0.0,0.0,0.0,0.0,0.0,-3.9388,-3.9388,-3.9388,-3.9388,-3.9388,-3.9388,-3.9388,-3.9388,-3.9388,-3.9388,-3.9388,-3.9388,-3.9388,-3.9388,-3.9388,-3.9388,-3.9388,-3.9388,-3.9388,-3.9388,-3.9388,-3.9388,-3.9388,-3.9388,-3.9388,-3.9388,-3.9388,-3.9388,-3.9388,-3.9388,-3.9388,-3.9388,-3.9388,-3.9388,-3.9388,-3.9388,-3.9388,-3.9388,-3.9388,-3.9388,-3.9388,-3.9388,-3.9388,-3.9388,-3.9388,-3.9388,-3.9388,-3.8819,-3.6682,-3.5674,-3.482,-3.3366,-3.3111,-3.3124,-3.3124,-3.3124,-3.3124,-3.3124,-3.3124,-3.3124,-3.3124,-3.3124,-3.3124,-3.3124,-3.3124,-3.3124,-3.3124,-3.3124,-3.3124,-3.3124,-3.3124,-3.3124,-3.3124,-3.3124,-3.3124,-3.3124,-3.3124,-3.3124,-3.3124,-3.3124,-3.3124,-3.3124,-3.3124,-3.3124,-2.3729,0.0,0.0,0.0,0.0,0.0,0.0,0.0,-3.311,-3.4921,-3.5833,-3.6641,-3.7764,-3.7958,-3.7958,-3.7958,-3.8781,-3.9388,-3.9388,-3.9388,0.0,0.0,0.0,0.0,0.0,0.0,0.0,0.0,-3.9388,-3.9388,-3.9388,-3.9388,-3.9388,-3.9388,-3.9388,-3.9388,-3.9388,-3.9388,-3.9388,-3.9388,-3.9388,-3.9388,-3.9388,-3.9388,-3.9388,-3.9388,-3.9388,-3.9388,-3.9388,-3.9388,-3.9388,-3.9388,-3.9388,-3.9388,-3.9388,-3.9388,-3.9388,-3.9388,-3.9388,-3.9388,-3.9388,-3.9388,-3.9388,-3.9388,-3.9388,-3.9388,-3.9388,-3.9388,-3.9388,-3.9388,-3.9388,-3.9388,-3.9388,-3.9388,-3.9388,-3.8819,-3.6682,-3.605,-3.5345,-3.3478,-3.3109,-3.3124,-3.3124,-3.3124,-3.3124,-3.3124,-3.3124,-3.3124,-3.3124,-3.3124,-3.3124,-3.3124,-3.3124,-3.3124,-3.3124,-3.3124,-3.3124,-3.3124,-3.3124,-3.3124,-3.3124,-3.3124,-3.3124,-3.3124,-3.3124,-3.3124,-3.3124,-3.3124,-3.3124,-3.3124,-3.3124,-3.3124,-2.4627,-2.4709,-2.5217,-2.6054,0.0,0.0,-2.8906,-2.9879,-3.0941,0.0,-3.4203,-3.507,-3.6372,-3.6611,-3.6701,-3.6985,-3.7689,-3.8377,-3.8916,-3.923,0.0,0.0,0.0,0.0,0.0,-3.9388,-3.9388,-3.9388,-3.9388,-3.9388,-3.9388,-3.9388,-3.9388,-3.9388,-3.9388,-3.9388,-3.9388,-3.9388,-3.9275,-3.899,-3.899,-3.899,-3.899,-3.899,-3.9155,-3.9388,-3.9388,-3.9388,-3.9388,-3.9388,-3.9388,-3.9388,-3.9388,-3.9388,-3.9388,-3.9388,-3.9388,-3.9388,-3.9388,-3.9388,-3.9388,-3.9388,-3.9388,-3.9388,-3.9388,-3.9388,-3.9388,-3.9388,-3.9388,-3.9388,-3.9388,-3.9388,-3.9388,-3.9388,-3.9068,-3.8256,-3.6565,-3.5854,-3.5075,-3.3428,-3.3124,-3.3124,-3.3124,-3.3124,-3.3124,-3.3124,-3.3124,-3.3124,-3.3124,-3.3124,-3.3124,-3.3124,-3.3124,-3.3124,-3.3124,-3.3124,-3.3124,-3.3124,-3.3124,-3.3124,-3.3124,-3.3124,-3.3124,-3.3124,-3.3124,-3.2998,-3.2717,-3.2998,-3.3124,-3.3124,-3.3124,-3.2955,-2.6019,-2.5884,-2.6333,-2.7964,-2.7156,0.0,-2.934,-2.9205,-2.9146,0.0,-3.2422,-3.3275,-3.4696,-3.4951,-3.516,-3.5833,-3.6118,-3.6731,-3.8093,-3.8811,0.0,0.0,0.0,0.0,-3.9373,-3.9388,-3.9394,-3.9269,-3.923,-3.92,-3.92,-3.92,-3.92,-3.92,-3.92,-3.92,-3.92,-3.92,-3.8886,-3.8287,-3.8287,-3.8287,-3.8287,-3.8287,-3.8616,-3.92,-3.9275,-3.9305,-3.9269,-3.9394,-3.9388,-3.9388,-3.9388,-3.9388,-3.9388,-3.9388,-3.9388,-3.9388,-3.9388,-3.9388,-3.9388,-3.9388,-3.9388,-3.9388,-3.9388,-3.9388,-3.9388,-3.9388,-3.9388,-3.9388,-3.9388,-3.9388,-3.9373,-3.9265,-3.859,-3.762,-3.6304,-3.5373,-3.4413,-3.3326,-3.3124,-3.3124,-3.3124,-3.3124,-3.3124,-3.3124,-3.3124,-3.3124,-3.3124,-3.3124,-3.3124,-3.3124,-3.3124,-3.3124,-3.3124,-3.3124,-3.3124,-3.3124,-3.3124,-3.3124,-3.3124,-3.3124,-3.3124,-3.3124,-3.3018,-3.2704,-3.2127,-3.2641,-3.2893,-3.2893,-3.2893,-3.2616,-2.754,-2.759,-2.7844,-2.7156,-2.7515,0.0,-2.6797,-2.72,-2.7944,0.0,-2.8663,-2.9322,-3.1135,-3.148,-3.1704,-3.2363,-3.3829,-3.5504,-3.7345,-3.7719,0.0,0.0,0.0,0.0,-3.9364,-3.9388,-3.9185,-3.8631,-3.8108,-3.7793,-3.7793,-3.7793,-3.7793,-3.7793,-3.7793,-3.7793,-3.7793,-3.7793,-3.7734,-3.7599,-3.7599,-3.7599,-3.7599,-3.7599,-3.7674,-3.7838,-3.8362,-3.8601,-3.8631,-3.9185,-3.9388,-3.9388,-3.9388,-3.9388,-3.9388,-3.9388,-3.9388,-3.9388,-3.9388,-3.9388,-3.9388,-3.9388,-3.9388,-3.9388,-3.9388,-3.9388,-3.9388,-3.9388,-3.9388,-3.9388,-3.9388,-3.9388,-3.9177,-3.8308,-3.862,-3.8337,-3.5575,-3.5044,-3.471,-3.3338,-3.3124,-3.3124,-3.3124,-3.3124,-3.3124,-3.3124,-3.3124,-3.3124,-3.3124,-3.3124,-3.3124,-3.3124,-3.3124,-3.3124,-3.3124,-3.3124,-3.3124,-3.3124,-3.3124,-3.3124,-3.3124,-3.3124,-3.3124,-3.3124,-3.2616,-3.2114,-3.1549,-3.1662,-3.1712,-3.1712,-3.1712,-3.1662,-2.8963,-2.8858,-2.9011,-2.8637,-2.8308,0.0,0.0,-2.7335,-2.739,-2.8393,-2.8064,-2.8109,-2.9744,-2.9774,-2.9774,-3.0447,-3.1943,-3.335,-3.4306,-3.6178,-3.7524,0.0,0.0,0.0,-3.8377,-3.8407,-3.8272,-3.7928,-3.7599,-3.7404,-3.7404,-3.7404,-3.7404,-3.7404,-3.7404,-3.7404,-3.7404,-3.7404,-3.7255,-3.6941,-3.6941,-3.6941,-3.6941,-3.6941,-3.712,-3.7419,-3.7764,-3.7898,-3.7928,-3.8272,-3.8616,-3.8931,-3.929,-3.9388,-3.9388,-3.9388,-3.9388,-3.9388,-3.9388,-3.9388,-3.9388,-3.9388,-3.9388,-3.9388,-3.9388,-3.9388,-3.9388,-3.9388,-3.9388,-3.9388,-3.9388,-3.9388,-3.9141,-3.8069,-3.7787,-3.7228,-3.5155,-3.441,-3.3929,-3.3253,-3.3124,-3.3124,-3.3124,-3.3124,-3.3124,-3.3124,-3.3124,-3.3124,-3.3124,-3.3124,-3.3124,-3.3124,-3.3124,-3.3124,-3.3124,-3.3124,-3.3124,-3.3124,-3.3124,-3.3124,-3.3124,-3.2805,-3.2516,-3.224,-3.17,-3.1286,-3.0997,-3.0733,-3.0871,-3.1386,-3.1386,-3.1248,-3.0313,-3.0043,-3.0178,-3.0298,-2.9415,-2.8633,0.0,0.0,0.0,-2.8562,-2.7974,0.0,0.0,0.0,0.0,0.0,0.0,0.0,0.0,-3.3798,0.0,0.0,0.0,0.0,0.0,-3.6881,-3.6821,-3.721,-3.6761,-3.6641,-3.7015,-3.7045,-3.7045,-3.7045,-3.7045,-3.7045,-3.7045,-3.7045,-3.6791,-3.6297,-3.6297,-3.6297,-3.6297,-3.6297,-3.6567,-3.7045,-3.718,-3.724,-3.724,-3.736,-3.7719,-3.8257,-3.896,-3.9305,-3.9373,-3.9275,-3.9305,-3.9394,-3.9275,-3.9305,-3.9388,-3.9388,-3.9388,-3.9388,-3.9388,-3.9388,-3.9388,-3.9388,-3.9388,-3.9388,-3.9388,-3.9388,-3.909,-3.7988,-3.6821,-3.5705,-3.4641,-3.372,-3.3124,-3.3124,-3.3124,-3.3124,-3.3124,-3.3124,-3.3124,-3.3124,-3.3124,-3.3124,-3.3124,-3.3124,-3.3124,-3.3124,-3.3023,-3.2918,-3.2918,-3.2817,-3.2797,-3.2797,-3.2797,-3.2797,-3.2797,-3.2303,-3.18,-3.1248,-3.0834,-3.057,-3.0457,-3.0005,-3.0244,-3.1085,-3.1085,-3.0859,-3.1645,-3.1705,-3.1779,-3.0103,-3.0821,-3.1076,-2.7694,0.0,-2.7934,-2.6378,0.0,0.0,0.0,0.0,0.0,0.0,0.0,0.0,-2.8139,-2.9909,-3.1943,-3.3724,0.0,0.0,0.0,-3.4981,-3.4681,-3.6462,-3.4397,-3.3844,-3.5624,-3.5729,-3.5729,-3.5729,-3.5729,-3.5729,-3.5729,-3.5729,-3.5684,-3.5609,-3.5609,-3.5609,-3.5609,-3.5609,-3.5654,-3.5759,-3.6327,-3.6596,-3.6626,-3.718,-3.7449,-3.7584,-3.8242,-3.8886,-3.9313,-3.8736,-3.8901,-3.9334,-3.8721,-3.8901,-3.9388,-3.9388,-3.9388,-3.9388,-3.9388,-3.9388,-3.9388,-3.9388,-3.9388,-3.9388,-3.9388,-3.9388,-3.906,-3.7679,-3.6322,-3.494,-3.3595,-3.3208,-3.3124,-3.3124,-3.3124,-3.3124,-3.3124,-3.3124,-3.3124,-3.3124,-3.3124,-3.3124,-3.3124,-3.3124,-3.3124,-3.3124,-3.2616,-3.2303,-3.2303,-3.1863,-3.1587,-3.1587,-3.1587,-3.1587,-3.1587,-3.1512,-3.1235,-3.0708,-3.0645,-3.0382,-2.988,-2.9829,-2.9854,-2.998,-2.998,-2.9942,-3.1765,-3.1989,-3.2198,-3.1016,-3.1031,-3.0806,-2.8786,-2.8184,-2.7874,0.0,0.0,0.0,0.0,0.0,0.0,0.0,-2.6811,0.0,0.0,0.0,-2.9535,0.0,0.0,0.0,0.0,0.0,0.0,0.0,-3.3006,-3.2811,-3.4801,-3.4906,-3.51,-3.5489,-3.5504,-3.5504,-3.5504,-3.5504,-3.5504,-3.5504,-3.5504,-3.5504,-3.5504,-3.5504,-3.5504,-3.5519,-3.5804,-3.5923,-3.5938,-3.6193,-3.6522,-3.6911,-3.718,-3.7689,-3.8212,-3.7928,-3.8003,-3.8212,-3.7913,-3.8003,-3.8317,-3.8691,-3.8571,-3.8392,-3.9149,-3.914,-3.8901,-3.9305,-3.9125,-3.8906,-3.9288,-3.8427,-3.7295,-3.6768,-3.5576,-3.4206,-3.2877,-3.2849,-3.3124,-3.3124,-3.3124,-3.3124,-3.3124,-3.3124,-3.3124,-3.3124,-3.3124,-3.3124,-3.3124,-3.3124,-3.2955,-3.2616,-3.2353,-3.2077,-3.1763,-3.1524,-3.1386,-3.1386,-3.1386,-3.1248,-3.0947,-3.0947,-3.0683,-3.0143,-3.0143,-3.0018,-2.9792,-2.9792,-2.9792,-2.9792,-2.9792,-2.9792,-3.2004,0.0,0.0,0.0,0.0,0.0,0.0,0.0,0.0,0.0,0.0,0.0,0.0,0.0,-2.5809,-2.563,0.0,-2.6033,0.0,-2.6048,0.0,0.0,0.0,0.0,0.0,0.0,0.0,0.0,0.0,-3.1465,-3.3814,-3.4144,-3.4517,-3.519,-3.54,-3.5504,-3.5504,-3.5504,-3.5504,-3.5504,-3.5504,-3.5504,-3.5504,-3.5504,-3.5504,-3.5504,-3.5504,-3.5504,-3.5504,-3.5504,-3.5789,-3.6222,-3.6222,-3.6492,-3.6911,-3.709,-3.727,-3.7389,-3.721,-3.727,-3.7479,-3.7958,-3.7808,-3.7629,-3.8781,-3.8661,-3.8257,-3.8945,-3.8646,-3.8262,-3.8898,-3.7819,-3.6657,-3.6997,-3.5618,-3.3911,-3.2708,-3.2786,-3.3031,-3.2867,-3.2842,-3.2842,-3.2842,-3.2968,-3.3124,-3.3124,-3.3124,-3.3061,-3.2855,-3.2842,-3.2616,-3.2051,-3.1863,-3.1612,-3.121,-3.1035,-3.0947,-3.0947,-3.0947,-3.0783,-3.0407,-3.0394,-3.0206,-2.9804,-2.9792,-2.9792,-2.9792,-2.9792,-2.9792,-2.9792,-2.9792,-2.9792,0.0,0.0,0.0,-2.949,0.0,0.0,0.0,0.0,-2.9172,0.0,0.0,0.0,0.0,-2.7046,-2.6348,-2.5719,-2.563,0.0,0.0,0.0,0.0,0.0,0.0,0.0,0.0,0.0,0.0,0.0,0.0,0.0,-3.2407,-3.3185,-3.3829,-3.4518,-3.516,-3.5504,-3.5504,-3.5504,-3.5504,-3.5504,-3.5504,-3.5504,-3.5504,-3.5504,-3.5504,-3.5504,-3.5504,-3.5504,-3.5504,-3.5504,-3.5519,-3.5534,-3.5534,-3.5549,-3.5639,-3.6282,-3.6896,-3.733,-3.6731,-3.6911,-3.7404,-3.7434,-3.7419,-3.7539,-3.8212,-3.7958,-3.7584,-3.8242,-3.7943,-3.753,-3.8014,-3.8071,-3.8256,-3.9099,-3.6866,-3.4313,-3.3302,-3.3107,-3.2918,-3.2353,-3.224,-3.224,-3.224,-3.2704,-3.3124,-3.3124,-3.3124,-3.288,-3.2315,-3.224,-3.2026,-3.1474,-3.0972,-3.0658,-3.0645,-3.0143,-2.9842,-2.9842,-2.9842,-2.9829,-2.9817,-2.9817,-2.9817,-2.9792,-2.9792,-2.9792,-2.9792,-2.9792,-2.9792,-2.9792,-2.9792,-2.9792,0.0,0.0,-3.3559,-3.115,0.0,0.0,0.0,0.0,0.0,0.0,0.0,0.0,-2.7839,-2.7061,-2.6512,-2.6303,-2.5525,-2.4784,0.0,0.0,0.0,0.0,0.0,0.0,0.0,0.0,0.0,0.0,-2.8757,0.0,0.0,-3.2452,-3.3155,-3.3799,-3.4053,-3.4382,-3.4816,-3.4848,-3.5055,-3.5504,-3.5504,-3.5504,-3.5504,-3.5504,-3.5504,-3.5504,-3.5504,-3.5504,-3.5504,-3.5504,-3.5504,-3.5504,-3.5504,-3.5504,-3.5534,-3.5744,-3.5968,-3.6118,-3.5908,-3.5968,-3.6222,-3.6656,-3.6507,-3.6342,-3.7419,-3.73,-3.6926,-3.7569,-3.7379,-3.7102,-3.7522,-3.6055,-3.4219,-3.3248,-3.223,-3.1461,-3.1623,-3.2431,-3.2836,-3.1854,-3.1964,-3.2102,-3.1725,-3.1838,-3.2089,-3.2453,-3.219,-3.1888,-3.17,-3.1675,-3.1474,-3.0934,-3.0721,-3.047,-3.0105,-2.9892,-2.9792,-2.9792,-2.9792,-2.9792,-2.9792,-2.9792,-2.9792,-2.9792,-2.9792,-2.9792,-2.9792,-2.9792,-2.9792,-2.9792,-2.9792,-2.9792,-3.3903,-3.4189,0.0,-3.1989,-3.1346,0.0,-2.8996,0.0,-2.9325,0.0,0.0,0.0,0.0,-2.7375,-2.6587,-2.6587,-2.5457,-2.453,0.0,-2.4231,0.0,0.0,0.0,0.0,0.0,0.0,-2.7006,-2.8143,-2.7799,0.0,0.0,0.0,-3.2213,-3.3125,-3.338,-3.3709,-3.4159,-3.4128,-3.4352,-3.4801,-3.4801,-3.4921,-3.513,-3.513,-3.5265,-3.5504,-3.5504,-3.5504,-3.5504,-3.5504,-3.5504,-3.5504,-3.5504,-3.5504,-3.5504,-3.5504,-3.5504,-3.5504,-3.5504,-3.5504,-3.5579,-3.5998,-3.5848,-3.5699,-3.6761,-3.6641,-3.6267,-3.6896,-3.672,-3.6394,-3.6641,-3.5185,-3.3339,-3.2104,-3.0794,-2.9916,-3.043,-3.1245,-3.1763,-3.1223,-3.1399,-3.1537,-3.1173,-3.0947,-3.1072,-3.1813,-3.1625,-3.1323,-3.1135,-3.1122,-3.0909,-3.0382,-3.0319,-3.0181,-2.9829,-2.9792,-2.9792,-2.9792,-2.9792,-2.9792,-2.9792,-2.9792,-2.9792,-2.9792,-2.9792,-2.9792,-2.9792,-2.9792,-2.9792,-2.9792,-2.9792,-2.9792]},{"header":{"parameterUnit":"m.s-1","parameterCategory":1,"la1":30.6,"la2":29.2853,"lo1":-89.7004,"lo2":-87.6739,"dy":0.0162,"dx":0.0183,"nx":112,"ny":82,"refTime":"2024-06-22T18:00:00:Z","depth":0,"parameterNumber":3,"parameterNumberName":"V-component_of_WINDS"},"data":[0.0,0.0,0.0,0.0,0.0,0.0,0.0,0.0,0.0,0.0,0.0,0.0,0.0,0.0,0.0,0.0,0.0,0.0,0.0,0.0,0.0,0.0,0.0,0.0,0.0,0.0,0.0,0.0,0.0,0.0,0.0,0.0,0.0,0.0,0.0,0.0,0.0,0.0,0.0,0.0,0.0,0.0,0.0,0.0,0.0,0.0,0.0,0.0,0.0,0.0,0.0,0.0,0.0,0.0,0.0,0.0,0.0,0.0,0.0,0.0,0.0,0.0,0.0,0.0,0.0,0.0,0.0,0.0,0.0,0.0,0.0,0.0,0.0,0.0,0.0,0.0,0.0,0.0,0.0,0.0,0.0,0.0,0.0,0.0,0.0,0.0,0.0,0.0,0.0,0.0,-2.748,-3.003,-3.1964,-3.3124,-3.3124,-3.2466,-3.0947,-2.8273,0.0,0.0,0.0,0.0,0.0,0.0,0.0,0.0,0.0,0.0,0.0,0.0,0.0,0.0,0.0,0.0,0.0,0.0,0.0,0.0,0.0,0.0,0.0,0.0,0.0,0.0,0.0,0.0,0.0,0.0,0.0,0.0,0.0,0.0,0.0,0.0,0.0,0.0,0.0,0.0,0.0,0.0,0.0,0.0,0.0,0.0,0.0,0.0,0.0,0.0,0.0,0.0,0.0,0.0,0.0,0.0,0.0,0.0,0.0,0.0,0.0,0.0,0.0,0.0,0.0,0.0,0.0,0.0,0.0,0.0,0.0,0.0,0.0,0.0,0.0,0.0,0.0,0.0,0.0,0.0,0.0,0.0,0.0,0.0,0.0,0.0,0.0,0.0,0.0,0.0,0.0,0.0,0.0,0.0,0.0,0.0,0.0,0.0,0.0,0.0,0.0,0.0,0.0,0.0,-2.807,-3.2181,-3.2923,-3.3124,-3.3124,-3.2114,-3.0532,-2.8247,0.0,0.0,0.0,0.0,0.0,0.0,0.0,0.0,0.0,0.0,0.0,0.0,0.0,0.0,0.0,0.0,0.0,0.0,0.0,0.0,0.0,0.0,0.0,0.0,0.0,0.0,0.0,0.0,0.0,0.0,0.0,0.0,0.0,0.0,0.0,0.0,0.0,0.0,0.0,0.0,0.0,0.0,0.0,0.0,0.0,0.0,0.0,0.0,0.0,0.0,0.0,0.0,0.0,0.0,0.0,0.0,0.0,0.0,0.0,0.0,0.0,0.0,0.0,0.0,0.0,0.0,0.0,0.0,0.0,0.0,0.0,0.0,0.0,0.0,0.0,0.0,0.0,0.0,0.0,0.0,0.0,0.0,0.0,0.0,0.0,0.0,0.0,0.0,0.0,0.0,0.0,0.0,0.0,0.0,0.0,0.0,0.0,0.0,0.0,0.0,0.0,0.0,0.0,-2.7331,-2.9151,-3.2747,-3.3124,-3.3124,-3.3124,-3.2039,-3.0444,-2.8247,-2.6612,0.0,0.0,0.0,0.0,0.0,0.0,0.0,0.0,0.0,0.0,0.0,0.0,0.0,0.0,0.0,0.0,0.0,0.0,0.0,0.0,0.0,0.0,0.0,0.0,0.0,0.0,0.0,0.0,0.0,0.0,0.0,0.0,0.0,0.0,0.0,0.0,0.0,0.0,0.0,0.0,0.0,0.0,0.0,0.0,0.0,0.0,0.0,0.0,0.0,0.0,0.0,0.0,0.0,0.0,0.0,0.0,0.0,0.0,0.0,0.0,0.0,0.0,0.0,0.0,0.0,0.0,0.0,0.0,0.0,0.0,0.0,0.0,0.0,0.0,0.0,0.0,0.0,0.0,0.0,0.0,0.0,0.0,0.0,0.0,0.0,0.0,0.0,0.0,0.0,0.0,0.0,0.0,0.0,0.0,0.0,0.0,0.0,0.0,0.0,0.0,0.0,0.0,-2.9101,-3.0432,-3.2817,-3.3124,-3.3124,-3.3124,-3.1839,-3.02,-2.8239,-2.6421,0.0,0.0,0.0,0.0,0.0,0.0,0.0,0.0,0.0,0.0,0.0,0.0,0.0,0.0,0.0,0.0,0.0,0.0,0.0,0.0,0.0,0.0,0.0,0.0,0.0,0.0,0.0,0.0,0.0,0.0,0.0,0.0,0.0,0.0,0.0,0.0,0.0,0.0,0.0,0.0,0.0,0.0,0.0,0.0,0.0,0.0,0.0,0.0,0.0,0.0,0.0,0.0,0.0,0.0,0.0,0.0,0.0,0.0,0.0,0.0,0.0,0.0,0.0,0.0,0.0,0.0,0.0,0.0,0.0,0.0,0.0,0.0,0.0,0.0,0.0,0.0,0.0,0.0,0.0,0.0,0.0,0.0,0.0,0.0,0.0,0.0,0.0,0.0,0.0,0.0,0.0,0.0,0.0,0.0,0.0,0.0,0.0,0.0,0.0,0.0,0.0,0.0,-2.9668,-3.17,-3.2986,-3.3124,-3.3124,-3.3124,-3.1188,-2.9489,-2.827,-2.5741,0.0,0.0,0.0,0.0,0.0,0.0,0.0,0.0,0.0,0.0,0.0,0.0,0.0,0.0,0.0,0.0,0.0,0.0,0.0,0.0,0.0,0.0,0.0,0.0,0.0,0.0,0.0,0.0,0.0,0.0,0.0,0.0,0.0,0.0,0.0,0.0,0.0,0.0,0.0,0.0,0.0,0.0,0.0,0.0,0.0,0.0,0.0,0.0,0.0,0.0,0.0,0.0,0.0,0.0,0.0,0.0,0.0,0.0,0.0,0.0,0.0,0.0,0.0,0.0,0.0,0.0,0.0,0.0,0.0,0.0,0.0,0.0,0.0,0.0,0.0,0.0,0.0,0.0,0.0,0.0,0.0,0.0,0.0,0.0,0.0,0.0,0.0,0.0,0.0,0.0,0.0,0.0,0.0,0.0,0.0,0.0,0.0,0.0,0.0,0.0,0.0,0.0,-3.0323,-3.2548,-3.4794,-3.5034,-3.5034,-3.5034,-3.2774,-3.0709,-2.9309,0.0,0.0,0.0,0.0,0.0,0.0,0.0,0.0,0.0,0.0,0.0,0.0,0.0,0.0,0.0,0.0,0.0,0.0,0.0,0.0,0.0,0.0,0.0,0.0,0.0,0.0,0.0,0.0,0.0,0.0,0.0,0.0,0.0,0.0,0.0,0.0,0.0,0.0,0.0,0.0,0.0,0.0,0.0,0.0,0.0,0.0,0.0,0.0,0.0,0.0,0.0,0.0,0.0,0.0,0.0,0.0,0.0,0.0,0.0,0.0,0.0,0.0,0.0,0.0,0.0,0.0,0.0,0.0,0.0,0.0,0.0,0.0,0.0,0.0,0.0,0.0,0.0,0.0,0.0,0.0,0.0,0.0,0.0,0.0,0.0,0.0,0.0,0.0,0.0,0.0,0.0,0.0,0.0,0.0,0.0,0.0,0.0,0.0,0.0,0.0,0.0,0.0,-2.8982,-3.1277,-3.36,-3.5935,-3.6198,-3.6129,-3.5949,-3.3561,-3.1375,-2.9664,0.0,0.0,0.0,0.0,0.0,0.0,0.0,0.0,0.0,0.0,0.0,0.0,0.0,0.0,0.0,0.0,0.0,0.0,0.0,0.0,0.0,0.0,0.0,0.0,0.0,0.0,0.0,0.0,0.0,0.0,0.0,0.0,0.0,0.0,0.0,0.0,0.0,0.0,0.0,0.0,0.0,0.0,0.0,0.0,0.0,0.0,0.0,0.0,0.0,0.0,0.0,0.0,0.0,0.0,0.0,0.0,0.0,0.0,0.0,0.0,0.0,0.0,0.0,0.0,0.0,0.0,0.0,0.0,0.0,0.0,0.0,0.0,0.0,0.0,0.0,0.0,0.0,0.0,0.0,0.0,0.0,0.0,0.0,0.0,0.0,0.0,0.0,0.0,0.0,0.0,0.0,0.0,0.0,0.0,0.0,0.0,0.0,0.0,0.0,0.0,0.0,0.0,-2.9767,-3.2555,-3.4896,-3.6113,-3.6251,-3.6016,-3.5397,-3.3233,-3.1082,0.0,0.0,0.0,0.0,0.0,0.0,0.0,0.0,0.0,0.0,0.0,0.0,0.0,0.0,0.0,0.0,0.0,0.0,0.0,0.0,0.0,0.0,0.0,0.0,0.0,0.0,0.0,0.0,0.0,0.0,0.0,0.0,0.0,0.0,0.0,0.0,0.0,0.0,0.0,0.0,0.0,0.0,0.0,0.0,0.0,0.0,0.0,0.0,0.0,0.0,0.0,0.0,0.0,0.0,0.0,0.0,0.0,0.0,0.0,0.0,0.0,0.0,0.0,0.0,0.0,0.0,0.0,0.0,0.0,0.0,0.0,0.0,0.0,0.0,0.0,0.0,0.0,0.0,0.0,0.0,0.0,0.0,0.0,0.0,0.0,0.0,0.0,0.0,0.0,0.0,0.0,0.0,0.0,0.0,0.0,0.0,0.0,0.0,0.0,0.0,0.0,0.0,0.0,-3.0881,-3.4226,-3.7009,-3.8311,-3.8457,-3.8179,-3.7535,-3.5067,-3.2542,-3.0203,0.0,0.0,0.0,0.0,0.0,0.0,0.0,0.0,0.0,0.0,0.0,0.0,0.0,0.0,0.0,0.0,0.0,0.0,0.0,0.0,0.0,0.0,0.0,0.0,0.0,0.0,0.0,0.0,0.0,0.0,0.0,0.0,0.0,0.0,0.0,0.0,0.0,0.0,0.0,0.0,0.0,0.0,0.0,0.0,0.0,0.0,0.0,0.0,0.0,0.0,0.0,0.0,0.0,0.0,0.0,0.0,0.0,0.0,0.0,0.0,0.0,0.0,0.0,0.0,0.0,0.0,0.0,0.0,0.0,0.0,0.0,0.0,0.0,0.0,0.0,0.0,0.0,0.0,0.0,0.0,0.0,0.0,0.0,0.0,0.0,0.0,0.0,0.0,0.0,0.0,0.0,0.0,0.0,0.0,0.0,0.0,0.0,0.0,0.0,0.0,0.0,0.0,-3.1331,-3.4934,-3.7928,-3.9239,-3.9388,-3.9035,-3.8078,-3.5965,-3.3505,-3.0688,0.0,0.0,0.0,0.0,0.0,0.0,0.0,0.0,0.0,0.0,0.0,0.0,0.0,0.0,0.0,0.0,0.0,0.0,0.0,0.0,0.0,0.0,0.0,0.0,0.0,0.0,0.0,0.0,0.0,0.0,0.0,0.0,0.0,0.0,0.0,0.0,0.0,0.0,0.0,0.0,0.0,0.0,0.0,0.0,0.0,0.0,0.0,0.0,0.0,0.0,0.0,0.0,0.0,0.0,0.0,0.0,0.0,0.0,0.0,0.0,0.0,0.0,0.0,0.0,0.0,0.0,0.0,0.0,0.0,0.0,0.0,0.0,0.0,0.0,0.0,0.0,0.0,0.0,0.0,0.0,0.0,0.0,0.0,0.0,0.0,0.0,0.0,0.0,0.0,0.0,0.0,0.0,0.0,0.0,0.0,0.0,0.0,0.0,0.0,0.0,0.0,0.0,-3.1421,-3.4978,-3.7928,-3.9239,-3.9388,-3.8871,-3.7524,-3.6297,-3.4173,-3.0806,0.0,0.0,0.0,0.0,0.0,0.0,0.0,0.0,0.0,0.0,0.0,0.0,0.0,0.0,0.0,0.0,0.0,0.0,0.0,0.0,0.0,0.0,0.0,0.0,0.0,0.0,0.0,0.0,0.0,0.0,0.0,0.0,0.0,0.0,0.0,0.0,0.0,0.0,0.0,0.0,0.0,0.0,0.0,0.0,0.0,0.0,0.0,0.0,0.0,0.0,0.0,0.0,0.0,0.0,0.0,0.0,0.0,0.0,0.0,0.0,-1.9243,0.0,0.0,0.0,0.0,0.0,0.0,0.0,0.0,0.0,0.0,0.0,0.0,0.0,0.0,0.0,0.0,0.0,0.0,0.0,0.0,0.0,0.0,0.0,0.0,0.0,0.0,0.0,0.0,0.0,0.0,0.0,0.0,0.0,0.0,0.0,0.0,0.0,0.0,0.0,0.0,0.0,-3.2034,-3.5295,-3.7928,-3.9239,-3.9388,-3.8871,-3.7524,-3.6716,-3.4861,-3.1496,-2.8966,0.0,0.0,0.0,0.0,0.0,0.0,0.0,0.0,0.0,0.0,0.0,0.0,0.0,0.0,0.0,0.0,0.0,0.0,0.0,0.0,0.0,0.0,0.0,0.0,0.0,0.0,0.0,0.0,0.0,0.0,0.0,0.0,0.0,0.0,0.0,0.0,0.0,0.0,0.0,0.0,0.0,0.0,0.0,0.0,0.0,0.0,0.0,0.0,0.0,0.0,0.0,0.0,0.0,0.0,0.0,0.0,0.0,0.0,0.0,0.0,-2.0762,0.0,0.0,0.0,0.0,0.0,0.0,0.0,0.0,0.0,0.0,0.0,0.0,0.0,0.0,0.0,0.0,0.0,0.0,0.0,0.0,0.0,0.0,0.0,0.0,0.0,0.0,0.0,0.0,0.0,0.0,0.0,0.0,0.0,0.0,0.0,0.0,0.0,0.0,0.0,0.0,-3.2258,-3.5385,-3.7928,-3.9239,-3.9388,-3.8871,-3.7524,-3.6851,-3.534,-3.2647,-3.0283,0.0,0.0,0.0,0.0,0.0,0.0,0.0,0.0,0.0,0.0,0.0,0.0,0.0,0.0,0.0,0.0,0.0,0.0,0.0,0.0,0.0,0.0,0.0,0.0,0.0,0.0,0.0,0.0,0.0,0.0,0.0,0.0,0.0,0.0,0.0,0.0,0.0,0.0,0.0,0.0,0.0,0.0,0.0,0.0,0.0,0.0,0.0,0.0,0.0,0.0,0.0,0.0,0.0,-1.8807,-2.0253,-2.1238,-2.2969,-2.4448,-2.5575,-2.3691,-2.3066,-2.3237,-2.2185,0.0,0.0,0.0,0.0,0.0,0.0,0.0,0.0,0.0,0.0,0.0,0.0,0.0,0.0,0.0,0.0,0.0,0.0,0.0,0.0,0.0,0.0,0.0,0.0,-2.9922,-3.0166,-2.6661,0.0,0.0,0.0,0.0,0.0,0.0,0.0,0.0,0.0,0.0,0.0,-3.2587,-3.5519,-3.7928,-3.9239,-3.932,-3.8736,-3.7509,-3.6851,-3.5684,-3.3784,-3.1898,-3.0013,0.0,0.0,0.0,0.0,0.0,0.0,0.0,0.0,0.0,0.0,0.0,0.0,0.0,0.0,0.0,0.0,0.0,0.0,0.0,0.0,0.0,0.0,0.0,0.0,0.0,0.0,0.0,0.0,0.0,0.0,0.0,0.0,-1.1893,-1.2482,0.0,0.0,0.0,0.0,0.0,0.0,0.0,0.0,0.0,0.0,0.0,0.0,0.0,-1.7052,-1.7288,-1.811,-1.8531,-1.8577,-2.1703,-2.3228,-2.3447,-2.6298,-2.7707,-2.7832,-2.7187,0.0,-2.4238,-2.4072,0.0,0.0,0.0,0.0,0.0,0.0,0.0,0.0,0.0,0.0,0.0,0.0,0.0,0.0,0.0,0.0,0.0,0.0,0.0,0.0,0.0,0.0,-3.1549,-3.1072,-3.1518,-3.1609,0.0,-2.8939,-2.8017,-2.7602,-2.7158,0.0,0.0,0.0,0.0,0.0,0.0,0.0,-3.3919,-3.6088,-3.7928,-3.9239,-3.8886,-3.8212,-3.7464,-3.6851,-3.5911,-3.4474,-3.3021,-3.1614,-3.0178,-2.8334,0.0,0.0,0.0,0.0,0.0,0.0,0.0,0.0,0.0,0.0,0.0,0.0,0.0,0.0,0.0,0.0,0.0,0.0,0.0,0.0,0.0,0.0,0.0,0.0,0.0,0.0,0.0,0.0,0.0,-1.2118,-1.2966,-1.322,-1.3427,-1.342,0.0,0.0,0.0,0.0,0.0,0.0,0.0,0.0,0.0,-1.701,-1.7769,-1.8364,-1.8824,-1.9219,-1.9952,-2.1038,-2.3336,-2.4889,-2.5861,-2.8039,-2.9014,-2.9004,-2.8809,-2.792,-2.6523,-2.5508,-2.457,-2.3613,0.0,0.0,0.0,0.0,-2.3199,-2.4143,-2.5727,-2.7007,-2.7932,-2.7878,0.0,0.0,0.0,0.0,0.0,0.0,0.0,0.0,0.0,0.0,-3.224,-3.2315,-3.2516,-3.2566,-3.2102,-3.1262,-3.0184,0.0,-2.8862,-2.8675,-2.7483,0.0,0.0,0.0,0.0,-3.2886,-3.4801,-3.6761,-3.8332,-3.932,-3.8796,-3.8123,-3.7464,-3.6851,-3.6073,-3.5115,-3.4158,-3.3021,-3.1689,-3.0073,-2.8293,0.0,0.0,0.0,0.0,0.0,0.0,0.0,0.0,0.0,0.0,0.0,0.0,0.0,0.0,0.0,0.0,0.0,0.0,0.0,0.0,0.0,0.0,0.0,0.0,0.0,0.0,0.0,0.0,-1.3053,-1.38,-1.4019,-1.4499,-1.4612,0.0,0.0,0.0,0.0,0.0,0.0,-1.655,-1.7388,-1.8036,-1.8428,-1.9138,-1.9693,-2.0134,-2.0214,-2.1192,-2.3029,-2.4463,-2.6005,-2.7658,-2.9193,-2.9912,-2.9902,-2.9785,-2.9375,-2.8652,-2.7051,-2.6006,-2.539,-2.4707,-2.4199,-2.3877,-2.4297,-2.5083,-2.6158,-2.8033,-2.9533,-3.0615,-3.0273,-3.0105,-2.9716,-2.8221,0.0,0.0,0.0,0.0,-3.0633,-3.1574,-3.2127,-3.2541,-3.2968,-3.3124,-3.3124,-3.3124,-3.2971,-3.2393,0.0,-3.1023,-3.0862,-2.9415,0.0,0.0,0.0,0.0,-3.4487,-3.5818,-3.7389,-3.8661,-3.9313,-3.8661,-3.7943,-3.7449,-3.6686,-3.6028,-3.5534,-3.4861,-3.3994,-3.2811,-3.148,-2.9834,-2.7899,0.0,0.0,0.0,0.0,0.0,0.0,0.0,0.0,0.0,0.0,0.0,0.0,0.0,0.0,0.0,0.0,0.0,0.0,0.0,0.0,0.0,0.0,0.0,0.0,0.0,0.0,0.0,0.0,0.0,-1.5211,-1.5578,0.0,0.0,0.0,0.0,-1.6533,-1.7408,-1.8109,-1.8738,-1.9339,-1.9679,-1.9713,-2.0548,-2.1015,-2.1042,-2.1323,-2.2347,-2.3977,-2.5304,-2.6781,-2.8423,-3.0081,-3.082,-3.0801,-3.0361,-3.0137,-3.0,-2.8701,-2.7441,-2.6318,-2.6279,-2.5986,-2.5615,-2.6094,-2.7087,-2.8455,-3.0179,-3.1643,-3.2843,-3.3469,-3.2252,-3.0645,-3.1022,-3.0444,0.0,0.0,-3.1637,-3.2227,-3.283,-3.3048,-3.3043,-3.3111,-3.3124,-3.3124,-3.3124,-3.3885,-3.4658,0.0,-3.4056,-3.3648,-3.486,0.0,-3.4171,-3.4219,-3.4876,-3.5863,-3.715,-3.7943,-3.8661,-3.9313,-3.8242,-3.7449,-3.7404,-3.6267,-3.5549,-3.5504,-3.4861,-3.4158,-3.3469,-3.2153,-3.0539,-2.8592,-2.6572,0.0,0.0,0.0,0.0,0.0,0.0,0.0,0.0,0.0,0.0,0.0,0.0,0.0,0.0,0.0,0.0,0.0,0.0,0.0,0.0,0.0,0.0,0.0,0.0,0.0,0.0,0.0,0.0,-1.6489,-1.6954,0.0,-1.7094,-1.7361,-1.7709,-1.8103,-1.8778,-1.9265,-1.9472,-2.0221,-2.0641,-2.0641,-2.1316,-2.224,-2.3371,-2.3486,-2.4927,-2.769,-2.8174,-2.9245,-3.087,-3.1169,-3.1299,-3.1269,-3.083,-3.0478,-3.0156,-2.9707,-2.8769,-2.7607,-2.7607,-2.7178,-2.6582,-2.6728,-2.814,-3.0075,-3.0685,-3.2277,-3.4119,-3.4352,-3.3658,-3.2767,-3.2955,-3.2491,-3.1976,-3.2365,-3.2616,-3.2817,-3.3018,-3.3124,-3.3124,-3.3124,-3.3124,-3.3124,-3.3124,-3.3398,-3.3943,-3.4753,-3.4794,-3.4562,-3.4164,-3.4839,-3.5394,-3.5185,-3.6402,-3.7524,-3.7988,-3.8631,-3.9155,-3.9358,-3.8212,-3.7404,-3.7404,-3.5833,-3.4846,-3.4846,-3.4218,-3.3544,-3.2886,-3.1974,-3.0778,-2.9265,-2.7679,-2.6004,0.0,0.0,0.0,0.0,0.0,0.0,0.0,0.0,0.0,0.0,0.0,0.0,0.0,0.0,0.0,0.0,0.0,0.0,0.0,0.0,0.0,0.0,0.0,0.0,0.0,-1.5618,-1.6673,-1.7368,-1.7976,-1.8282,-1.8323,-1.8691,-1.9052,-1.9339,-1.9913,-2.0287,-2.0388,-2.1036,-2.1403,-2.1403,-2.1877,-2.297,-2.4767,-2.4767,-2.6488,-2.986,-2.9724,-3.0553,-3.2148,-3.1719,-3.1514,-3.1494,-3.1074,-3.0713,-3.043,-3.043,-2.9844,-2.8926,-2.8779,-2.8281,-2.7708,-2.8157,-2.9642,-3.1514,-3.2445,-3.3737,-3.4956,-3.4956,-3.4625,-3.4148,-3.396,-3.3646,-3.3319,-3.3174,-3.3124,-3.3124,-3.3124,-3.3124,-3.3124,-3.3124,-3.3124,-3.3124,-3.3124,-3.3124,-3.3313,-3.4037,-3.4713,-3.5086,-3.4859,-3.5798,-3.6663,-3.6805,-3.7913,-3.8736,-3.8736,-3.914,-3.9388,-3.9388,-3.8212,-3.7404,-3.7404,-3.5609,-3.4503,-3.4503,-3.3649,-3.2961,-3.2527,-3.163,-3.0687,-2.9636,-2.8289,-2.6956,-2.5615,0.0,0.0,0.0,0.0,0.0,0.0,0.0,0.0,0.0,0.0,0.0,0.0,0.0,0.0,0.0,0.0,0.0,0.0,0.0,0.0,0.0,0.0,0.0,-1.5438,-1.6199,-1.7088,-1.7929,-1.8542,-1.8958,-1.8971,-1.9499,-1.996,-2.0193,-2.0808,-2.1263,-2.1614,-2.1844,-2.1997,-2.1997,-2.2345,-2.3349,-2.5112,-2.5244,-2.6922,-3.0203,-2.994,-3.0661,-3.2187,-3.1758,-3.1562,-3.1533,-3.1094,-3.0908,-3.0908,-3.0898,-3.0625,-3.0176,-2.9756,-2.9316,-2.9099,-3.0444,-3.1531,-3.2682,-3.5451,-3.6019,-3.552,-3.552,-3.5157,-3.465,-3.411,-3.3922,-3.3784,-3.3257,-3.3093,-3.3124,-3.3124,-3.3124,-3.3124,-3.3124,-3.3124,-3.3124,-3.3124,-3.3124,-3.3124,-3.3124,-3.3953,-3.5305,-3.7396,-3.7791,-3.8196,-3.9228,-3.9388,0.0,-3.9388,-3.9388,-3.9388,-3.9388,-3.8227,-3.7434,-3.7404,-3.5609,-3.4503,-3.4474,-3.3215,-3.2497,-3.2512,-3.124,-3.0238,-2.9651,-2.8334,-2.766,-2.766,0.0,0.0,0.0,0.0,0.0,0.0,0.0,0.0,0.0,0.0,0.0,0.0,0.0,0.0,0.0,0.0,0.0,0.0,0.0,0.0,0.0,-1.5671,-1.6346,-1.6346,-1.7301,-1.825,-1.8925,-1.9332,-1.9726,-2.0154,-2.0535,-2.0869,-2.1169,-2.1537,-2.1784,-2.1864,-2.2138,-2.2298,-2.2298,-2.3831,-2.4914,-2.5383,-2.7933,-2.9699,-3.0682,-3.1809,-3.2609,-3.3066,-3.2637,-3.2441,-3.2402,-3.167,-3.1348,-3.1318,-3.1016,-3.081,-3.0654,-3.0195,-2.9766,-2.9401,-2.9461,-3.0653,-3.2682,-3.5451,-3.6304,-3.6132,-3.6132,-3.5768,-3.5245,-3.5094,-3.4537,-3.3872,-3.3721,-3.3382,-3.3124,-3.3124,-3.3124,-3.3124,-3.3124,-3.3124,-3.3124,-3.3124,-3.3124,-3.3124,-3.3124,-3.3356,-3.4178,-3.629,-3.7942,-3.9068,-3.9337,-3.9388,0.0,-3.9388,-3.9388,-3.9388,-3.9388,-3.8646,-3.7928,-3.7449,-3.5609,-3.4294,-3.3799,-3.2527,-3.1989,-3.2497,-3.1675,-3.0913,-3.0268,-2.9472,-2.9052,0.0,0.0,0.0,0.0,0.0,0.0,0.0,0.0,0.0,0.0,0.0,0.0,0.0,0.0,0.0,0.0,0.0,0.0,0.0,0.0,0.0,0.0,-1.6794,-1.7542,-1.7782,-1.8417,-1.9072,-1.9659,-1.9993,-2.0401,-2.1052,-2.1196,-2.1416,-2.171,-2.2004,-2.2164,-2.2164,-2.2445,-2.2605,-2.2605,-2.3765,-2.5121,-2.6639,-2.8681,-3.0448,-3.1899,-3.2892,-3.3418,-3.3408,-3.2988,-3.2793,-3.2764,-3.209,-3.1689,-3.1504,-3.126,-3.1055,0.0,0.0,0.0,0.0,0.0,-3.1806,-3.3731,-3.5729,-3.6405,-3.6405,-3.6405,-3.6144,-3.5843,-3.5571,-3.4893,-3.4198,-3.396,-3.3508,-3.3124,-3.3124,-3.3124,-3.3124,-3.3124,-3.3124,-3.3124,-3.3124,-3.3124,-3.3124,-3.3124,-3.3784,0.0,-3.6,-3.7238,-3.8368,-3.925,-3.9388,-3.9388,-3.9388,-3.9388,-3.9388,-3.9388,-3.8796,-3.8227,-3.7853,-3.6028,0.0,0.0,0.0,-3.2378,-3.2512,-3.2123,0.0,0.0,0.0,0.0,0.0,0.0,0.0,0.0,-3.1106,-3.1031,0.0,0.0,0.0,0.0,0.0,0.0,0.0,0.0,0.0,0.0,0.0,0.0,0.0,0.0,0.0,0.0,-1.7876,-1.8791,-1.9379,-1.9492,-1.9706,-2.0221,-2.0514,-2.0971,-2.1561,-2.1648,-2.1789,-2.2011,-2.2305,-2.2472,-2.2472,0.0,0.0,0.0,0.0,-2.4926,-2.7842,-2.8501,-3.0272,-3.3092,-3.3292,-3.3418,-3.3408,-3.3037,-3.2861,-3.2842,-3.2422,-3.1992,-3.1592,-3.1533,-3.1269,-3.0889,-3.0889,-3.0721,-3.0645,-3.2509,-3.3942,-3.5175,-3.6166,0.0,0.0,-3.6405,-3.6405,-3.6317,-3.578,-3.5169,-3.4625,-3.4123,-3.3558,-3.3124,-3.3124,-3.3124,-3.3124,-3.3124,-3.3124,-3.3124,-3.3124,-3.3124,-3.3124,-3.3124,-3.4609,-3.5894,-3.6013,-3.633,-3.72,-3.9104,-3.9388,-3.9388,-3.9388,-3.9388,-3.9388,-3.9388,0.0,0.0,-3.8407,-3.6746,-3.5654,-3.5519,-3.4307,-3.335,-3.2766,-3.2811,-3.2811,-3.2736,-3.2736,-3.335,-3.4623,-3.4623,-3.4981,-3.5669,-3.3185,-3.2691,0.0,0.0,0.0,0.0,0.0,0.0,0.0,0.0,0.0,0.0,0.0,0.0,0.0,0.0,0.0,-1.827,-1.8891,-1.9399,-1.9987,-2.0274,-2.0468,-2.0575,-2.0641,-2.0971,-2.1561,-2.1829,-2.2024,-2.2311,-2.2605,-2.2779,-2.2779,-2.2832,-2.2928,-2.2928,-2.5651,-2.6781,-2.6046,-3.0254,-3.2036,-3.1304,0.0,0.0,-3.3418,-3.334,-3.3301,-3.3281,-3.2861,-3.2432,-3.2012,-3.167,-3.1269,-3.0889,-3.0889,-3.1324,-3.2131,-3.3626,-3.4578,-3.536,-3.66,-3.6782,-3.6405,-3.6405,-3.6405,-3.6392,-3.6279,-3.5516,0.0,-3.4587,-3.3847,-3.3124,-3.3124,-3.3124,-3.3124,-3.3124,-3.3124,-3.3124,-3.3124,-3.3124,-3.3124,-3.3124,-3.3428,-3.3982,-3.4856,-3.7112,-3.8929,-3.9337,-3.9388,-3.9388,-3.9388,-3.9388,-3.9388,-3.9388,-3.9269,-3.899,-3.8437,-3.7569,-3.6596,-3.5564,-3.4741,-3.4264,-3.4129,-3.4637,-3.4666,-3.4098,-3.4129,-3.4502,-3.531,-3.531,-3.5908,-3.7015,-3.5998,-3.5669,0.0,0.0,0.0,0.0,0.0,0.0,0.0,0.0,0.0,0.0,0.0,-1.5665,-1.6547,0.0,-1.811,-1.8998,-1.9512,-1.9953,-2.0394,-2.0581,-2.0675,-2.0675,-2.0808,-2.1122,-2.171,-2.1897,-2.2164,-2.2605,-2.2779,-2.2928,-2.2928,-2.2928,-2.3331,-2.4188,-2.5912,-2.7296,-2.8139,-3.078,-3.2091,-3.2091,-3.2956,-3.3418,-3.3418,-3.3418,-3.3418,-3.3408,-3.3203,-3.2871,-3.2432,-3.1787,-3.1269,-3.0889,-3.0889,-3.1684,-3.2969,-3.4843,-3.5549,-3.563,-3.6811,-3.687,-3.6405,-3.6405,-3.6405,-3.6405,-3.6405,-3.578,-3.5031,-3.4801,-3.4123,-3.342,-3.3156,-3.3124,-3.3124,-3.3124,-3.3124,-3.3124,-3.3124,-3.3124,-3.3124,-3.3124,-3.3513,-3.4079,-3.4622,-3.6436,-3.7965,-3.8509,-3.8583,-3.8782,-3.9337,-3.9388,-3.9388,-3.9388,-3.9388,-3.9239,-3.8931,-3.8287,-3.736,-3.6073,-3.5684,-3.534,-3.4996,-3.5639,-3.5833,-3.5522,-3.5789,-3.6118,-3.6462,-3.6462,-3.6956,-3.7883,-3.7584,-3.7434,0.0,0.0,0.0,0.0,0.0,0.0,0.0,-1.4584,-1.5147,-1.6052,-1.6856,-1.7552,-1.7795,-1.8692,-1.9455,-1.9537,-1.998,-2.0421,-2.0722,-2.0762,-2.0762,-2.0762,-2.0969,-2.1343,-2.1924,-2.1984,-2.2231,-2.2819,-2.2928,-2.2928,-2.2928,-2.3195,-2.406,-2.545,-2.6172,-2.7883,-3.0771,-3.1166,-3.2027,-3.3418,-3.3418,-3.3418,-3.3418,-3.3418,-3.3418,-3.3418,-3.334,-3.3066,-3.2607,-3.1836,-3.1269,-3.0947,-3.1218,-3.2207,-3.3746,-3.5692,-3.6339,-3.6329,-3.7084,-3.6958,-3.6405,-3.6405,-3.6405,-3.6405,-3.6405,-3.5981,-3.5382,-3.4831,-3.4324,-3.3771,-3.3262,-3.3124,-3.3124,-3.3124,-3.3124,-3.3124,-3.3124,-3.3124,-3.3124,-3.3124,-3.3797,-3.4387,-3.4387,-3.5238,-3.6344,-3.7625,-3.7791,-3.8196,-3.9265,-3.9388,-3.9388,-3.9388,-3.9388,-3.9388,-3.9388,-3.8796,-3.7943,-3.6926,-3.6731,-3.6432,-3.5893,-3.6387,-3.6671,-3.6671,-3.715,-3.7464,-3.7599,-3.7599,-3.7943,-3.8586,-3.8586,-3.8586,-1.3853,-1.3299,-1.3372,-1.4068,-1.4128,-1.4733,0.0,-1.7955,-1.8074,-1.8955,-2.0467,-2.1063,-1.909,-2.0168,-2.1061,-2.022,-2.0414,-2.0728,-2.1022,-2.1062,-2.1062,-2.1062,-2.1089,-2.1343,-2.1924,-2.1984,-2.2231,-2.2819,-2.2928,-2.2928,-2.2928,-2.4392,-2.5315,-2.551,-2.8541,-3.0375,-3.0771,-3.2355,-3.3228,-3.3418,-3.3418,-3.3418,-3.3418,-3.3418,-3.3418,-3.3398,-3.3027,-3.2627,-3.2207,-3.1719,-3.1269,-3.1005,-3.2369,-3.3744,-3.5068,-3.5342,-3.6437,-3.7792,-3.7878,-3.7236,-3.6405,-3.6405,-3.6405,-3.6405,-3.6405,-3.5981,-3.5382,-3.4831,-3.4324,-3.3771,-3.3262,-3.3124,-3.3124,-3.3124,-3.3124,-3.3124,-3.3124,-3.3124,-3.3124,-3.3124,-3.3197,-3.3283,-3.3283,-3.415,-3.5534,-3.751,-3.7791,-3.8196,-3.9265,-3.9388,-3.9388,-3.9388,-3.9388,-3.9388,-3.9388,-3.8796,-3.8332,-3.8182,-3.7629,-3.727,-3.7195,-3.727,-3.73,-3.73,-3.7375,-3.7689,-3.8287,-3.8287,-3.8631,-3.9305,-3.9305,-3.9305,-1.7196,-1.6758,-1.6514,-1.7139,-1.7625,-1.8318,-1.9654,-1.9941,-2.0285,-2.119,-2.1311,-2.1356,-2.1711,-2.2047,-2.209,-2.1603,-2.2008,-2.2075,-2.1215,-2.1109,-2.1049,-2.0882,-2.1002,-2.1343,-2.1924,-2.1984,-2.2231,-2.2819,-2.2928,-2.3331,-2.4392,-2.5113,-2.6432,-2.8541,-3.0051,-3.1304,-3.2292,-3.3029,-3.3418,-3.3418,-3.3418,-3.3418,-3.3418,-3.3418,-3.3418,-3.3408,-3.3232,-3.2783,-3.2158,-3.1973,-3.1494,-3.1054,-3.253,-3.4024,-3.5398,-3.6271,-3.7176,-3.8002,-3.8002,-3.7287,-3.6405,-3.6405,-3.6405,-3.6405,-3.6405,-3.6194,-3.5906,-3.5307,-3.4756,-3.4248,-3.3696,-3.3319,-3.3124,-3.3124,-3.3124,-3.3124,-3.3124,-3.3124,-3.3124,-3.3124,-3.3124,-3.3124,-3.3124,-3.3995,-3.517,-3.6657,-3.7381,-3.8196,-3.9265,-3.9388,-3.9388,-3.9388,-3.9388,-3.9388,-3.9388,-3.9155,-3.8811,-3.8407,-3.8138,-3.7808,-3.7419,-3.7778,-3.7973,-3.7973,-3.8377,-3.8706,-3.899,-3.899,-3.914,-3.9388,-3.9388,-3.9388,-1.9469,-1.9219,-1.9004,-1.9561,-2.03,-2.1034,-2.1482,-2.1761,-2.2113,-2.2933,-2.2592,-2.244,-2.3431,-2.3314,-2.3125,-2.3158,-2.3384,-2.3208,-2.1971,-2.1714,-2.143,-2.0871,-2.0909,-2.1223,-2.181,-2.1937,-2.2231,-2.2819,-2.2928,-2.3659,-2.5383,-2.5979,-2.7619,-3.0707,-3.1295,-3.21,-3.3364,-3.3418,-3.3418,-3.3418,-3.3418,-3.3418,-3.3418,-3.3418,-3.3418,-3.3418,-3.3418,-3.3008,-3.2334,-3.2278,-3.2018,-3.1764,-3.2742,-3.4236,-3.6054,-3.7091,-3.7816,-3.8216,-3.8065,-3.7374,-3.6619,-3.6455,-3.6405,-3.6405,-3.6405,-3.6405,-3.6292,-3.5658,-3.5107,-3.46,-3.4035,-3.3483,-3.3124,-3.3124,-3.3124,-3.3124,-3.3124,-3.3124,-3.3124,-3.3124,-3.3124,-3.3124,-3.3124,-3.3995,-3.5047,-3.6053,-3.7098,-3.8196,-3.9265,-3.9388,-3.9388,-3.9388,-3.9388,-3.9388,-3.9388,-3.9388,-3.92,-3.8706,-3.8676,-3.8452,-3.7973,-3.8422,-3.8676,-3.8676,-3.917,-3.9388,-3.9388,-3.9388,-3.9388,-3.9388,-3.9388,-3.9388,-1.9566,-1.9523,-1.9674,-2.0529,-2.0947,-2.1625,-2.326,-2.3606,-2.3682,-2.3994,-2.5185,-2.5618,-2.3611,-2.368,-2.422,-2.4729,-2.4149,-2.3574,-2.3512,-2.3236,-2.2541,-2.1245,-2.0855,-2.0922,-2.1574,-2.1817,-2.2231,-2.2819,-2.2928,-2.3659,-2.5383,-2.7172,-2.8952,-3.0707,-3.2428,-3.3355,-3.3418,-3.3418,-3.3418,-3.3418,-3.3418,-3.3418,-3.3418,-3.3418,-3.3418,-3.3418,-3.3418,-3.3174,-3.2744,-3.2334,-3.2754,-3.3571,-3.3245,-3.4891,-3.7465,-3.7465,-3.8059,-3.8768,-3.8203,-3.7638,-3.7073,-3.6581,-3.6405,-3.6405,-3.6405,-3.6405,-3.6292,-3.5658,-3.5107,-3.46,-3.4035,-3.3483,-3.3124,-3.3124,-3.3124,-3.3124,-3.3124,-3.3124,-3.3124,-3.3124,-3.3124,-3.3124,-3.3124,-3.3995,-3.5047,-3.6053,-3.7098,-3.8196,-3.9265,-3.9388,-3.9388,-3.9388,-3.9388,-3.9388,-3.9388,-3.9388,-3.9373,-3.9394,-3.9394,-3.9343,-3.9328,-3.9379,-3.9394,-3.9394,-3.9373,-3.9388,-3.9388,-3.9388,-3.9388,-3.9388,-3.9388,-3.9388,-2.1892,-2.2563,-2.2889,-2.3484,-2.394,-2.4333,-2.4884,-2.502,-2.5144,-2.5553,-2.5217,-2.5071,-2.5626,-2.555,-2.5538,-2.5874,-2.5425,-2.5077,-2.52,-2.4579,-2.3662,-2.2581,-2.2916,-2.2865,-2.1679,-2.1702,0.0,-2.2525,-2.369,-2.5226,-2.7164,-2.8943,-3.0716,-3.2492,-3.3092,-3.3418,-3.3418,-3.3418,-3.3418,-3.3418,-3.3418,-3.3418,-3.3418,-3.3418,-3.3418,-3.3418,-3.3418,-3.3184,-3.2764,-3.2344,-3.2813,-3.3754,-3.4309,-3.577,-3.7636,-3.8582,-3.8949,-3.8831,-3.8203,-3.7651,-3.7098,-3.6581,-3.6405,-3.6405,-3.6405,-3.6405,-3.6367,-3.6132,-3.5692,-3.5094,-3.4587,-3.4035,-3.3533,-3.3169,-3.3124,-3.3124,-3.3124,-3.3124,-3.3124,-3.3124,-3.3124,-3.3124,-3.3124,-3.3995,-3.5292,-3.6982,-3.8182,-3.898,-3.9337,-3.9388,-3.9388,-3.9388,-3.9388,-3.9388,-3.9388,-3.9388,-3.9388,-3.9388,-3.9388,-3.9388,-3.9388,-3.9388,-3.9388,-3.9388,-3.9388,-3.9388,-3.9388,-3.9388,-3.9388,-3.9388,-3.9388,-3.9388,-2.3489,-2.4209,-2.456,-2.5156,-2.5527,-2.5693,-2.5693,-2.5693,-2.5771,-2.6103,-2.5246,-2.4936,-2.6519,-2.5988,-2.5739,-2.7142,-2.6347,-2.5938,-2.6934,-2.608,-2.4918,-2.3781,-2.4116,-2.4008,-2.2784,-2.2655,-2.2907,-2.3447,-2.4612,-2.6413,-2.9,-3.0189,-3.1634,-3.3355,-3.3418,-3.3418,-3.3418,-3.3418,-3.3418,-3.3418,-3.3418,-3.3418,-3.3418,-3.3418,-3.3418,-3.3418,-3.3418,-3.3271,-3.2978,-3.2402,-3.3202,-3.4783,-3.5157,-3.6541,-3.8413,-3.9362,-3.9346,-3.8831,-3.8203,-3.7651,-3.7098,-3.6581,-3.6405,-3.6405,-3.6405,-3.6405,-3.6405,-3.6405,-3.5968,-3.537,-3.4818,-3.4311,-3.3759,-3.3206,-3.3124,-3.3124,-3.3124,-3.3124,-3.3124,-3.3124,-3.3124,-3.3124,-3.3124,-3.3995,-3.5264,-3.6982,-3.8144,-3.898,-3.9337,-3.9388,-3.9388,-3.9388,-3.9388,-3.9388,-3.9388,-3.9388,-3.9388,-3.9388,-3.9388,-3.9388,-3.9388,-3.9388,-3.9388,-3.9388,-3.9388,-3.9388,-3.9388,-3.9388,-3.9388,-3.9388,-3.9388,-3.9388,-2.4228,-2.4473,-2.4687,-2.5479,-2.5693,-2.5693,-2.5693,-2.5674,-2.5654,-2.5654,-2.5352,-2.5341,-2.6133,-2.5069,-2.5094,-2.8294,-2.6823,-2.6192,-2.8844,-2.7807,-2.6335,-2.5008,-2.4667,-2.4622,-2.4724,-2.4769,-2.5041,-2.5725,0.0,-2.7206,-3.0642,-3.09,-3.1698,-3.3355,-3.3418,-3.3418,-3.3418,-3.3418,-3.3418,-3.3418,-3.3418,-3.3418,-3.3418,-3.3418,-3.3418,-3.3418,-3.3418,-3.3418,-3.335,-3.2632,-3.401,-3.6541,-3.5736,-3.7156,-3.9697,-3.9697,-3.932,-3.8743,-3.8203,-3.7651,-3.7098,-3.6581,-3.6405,-3.6405,-3.6405,-3.6405,-3.6405,-3.6405,-3.5994,-3.5408,-3.4856,-3.4349,-3.3809,-3.3257,-3.3136,-3.3124,-3.3124,-3.3124,-3.3124,-3.3124,-3.3124,-3.3124,-3.3124,-3.3995,-3.5047,-3.6053,-3.7098,-3.8196,-3.9265,-3.9388,-3.9388,-3.9388,-3.9388,-3.9388,-3.9388,-3.9388,-3.9388,-3.9388,-3.9388,-3.9388,-3.9388,-3.9388,-3.9388,-3.9388,-3.9388,-3.9388,-3.9388,-3.9388,-3.9388,-3.9388,-3.9388,-3.9388,-2.4756,-2.5146,-2.5411,-2.5635,-2.5693,-2.5693,-2.5693,-2.5478,-2.5244,-2.5244,-2.4893,-2.4648,-2.4873,-2.5362,-2.6253,-2.775,-2.7702,-2.8197,-3.0562,-3.0215,-2.9425,-2.8511,-2.8804,-2.8571,-2.7052,-2.7149,-2.7892,0.0,-2.9262,-2.9623,-3.0753,-3.2027,-3.2956,-3.3364,-3.3418,-3.3418,-3.3418,-3.3418,-3.3418,-3.3418,-3.3418,-3.3418,-3.3418,-3.3418,-3.3418,-3.3418,-3.3418,-3.3418,-3.3413,-3.373,-3.4912,-3.6598,-3.6827,-3.8084,-3.9697,-3.9697,-3.9069,-3.8203,-3.8052,-3.7651,-3.7098,-3.6581,-3.6405,-3.6405,-3.6405,-3.6405,-3.6405,-3.6405,-3.6304,-3.6031,-3.5433,-3.4881,-3.4374,-3.3822,-3.337,-3.3124,-3.3124,-3.3124,-3.3124,-3.3124,-3.3124,-3.3124,-3.3124,-3.3995,-3.5047,-3.6053,-3.7098,-3.8196,-3.9265,-3.9388,-3.9388,-3.9388,-3.9388,-3.9388,-3.9388,-3.9388,-3.9388,-3.9388,-3.9388,-3.9388,-3.9388,-3.9388,-3.9388,-3.9388,-3.9388,-3.9388,-3.9388,-3.9388,-3.9388,-3.9388,-3.9388,-3.9388,-2.5244,-2.5684,-2.5977,-2.5732,-2.583,-2.5869,-2.5245,-2.5107,-2.4949,-2.4392,-2.4189,-2.4082,-2.3887,-2.4775,-2.5869,-2.6934,-2.7271,-2.8336,-3.113,-3.0913,-3.0419,-3.0203,-3.0564,-3.0359,-2.9172,-2.9215,-3.006,-3.1835,-3.1093,-3.1002,-3.1881,-3.2892,-3.3418,-3.3418,-3.3418,-3.3418,-3.3418,-3.3418,-3.3418,-3.3418,-3.3418,-3.3418,-3.3418,-3.3418,-3.3418,-3.3418,0.0,-3.3418,-3.3413,-3.3437,-3.4688,-3.6598,-3.6553,-3.7808,-3.9659,-3.9421,-3.8768,-3.7977,-3.7726,-3.7287,-3.682,-3.6505,-3.6405,-3.6405,-3.6405,-3.6405,-3.6405,-3.6405,-3.6405,-3.6279,-3.5646,-3.5094,-3.4575,-3.4035,-3.3483,-3.3124,-3.3124,-3.3124,-3.3124,-3.3124,-3.3124,-3.3124,-3.3124,-3.3995,-3.5047,-3.6053,-3.7098,-3.8196,-3.9265,-3.9388,-3.9388,-3.9388,-3.9388,-3.9388,-3.9388,-3.9388,-3.9388,-3.9388,-3.9388,-3.9388,-3.9388,-3.9388,-3.9388,-3.9388,-3.9388,-3.9388,-3.9388,-3.9388,-3.9388,-3.9388,-3.9388,-3.9388,-2.5703,-2.6055,-2.6221,-2.5908,-2.6064,-2.5986,-2.4775,-2.4707,-2.4617,-2.3443,-2.3359,-2.3437,-2.3071,-2.3715,-2.4785,-2.6162,-2.6567,-2.7796,-3.1023,-3.0973,-3.0665,-3.1121,-3.1166,-3.1166,-3.1166,-3.1166,-3.1762,-3.3292,-3.2027,-3.1826,-3.3292,-3.3418,-3.3418,-3.3418,-3.3418,-3.3418,-3.3418,-3.3418,-3.3418,-3.3418,-3.3418,-3.3418,-3.3418,-3.3418,-3.3418,-3.3418,-3.3418,0.0,-3.3281,-3.2726,-3.4087,-3.6451,-3.5813,-3.7263,-3.9634,-3.9082,-3.8504,-3.7927,-3.7374,-3.687,-3.6405,-3.6405,-3.6405,-3.6405,-3.6405,-3.6405,-3.6405,-3.6405,-3.6405,-3.6304,-3.578,-3.5144,-3.46,-3.4123,-3.3533,-3.3124,-3.3124,-3.3124,-3.3124,-3.3124,-3.3124,-3.3124,-3.3124,-3.3995,-3.5047,-3.6053,-3.7098,-3.8196,-3.9265,-3.9388,-3.9388,-3.9388,-3.9388,-3.9388,-3.9388,-3.9388,-3.9388,-3.9388,-3.9388,-3.9388,-3.9388,-3.9388,-3.9388,-3.9388,-3.9388,-3.9388,-3.9388,-3.9388,-3.9388,-3.9388,-3.9388,-3.9388,-2.6162,-2.6064,-2.5869,-2.6201,-2.6064,-2.5693,-2.5088,-2.4463,-2.3848,-2.3262,-2.2646,-2.2305,-2.2568,-2.332,-2.4443,-2.6113,-2.754,-2.9186,-3.121,-3.2002,-3.2493,-3.2907,-3.2956,-3.2956,-3.2956,-3.2956,-3.3092,0.0,-3.3092,-3.3092,-3.3355,-3.3418,-3.3418,-3.3418,-3.3418,-3.3418,-3.3418,-3.3418,-3.3418,-3.3418,-3.3418,-3.3418,-3.3418,-3.3418,-3.3418,-3.3418,-3.3418,0.0,-3.2985,-3.3688,-3.4795,-3.6084,-3.6828,-3.819,-3.9634,-3.9082,-3.8504,-3.7927,-3.7374,-3.687,-3.6405,-3.6405,-3.6405,-3.6405,-3.6405,-3.6405,-3.6405,-3.6405,-3.6405,-3.6392,-3.6292,-3.5479,-3.47,-3.46,-3.3809,-3.3124,-3.3124,-3.3124,-3.3124,-3.3124,-3.3124,-3.3124,-3.3124,-3.3995,-3.5047,-3.6053,-3.7098,-3.8196,-3.9265,-3.9388,-3.9388,-3.9388,-3.9388,-3.9388,-3.9388,-3.9388,-3.9388,-3.9388,-3.9388,-3.9388,-3.9388,-3.9388,-3.9388,-3.9388,-3.9388,-3.9388,-3.9388,-3.9388,-3.9388,-3.9388,-3.9388,-3.9388,-2.6269,-2.6396,-2.6396,-2.6396,-2.6396,-2.5986,-2.4414,-2.3916,-2.3418,-2.207,-2.1846,-2.1807,-2.1543,-2.2578,-2.3809,-2.4863,-2.6475,-2.8281,-3.0234,-3.125,-3.2129,-3.2998,-3.3291,-3.3418,-3.3418,-3.3418,-3.3418,-3.3418,-3.3418,-3.3418,-3.3418,-3.3418,-3.3418,-3.3418,-3.3418,-3.3418,-3.3418,-3.3418,-3.3418,-3.3418,-3.3418,-3.3418,-3.3418,-3.3418,-3.3418,-3.3418,-3.3418,0.0,-3.2816,-3.3145,-3.4296,-3.5904,-3.6248,-3.7701,-3.9597,-3.8743,-3.8253,-3.7889,-3.7048,-3.6631,-3.6405,-3.6405,-3.6405,-3.6405,-3.6405,-3.6405,-3.6405,-3.6405,-3.6405,-3.6342,-3.6006,-3.5328,-3.465,-3.4361,-3.3671,-3.3124,-3.3124,-3.3124,-3.3124,-3.3124,-3.3124,-3.3124,-3.3124,-3.3995,-3.5047,-3.6053,-3.7098,-3.8196,-3.9265,-3.9388,-3.9388,-3.9388,-3.9388,-3.9388,-3.9388,-3.9388,-3.9388,-3.9388,-3.9388,-3.9388,-3.9388,-3.9388,-3.9388,-3.9388,-3.9388,-3.9388,-3.9388,-3.9388,-3.9388,-3.9388,-3.9388,-3.9388,-2.6269,-2.6562,-2.6689,-2.6445,-2.6494,-2.6016,-2.3744,-2.3398,-2.2978,-2.1094,-2.1182,-2.1416,-2.086,-2.1867,-2.3008,-2.3799,-2.5156,-2.6914,-2.9293,-3.0332,-3.1367,-3.2646,-3.3164,-3.3418,-3.3418,-3.3418,0.0,-3.3418,-3.3418,-3.3418,-3.3418,-3.3418,-3.3418,-3.3418,-3.3418,-3.3418,-3.3418,-3.3418,-3.3418,-3.3418,-3.3418,-3.3418,-3.3418,-3.3418,-3.3418,-3.3418,-3.3418,0.0,0.0,-3.2305,-3.362,-3.5759,-3.5445,-3.7103,-3.9559,-3.8417,-3.8002,-3.7852,-3.6795,-3.6405,-3.6405,-3.6405,-3.6405,-3.6405,-3.6405,-3.6405,-3.6405,-3.6405,-3.6405,-3.6279,-3.5646,-3.5094,-3.455,-3.3884,-3.3395,-3.3124,-3.3124,-3.3124,-3.3124,-3.3124,-3.3124,-3.3124,-3.3124,-3.3797,-3.4774,-3.6013,-3.693,-3.7942,-3.9228,-3.9388,-3.9388,-3.9388,-3.9388,-3.9388,-3.9388,-3.9388,-3.9388,-3.9388,-3.9388,-3.9388,-3.9388,-3.9388,-3.9388,-3.9388,-3.9388,-3.9388,-3.9388,-3.9388,-3.9388,-3.9388,-3.9388,-3.9388,-2.6269,-2.6133,-2.5888,-2.6299,-2.581,-2.498,-2.3965,-2.3164,-2.2353,-2.1337,-2.0918,-2.083,-2.1073,-2.1268,-2.2019,-2.4033,-2.4824,-2.627,-2.9215,-3.0332,-3.1367,-3.2646,-3.3164,-3.3418,-3.3418,-3.3418,-3.3418,-3.3418,-3.3418,-3.3418,-3.3418,-3.3418,-3.3418,-3.3418,-3.3418,-3.3418,-3.3418,-3.3418,-3.3418,-3.3418,-3.3418,-3.3418,-3.3418,-3.3418,-3.3418,-3.3418,-3.3418,0.0,0.0,-3.2248,-3.3444,-3.5356,-3.5311,-3.7103,-3.9559,-3.8417,-3.8002,-3.7852,-3.6795,-3.6405,-3.6405,-3.6405,-3.6405,-3.6405,-3.6405,-3.6405,-3.6405,-3.6405,-3.6405,-3.6279,-3.5646,-3.5094,-3.4462,-3.3407,-3.3162,-3.3124,-3.3124,-3.3124,-3.3124,-3.3124,-3.3124,-3.3124,-3.3124,-3.3197,-3.3898,-3.5894,-3.6277,-3.7084,-3.9141,-3.9388,-3.9388,-3.9388,-3.9388,-3.9388,-3.9388,-3.9388,-3.9388,-3.9388,-3.9388,-3.9388,-3.9388,-3.9388,-3.9388,-3.9388,-3.9388,-3.9388,-3.9388,-3.9388,-3.9388,-3.9388,-3.9388,-3.9388,-2.6201,-2.626,-2.6172,-2.6348,-2.5928,-2.5107,-2.373,-2.2949,-2.2187,-2.1064,-2.0723,-2.0664,-2.0801,-2.1055,-2.1726,-2.3398,-2.4023,-2.5176,-2.7676,-2.8779,-2.9902,-3.1465,-3.2256,-3.2861,-3.3369,0.0,-3.3418,-3.3418,-3.3418,-3.3418,-3.3418,-3.3418,-3.3418,-3.3418,-3.3418,-3.3418,-3.3418,-3.3418,-3.3418,-3.3418,-3.3418,-3.3418,-3.3418,-3.3418,-3.3418,-3.3408,-3.3154,0.0,0.0,-3.2843,-3.4,-3.5409,-3.6271,-3.7861,-3.9559,-3.8417,-3.8002,-3.7852,-3.6795,-3.6405,-3.6405,-3.6405,-3.6405,-3.6405,-3.6405,-3.6405,-3.6405,-3.6405,-3.6405,-3.6204,-3.5278,-3.4399,-3.3621,-3.3181,-3.3124,-3.3124,-3.3124,-3.3124,-3.3124,-3.3124,-3.3124,-3.3124,-3.3124,-3.3641,-3.454,-3.5974,-3.6774,-3.7686,-3.9228,-3.9388,-3.9388,-3.9388,-3.9388,-3.9388,-3.9388,-3.9388,-3.9388,-3.9388,-3.9388,-3.9388,-3.9388,-3.9388,-3.9388,-3.9388,-3.9388,-3.9388,-3.9388,-3.9388,-3.9388,-3.9388,-3.9388,-3.9388,-2.5791,-2.6094,-2.6191,-2.6191,-2.5771,-2.4961,-2.3486,-2.2725,-2.1992,-2.085,-2.0605,-2.0605,-2.0605,-2.0937,-2.157,-2.2783,-2.3437,-2.4541,-2.6709,-2.7754,-2.8887,-3.0488,-3.1338,-3.2119,-3.2969,-3.3271,-3.3418,-3.3418,-3.3418,-3.3418,-3.3418,-3.3418,-3.3418,-3.3418,-3.3418,-3.3418,-3.3418,-3.3418,-3.3418,-3.3418,-3.3418,-3.3418,-3.3418,-3.3291,-3.3232,-3.3213,-3.2793,0.0,0.0,-3.3217,-3.4321,-3.5453,-3.6918,-3.8413,-3.9559,-3.8417,-3.8002,-3.7852,-3.6795,-3.6405,-3.6405,-3.6405,-3.6405,-3.6405,-3.6405,-3.6405,-3.6405,-3.6405,-3.6179,-3.5692,-3.4926,-3.3909,-3.3124,-3.3124,-3.3124,-3.3124,-3.3124,-3.3124,-3.3124,-3.3124,-3.3124,-3.3124,-3.3124,-3.3995,-3.5047,-3.6053,-3.7098,-3.8196,-3.9265,-3.9388,-3.9388,-3.9388,-3.9388,-3.9388,-3.9388,-3.9388,-3.9388,-3.9388,-3.9388,-3.9388,-3.9388,-3.9388,-3.9388,-3.9388,-3.9388,-3.9388,-3.9388,-3.9388,-3.9388,-3.9388,-3.9388,-3.9388,-2.4961,-2.541,-2.5693,-2.5693,-2.504,-2.4199,-2.3296,-2.249,-2.1641,-2.0791,-2.0605,-2.0605,-2.0605,-2.0937,-2.1483,-2.2373,-2.3232,-2.4541,-2.6709,-2.7754,-2.8769,-3.0049,-3.0625,-3.124,-3.216,-3.293,-3.3418,-3.3418,-3.3418,0.0,-3.3418,-3.3418,-3.3418,-3.3418,-3.3418,-3.3418,-3.3418,-3.3418,-3.3418,-3.3418,-3.3418,-3.3418,-3.3408,-3.2988,-3.2803,-3.2773,0.0,0.0,0.0,-3.3084,-3.4321,-3.5453,-3.6918,-3.8413,-3.9559,-3.8417,-3.8002,-3.7852,-3.6795,-3.6405,-3.6405,-3.6405,-3.6405,-3.6405,-3.6405,-3.6405,-3.6405,-3.6405,-3.5579,-3.4693,-3.468,-3.3909,-3.3124,-3.3124,-3.3124,-3.3124,-3.3124,-3.3124,-3.3124,-3.3124,-3.3124,-3.3124,-3.3124,-3.3995,-3.5047,-3.6053,-3.7098,-3.8196,-3.9265,-3.9388,-3.9388,-3.9388,-3.9388,-3.9388,-3.9388,-3.9388,-3.9388,-3.9388,-3.9388,-3.9388,-3.9388,-3.9388,-3.9388,-3.9388,-3.9388,-3.9388,-3.9388,-3.9388,-3.9388,-3.9388,-3.9388,-3.9388,-2.3775,-2.4082,-2.4336,-2.4053,-2.376,-2.3276,-2.2471,-2.208,-2.1631,-2.0791,-2.0605,-2.0605,-2.0605,-2.0937,-2.1668,-2.3154,-2.3857,-2.4873,-2.6748,-2.7754,-2.8769,-3.0049,-3.1631,-3.2725,0.0,0.0,-3.3418,-3.3418,-3.3418,-3.3418,-3.3418,-3.3418,-3.3418,-3.3418,-3.3418,-3.3418,-3.3418,-3.3418,-3.3418,-3.3418,-3.3418,-3.3271,-3.2988,-3.2861,-3.2637,0.0,0.0,0.0,0.0,-3.2812,-3.4097,-3.5453,-3.6918,-3.8413,-3.9559,-3.8417,-3.8002,-3.7852,-3.6795,-3.6405,-3.6405,-3.6405,-3.6405,-3.6405,-3.6405,-3.6405,-3.6405,-3.6405,-3.5843,-3.5157,-3.4781,-3.4186,-3.3545,-3.3212,-3.3124,-3.3124,-3.3124,-3.3124,-3.3124,-3.3124,-3.3124,-3.3124,-3.3124,-3.3995,-3.5047,-3.6053,-3.7098,-3.8196,-3.9265,-3.9388,-3.9388,-3.9388,-3.9388,-3.9388,-3.9388,-3.9388,-3.9388,-3.9388,-3.9388,-3.9388,-3.9388,-3.9388,-3.9388,-3.9388,-3.9388,-3.9388,-3.9388,-3.9388,-3.9388,-3.9388,-3.9388,-3.9388,-2.2822,-2.3223,-2.3477,-2.3213,-2.3027,-2.2682,-2.2041,-2.1758,-2.1435,-2.0752,-2.0605,-2.0654,-2.0791,-2.1182,-2.1885,-2.3115,-2.3935,-2.4912,-2.6328,-2.7412,-2.8584,-3.0019,-3.1826,0.0,0.0,-3.3232,-3.3418,-3.3418,-3.3418,-3.3418,-3.3418,-3.3418,-3.3418,-3.3418,-3.3418,-3.3418,-3.3418,-3.3418,-3.3418,-3.3418,-3.3262,-3.3047,-3.2783,-3.2461,-3.2168,0.0,0.0,0.0,0.0,-3.3203,-3.4459,-3.5508,-3.753,-3.8785,-3.927,-3.8354,-3.7877,-3.7563,-3.6719,-3.6405,-3.6405,-3.6405,-3.6405,-3.6405,-3.6405,-3.6405,-3.6405,-3.6405,-3.5968,-3.542,-3.5082,-3.4462,-3.3809,-3.347,-3.3275,-3.3124,-3.3124,-3.3124,-3.3124,-3.3124,-3.3124,-3.3124,-3.3124,-3.3995,-3.5047,-3.6053,-3.7098,-3.8196,-3.9265,-3.9388,-3.9388,-3.9388,-3.9388,-3.9388,-3.9388,-3.9388,-3.9388,-3.9388,-3.9388,-3.9388,-3.9388,-3.9388,-3.9388,-3.9388,-3.9388,-3.9388,-3.9388,-3.9388,-3.9388,-3.9388,-3.9388,-3.9388,0.0,-2.2613,-2.2955,-2.2916,-2.2643,-2.2314,-2.1894,-2.1504,0.0,-2.0693,-2.0605,-2.0752,-2.1151,-2.1611,-2.206,-2.2607,-2.3691,-2.4795,-2.5693,-2.7041,-2.856,-3.0137,-3.1475,0.0,-3.2256,-3.2969,-3.3418,-3.3418,-3.3389,0.0,-3.3379,-3.335,-3.333,-3.333,-3.333,-3.3359,-3.3418,-3.3389,-3.3379,-3.3369,-3.2949,-3.2734,-3.2676,-3.1875,-3.1504,0.0,0.0,0.0,0.0,-3.3968,-3.5233,-3.5563,-3.8388,-3.9269,-3.8844,-3.8178,-3.7626,-3.7098,-3.6606,-3.6405,-3.6405,-3.6405,-3.6405,-3.6405,-3.6405,-3.6405,-3.6405,-3.6405,-3.5994,-3.5545,-3.5508,-3.4705,-3.3947,-3.3909,-3.3483,-3.3124,-3.3124,-3.3124,-3.3124,-3.3124,-3.3124,-3.3124,-3.3124,-3.3995,-3.5047,-3.6053,-3.7098,-3.8196,-3.9265,-3.9388,-3.9388,-3.9388,-3.9388,-3.9388,-3.9388,-3.9388,-3.9388,-3.9388,-3.9388,-3.9388,-3.9388,-3.9388,-3.9388,-3.9388,-3.9388,-3.9388,-3.9388,-3.9388,-3.9388,-3.9388,-3.9388,-3.9388,-2.0469,0.0,-2.1561,-2.125,-2.1357,-2.1416,0.0,-2.1064,-2.1103,-2.0693,-2.0605,-2.084,-2.1592,-2.1816,-2.2451,-2.4235,-2.4717,-2.5449,-2.6992,-2.8896,-3.0527,-3.1572,-3.2549,-3.3125,-3.3125,-3.331,-3.3418,-3.3418,-3.3125,-3.2939,-3.2939,-3.2637,-3.2461,-3.2461,-3.2461,-3.2773,-3.3418,-3.3105,-3.2939,-3.2939,-3.2519,-3.2139,-3.1816,-3.1611,-3.1338,0.0,0.0,0.0,-3.1054,-3.2871,-3.4292,-3.5419,-3.6867,-3.8001,-3.8806,-3.7739,-3.7299,-3.7098,-3.6606,-3.6405,-3.6405,-3.6405,-3.6405,-3.6405,-3.6405,-3.6405,-3.6405,-3.6405,-3.6317,-3.6069,-3.5608,-3.4994,-3.4424,-3.3997,-3.3483,-3.3124,-3.3124,-3.3124,-3.3124,-3.3124,-3.3124,-3.3124,-3.3124,-3.3995,-3.5047,-3.6053,-3.7098,-3.8196,-3.9265,-3.9388,-3.9388,-3.9388,-3.9388,-3.9388,-3.9388,-3.9388,-3.9388,-3.9388,-3.9388,-3.9388,-3.9388,-3.9388,-3.9388,-3.9388,-3.9388,-3.9388,-3.9388,-3.9388,-3.9388,-3.9388,-3.9388,-3.9388,-1.9629,-2.042,-2.119,-2.1182,-2.1357,-2.1465,-2.1271,-2.1045,-2.0859,-2.0654,-2.0605,-2.0879,-2.1728,-2.2041,-2.2685,-2.4228,-2.498,-2.6045,-2.7969,-2.959,-3.0967,-3.2041,-3.2744,-3.3213,0.0,-3.3242,-3.3135,-3.3135,0.0,-3.251,-3.251,-3.2295,-3.2229,-3.2229,-3.2229,-3.2383,-3.2842,-3.2617,-3.251,-3.25,-3.208,-3.1748,-3.1514,-3.1318,-3.1103,0.0,0.0,0.0,-3.2025,-3.3173,-3.4548,-3.604,-3.6964,-3.7615,-3.8077,-3.7412,-3.7023,-3.6807,-3.6518,-3.6405,-3.6405,-3.6405,-3.6405,-3.6405,-3.6405,-3.6405,-3.6405,-3.6405,-3.6405,-3.6329,-3.5994,-3.5328,-3.465,-3.4349,-3.3658,-3.3124,-3.3124,-3.3124,-3.3124,-3.3124,-3.3124,-3.3124,-3.3124,-3.3995,-3.5047,-3.6053,-3.7098,-3.8196,-3.9265,-3.9388,-3.9388,-3.9388,-3.9388,-3.9388,-3.9388,-3.9388,-3.9388,-3.9388,-3.9388,-3.9388,-3.9388,-3.9388,-3.9388,-3.9388,-3.9388,-3.9388,-3.9388,-3.9388,-3.9388,-3.9388,-3.9388,-3.9388,-1.9346,-2.0342,-2.1327,-2.1543,-2.1787,-2.1953,-2.1816,-2.1201,-2.0703,-2.0703,-2.0703,-2.0997,-2.1904,-2.2373,-2.2949,-2.4014,-2.5283,-2.6727,-2.8652,-2.9717,-3.0742,-3.1934,-3.2441,0.0,-3.3193,-3.291,-3.2695,0.0,0.0,-3.207,-3.207,-3.2012,-3.1973,-3.1973,-3.1973,-3.1973,-3.1973,-3.2041,-3.207,-3.206,-3.1631,-3.1426,-3.1406,-3.1055,-3.0889,-3.0889,0.0,0.0,-3.3043,-3.3923,-3.5226,-3.6629,-3.7518,-3.76,-3.7174,-3.7098,-3.6807,-3.6405,-3.6405,-3.6405,-3.6405,-3.6405,-3.6405,-3.6405,-3.6405,-3.6405,-3.6405,-3.6405,-3.6405,-3.6392,-3.6304,-3.5491,-3.47,-3.4613,-3.3822,-3.3124,-3.3124,-3.3124,-3.3124,-3.3124,-3.3124,-3.3124,-3.3124,-3.4108,-3.521,-3.6093,-3.7252,-3.8383,-3.9265,-3.9388,-3.9388,-3.9388,-3.9388,-3.9388,-3.9388,-3.9388,-3.9388,-3.9388,-3.9388,-3.9388,-3.9388,-3.9388,-3.9388,-3.9388,-3.9388,-3.9388,-3.9388,-3.9388,-3.9388,-3.9388,-3.9388,-3.9388,-1.9619,-2.0781,-2.1533,-2.0478,-2.1328,-2.2227,-2.1504,-2.119,-2.1093,-2.1093,-2.1093,-2.1463,-2.2682,-2.2955,-2.3647,-2.5674,-2.706,-2.8135,-2.8818,-3.0,-3.0996,-3.1553,0.0,-3.2285,-3.2353,-3.2305,0.0,0.0,0.0,-3.1621,-3.1621,-3.1279,-3.1084,-3.1084,-3.1084,-3.1084,-3.1084,-3.1445,-3.1621,-3.1611,-3.1191,-3.0986,-3.0986,-3.0918,-3.0889,-3.0869,0.0,-3.1061,-3.2437,-3.3482,-3.471,-3.6042,-3.6961,-3.7262,-3.7123,-3.6707,-3.648,-3.6405,-3.6405,-3.6405,-3.6405,-3.6405,-3.6405,-3.6405,-3.6405,-3.6405,-3.6405,-3.6405,-3.6405,-3.6304,-3.5793,-3.5157,-3.4613,-3.4135,-3.3533,-3.3124,-3.3124,-3.3124,-3.3124,-3.3124,-3.3124,-3.3124,-3.3124,-3.4692,-3.6013,-3.6158,-3.789,-3.9228,-3.9388,-3.9388,-3.9388,-3.9388,-3.9388,-3.9388,-3.9388,-3.9388,-3.9388,-3.9388,-3.9388,-3.9388,-3.9388,-3.9388,-3.9388,-3.9388,-3.9388,-3.9388,-3.9388,-3.9388,-3.9388,-3.9388,-3.9388,-3.9388,-1.9349,-2.0758,-2.197,-2.1966,-2.2747,-2.3437,-2.3003,-2.2555,-2.2223,-2.2223,-2.2275,-2.2529,-2.334,-2.3682,-2.4541,-2.6728,-2.7764,-2.8603,-2.9482,-3.0127,-3.0771,0.0,0.0,-3.1904,-3.2209,-3.1953,0.0,0.0,0.0,0.0,-3.1182,-3.0996,-3.0889,-3.0889,-3.0889,-3.0889,-3.0889,-3.1084,-3.1182,-3.1172,-3.0986,-3.0889,-3.0889,-3.0889,-3.0752,-3.0508,0.0,-3.1314,-3.3084,-3.3304,-3.4604,-3.6579,-3.6694,-3.6782,-3.6757,-3.6505,-3.6405,-3.6405,-3.6405,-3.6405,-3.6405,-3.6405,-3.6405,-3.6405,-3.6405,-3.6405,-3.6405,-3.6405,-3.6405,-3.6355,-3.6056,-3.5366,-3.4663,-3.4399,-3.3696,-3.3124,-3.3124,-3.3124,-3.3124,-3.3124,-3.3124,-3.3124,-3.3124,-3.4374,-3.5588,-3.6132,-3.7534,-3.8745,-3.9337,-3.9388,-3.9388,-3.9388,-3.9388,-3.9388,-3.9388,-3.9388,-3.9388,-3.9388,-3.9388,-3.9388,-3.9388,-3.9388,-3.9388,-3.9388,-3.9388,-3.9388,-3.9388,-3.9388,-3.9388,-3.9388,-3.9388,-3.9388,-1.9628,-2.1083,-2.2569,-2.362,-2.4288,-2.4736,-2.5219,-2.4355,-2.3533,-2.3819,-2.3659,-2.3599,-2.3877,-2.4531,-2.5576,-2.7246,-2.8125,-2.8935,-2.9912,-3.0225,-3.0615,-3.1289,-3.1367,-3.1504,-3.1836,0.0,0.0,0.0,0.0,0.0,-3.0889,-3.0889,-3.0889,-3.0889,-3.0889,-3.0889,-3.0889,-3.0889,-3.0889,-3.0889,-3.0889,-3.083,-3.0732,-3.0732,-3.0478,-3.0039,-3.027,-3.1587,-3.3608,-3.3424,-3.4795,-3.6996,-3.6568,-3.6405,-3.6405,-3.6405,-3.6405,-3.6405,-3.6405,-3.6405,-3.6405,-3.6405,-3.6405,-3.6405,-3.6405,-3.6317,-3.6169,-3.6169,-3.6081,-3.5981,-3.5981,-3.5253,-3.45,-3.4374,-3.3696,-3.3124,-3.3124,-3.3124,-3.3124,-3.3124,-3.3124,-3.3124,-3.3124,-3.4178,-3.5319,-3.6079,-3.7343,-3.8472,-3.9301,-3.9388,-3.9388,-3.9388,-3.9388,-3.9388,-3.9388,-3.9388,-3.9388,-3.9388,-3.9388,-3.9388,-3.9388,-3.9388,-3.9388,-3.9388,-3.9388,-3.9388,-3.9388,-3.9388,-3.9388,-3.9388,-3.9388,-3.9388,-2.1258,-2.2459,-2.342,-2.4327,-2.4926,-2.5804,-2.7603,-2.6185,-2.4845,-2.5999,-2.5209,-2.4336,-2.4365,-2.5713,-2.6875,-2.7041,-2.8418,-2.9567,-2.96,0.0,-3.0859,-3.0928,-3.0937,-3.0947,0.0,0.0,0.0,0.0,0.0,0.0,-3.0889,-3.0889,-3.0889,-3.0889,-3.0889,-3.0889,-3.0889,-3.0889,-3.0889,-3.0889,-3.0889,-3.0664,-3.0244,-3.0244,-3.0019,-2.9702,-3.056,-3.1772,-3.3093,-3.3942,-3.5126,-3.6468,-3.643,-3.6405,-3.6405,-3.6405,-3.6405,-3.6405,-3.6405,-3.6405,-3.6405,-3.6405,-3.6405,-3.6405,-3.6405,-3.6006,-3.5558,-3.5558,-3.5194,-3.4839,-3.4839,-3.4399,-3.3834,-3.3319,-3.3174,-3.3124,-3.3124,-3.3124,-3.3124,-3.3124,-3.3124,-3.3124,-3.3124,-3.4761,-3.6132,-3.6198,-3.7965,-3.9301,-3.9388,-3.9388,-3.9388,-3.9388,-3.9388,-3.9388,-3.9388,-3.9388,-3.9388,-3.9388,-3.9388,-3.9388,-3.9388,-3.9388,-3.9388,-3.9388,-3.9388,-3.9388,-3.9388,-3.9388,-3.9388,-3.9388,-3.9388,-3.9388,-2.1571,-2.3176,-2.4776,-2.5983,-2.7222,-2.8186,-2.8443,-2.7363,-2.6654,-2.781,-2.6972,-2.5957,-2.5693,-2.6396,-2.7109,-2.7373,-2.9126,-3.0533,-3.0799,-3.2138,-3.3082,-3.3082,-3.3404,-3.3642,0.0,0.0,0.0,0.0,0.0,0.0,-3.2613,-3.1795,-3.137,-3.137,-3.0502,-3.0068,-3.0068,-3.0068,-3.0068,-3.0078,-3.0332,-3.0361,-3.0185,-2.9932,-2.957,-2.9205,-3.0463,-3.163,-3.265,-3.3904,-3.5174,-3.6405,-3.6405,-3.6405,-3.6405,-3.6405,-3.6405,-3.6405,-3.6405,-3.6405,-3.6405,-3.6405,-3.6405,-3.6342,-3.5956,-3.5658,-3.542,-3.5094,-3.4638,-3.4286,-3.4625,-3.4311,-3.3847,-3.3633,-3.3319,-3.3124,-3.3124,-3.3124,-3.3124,-3.3124,-3.3124,-3.3124,-3.3124,-3.429,-3.548,-3.6132,-3.7458,-3.8671,-3.9301,-3.9388,-3.9388,-3.9388,-3.9388,-3.9388,-3.9388,-3.9388,-3.9388,-3.9388,-3.9388,-3.9388,-3.9388,-3.9388,-3.9388,-3.9388,-3.9388,-3.9388,-3.9388,-3.9388,-3.9388,-3.9388,-3.9388,-3.9388,-2.2567,-2.4296,-2.6136,-2.7287,-2.8674,-2.9849,-3.0005,-2.9251,-2.8838,-3.0,-2.9024,-2.7871,-2.7332,-2.7392,-2.7742,-2.8243,-2.9805,-3.1222,-3.1955,-3.3244,-3.4131,-3.4131,-3.4497,0.0,0.0,0.0,0.0,0.0,0.0,0.0,0.0,-3.2737,-3.2212,-3.2212,-3.0949,-3.0208,-3.0208,-2.9839,-2.9626,-2.9626,-2.9726,-2.9795,-2.9785,-2.9492,-2.9131,-2.8819,-3.0642,-3.1734,-3.2431,-3.4264,-3.5571,-3.6405,-3.6405,-3.6405,-3.6405,-3.6405,-3.6405,-3.6405,-3.6405,-3.6405,-3.6405,-3.6405,-3.6292,-3.6031,-3.5621,-3.5257,-3.4906,-3.4562,-3.406,-3.3721,-3.411,-3.3922,-3.3633,-3.3633,-3.3357,-3.3124,-3.3124,-3.3124,-3.3124,-3.3124,-3.3124,-3.3205,-3.3571,-3.4499,-3.5507,-3.6545,-3.7615,-3.8583,-3.9301,-3.9388,-3.9388,-3.9388,-3.9388,-3.9388,-3.9388,-3.9388,-3.9388,-3.9388,-3.9388,-3.9388,-3.9388,-3.9388,-3.9388,-3.9388,-3.9388,-3.9388,-3.9388,-3.9388,-3.9388,-3.9388,-3.9388,-3.9388,-2.4569,-2.6025,-2.7419,-2.7971,-2.8976,-3.0394,-3.2579,-3.2008,-3.1374,-3.2648,-3.1459,-2.9972,-2.9155,-2.8943,-2.904,-2.9623,-3.0464,-3.1476,-3.2823,-3.338,-3.3629,-3.3629,-3.364,0.0,0.0,0.0,0.0,0.0,0.0,0.0,0.0,-3.3618,-3.3629,-3.3629,-3.2309,-3.1627,-3.1627,-3.0299,-2.9616,-2.9607,-2.9166,-2.8916,-2.8916,-2.8916,-2.8682,-2.8451,-3.1133,-3.228,-3.2532,-3.5246,-3.6405,-3.6405,-3.6405,-3.6405,-3.6392,-3.6392,-3.6392,-3.6392,-3.6392,-3.6392,-3.6392,-3.6392,-3.5981,-3.5495,-3.5483,-3.4718,-3.3897,-3.3884,-3.3495,-3.3124,-3.3124,-3.3124,-3.3124,-3.3124,-3.3124,-3.3124,-3.3124,-3.3124,-3.3124,-3.3124,-3.3124,-3.3434,-3.4538,-3.555,-3.6561,-3.7642,-3.87,-3.9388,-3.9388,-3.9388,-3.9388,-3.9388,-3.9388,-3.9388,-3.9388,-3.9388,-3.9388,-3.9388,-3.9388,-3.9388,-3.9388,-3.9388,-3.9388,-3.9388,-3.9388,-3.9388,-3.9388,-3.9388,-3.9388,-3.9388,-3.9388,-3.9388,-2.428,-2.5737,-2.7419,-2.7971,-3.0118,-3.2277,-3.2973,-3.2345,-3.1795,-3.2371,-3.1818,-3.1173,-3.0926,-3.0861,-3.0905,-3.1097,-3.2402,-3.3546,-3.3945,-3.5238,-3.6134,-3.6134,-3.6462,0.0,0.0,0.0,0.0,0.0,0.0,0.0,0.0,-3.4665,-3.4167,-3.4167,-3.283,-3.2101,-3.2101,-3.1698,-3.149,-3.149,-3.135,-3.0422,-2.8906,-2.8613,-2.8408,-2.8451,-3.1133,-3.228,-3.2532,-3.5246,-3.6132,-3.5793,-3.5793,-3.5554,-3.5203,-3.5203,-3.5203,-3.5203,-3.5203,-3.5203,-3.5203,-3.5203,-3.5102,-3.4856,-3.4512,-3.4161,-3.3822,-3.3432,-3.3206,-3.3124,-3.3124,-3.3124,-3.3124,-3.3124,-3.3124,-3.3124,-3.3124,-3.3124,-3.3124,-3.3124,-3.3124,-3.3434,-3.4538,-3.552,-3.656,-3.7648,-3.87,-3.9388,-3.9388,-3.9388,-3.9388,-3.9388,-3.9388,-3.9388,-3.9388,-3.9388,-3.9388,-3.9388,-3.9388,-3.9388,-3.9388,-3.9388,-3.9388,-3.9388,-3.9388,-3.9388,-3.9388,-3.9388,-3.9388,-3.9388,-3.9388,-3.9388,-2.5812,-2.7256,-2.8787,-2.9553,-3.1248,-3.2855,-3.3307,-3.3382,-3.3437,-3.3857,-3.3535,-3.3108,-3.282,-3.2595,0.0,-3.2722,-3.3672,-3.4581,-3.5126,-3.6143,-3.6908,-3.6908,0.0,0.0,0.0,0.0,0.0,0.0,0.0,0.0,0.0,-3.5619,-3.5174,-3.5174,-3.3859,-3.3155,-3.3155,-3.2593,-3.228,-3.228,-3.228,-3.1472,-2.9888,-2.9343,-2.9102,-2.924,-3.1677,-3.3091,-3.3677,-3.5147,-3.5516,-3.5169,-3.5169,-3.4969,-3.468,-3.468,-3.468,-3.468,-3.468,-3.468,-3.468,-3.468,-3.4575,-3.4336,-3.3997,-3.3746,-3.3508,-3.3212,-3.3124,-3.3124,-3.3124,-3.3124,-3.3124,-3.3124,-3.3124,-3.3124,-3.3124,-3.3124,-3.3124,-3.3124,-3.3124,-3.3571,-3.5029,-3.5801,-3.6707,-3.8188,-3.8981,-3.9388,-3.9388,-3.9388,-3.9388,-3.9388,-3.9388,-3.9388,-3.9388,-3.9388,-3.9388,-3.9388,-3.9388,-3.9388,-3.9388,-3.9388,-3.9388,-3.9388,-3.9388,-3.9388,-3.9388,-3.9388,-3.9388,-3.9388,-3.9388,-3.9388,-2.8098,-2.9527,-3.0733,-3.1863,-3.2252,-3.2654,-3.3734,-3.4751,-3.5558,-3.6153,-3.5855,-3.532,-3.4619,-3.409,-3.3947,-3.4497,-3.4581,-3.503,-3.6216,-3.6405,-3.6405,-3.6405,0.0,0.0,0.0,0.0,0.0,0.0,0.0,0.0,0.0,-3.6405,-3.6405,-3.6405,-3.5174,-3.4533,-3.4581,-3.3212,-3.2519,-3.2564,-3.2519,-3.2221,-3.1596,-3.0801,-3.043,-3.0623,-3.2561,-3.4193,-3.5382,-3.4881,-3.4688,-3.465,-3.465,-3.4613,-3.4575,-3.4575,-3.4575,-3.4575,-3.4575,-3.4575,-3.4575,-3.4575,-3.4236,-3.3822,-3.3822,-3.347,-3.3124,-3.3124,-3.3124,-3.3124,-3.3124,-3.3124,-3.3124,-3.3124,-3.3124,-3.3124,-3.3124,-3.3124,-3.3124,-3.3124,-3.3192,-3.387,-3.5867,-3.6284,-3.7019,-3.9101,-3.9388,-3.9388,-3.9388,-3.9388,-3.9388,-3.9388,-3.9388,-3.9388,-3.9388,-3.9388,-3.9388,-3.9388,-3.9388,-3.9388,-3.9388,-3.9388,-3.9388,-3.9388,-3.9388,-3.9388,-3.9388,-3.9388,-3.9388,-3.9388,-3.9388,-3.9388,-2.6776,-2.8122,-2.9654,-3.1185,-3.2554,-3.3709,-3.4399,-3.4726,-3.4926,-3.5052,-3.5282,-3.544,-3.5307,-3.5533,-3.5817,-3.5941,-3.5966,-3.6061,-3.6358,-3.6405,-3.6405,-3.6405,0.0,0.0,0.0,0.0,0.0,0.0,0.0,0.0,-3.638,-3.6405,-3.6405,-3.6405,-3.565,-3.5484,-3.5966,-3.477,-3.4409,0.0,-3.4397,-3.3558,-3.2394,-3.1634,-3.1596,-3.22,-3.2665,-3.3635,-3.4843,-3.4731,-3.4462,-3.4073,-3.4073,-3.3809,-3.3432,-3.3432,-3.3432,-3.3432,-3.3432,-3.3432,-3.3432,-3.3432,-3.3357,-3.3257,-3.3257,-3.3212,-3.3124,-3.3124,-3.3124,-3.3124,-3.3124,-3.3124,-3.3124,-3.3124,-3.3124,-3.3124,-3.3124,-3.3124,-3.3124,-3.3124,-3.3789,-3.477,-3.6006,-3.6917,-3.7899,-3.9196,-3.9388,-3.9388,-3.9388,-3.9388,-3.9388,-3.9388,-3.9388,-3.9388,-3.9388,-3.9388,-3.9388,-3.9388,-3.9388,-3.9388,-3.9388,-3.9388,-3.9388,-3.9388,-3.9388,-3.9388,-3.9388,-3.9388,-3.9388,-3.9388,-3.9388,-3.9388,-2.6804,-2.8461,-3.0131,-3.1788,-3.2855,-3.3583,-3.3872,-3.3935,-3.3935,-3.3935,-3.4575,-3.5107,-3.5107,-3.5604,-3.5968,-3.5968,-3.6194,-3.6405,-3.6405,-3.6405,-3.6304,-3.5994,0.0,0.0,0.0,0.0,0.0,0.0,0.0,-3.5232,-3.5554,-3.5579,-3.5579,-3.5579,-3.5303,-3.529,-3.5579,-3.5014,-3.4818,-3.5107,-3.4818,-3.4202,-3.325,-3.2429,-3.2321,-3.2734,-3.3107,-3.3658,-3.4311,-3.4035,-3.3771,-3.3508,-3.3508,-3.3332,-3.3124,-3.3124,-3.3124,-3.3124,-3.3124,-3.3124,-3.3124,-3.3124,-3.3124,-3.3124,-3.3124,-3.3124,-3.3124,-3.3124,-3.3124,-3.3124,-3.3124,-3.3124,-3.3124,-3.3124,-3.3124,-3.3124,-3.3124,-3.3124,-3.3124,-3.3124,-3.3964,-3.5044,-3.6018,-3.7537,-3.8763,-3.9343,-3.9388,-3.9388,-3.9388,-3.9388,-3.9388,-3.9388,-3.9388,-3.9388,-3.9388,-3.9388,-3.9388,-3.9388,-3.9388,-3.9388,-3.9388,-3.9388,-3.9388,-3.9388,-3.9388,-3.9388,-3.9388,-3.9388,-3.9388,-3.9388,-3.9388,-3.9388,-2.6728,-2.89,-3.0871,-3.2516,-3.3006,-3.3124,-3.3124,-3.3124,-3.3124,-3.3124,-3.3872,-3.4575,-3.4575,-3.4994,-3.5357,-3.5357,-3.578,-3.6128,-3.6128,-3.6128,-3.5906,-3.5408,0.0,0.0,0.0,0.0,0.0,0.0,0.0,-3.4625,-3.4713,-3.468,-3.468,-3.468,-3.4625,-3.4625,-3.468,-3.4537,-3.4487,-3.4575,-3.4487,-3.4198,-3.3727,-3.3083,-3.2761,-3.2783,-3.3479,-3.3759,-3.3721,-3.3269,-3.3124,-3.3124,-3.3124,-3.3124,-3.3124,-3.3124,-3.3124,-3.3124,-3.3124,-3.3124,-3.3124,-3.3124,-3.3124,-3.3124,-3.3124,-3.3124,-3.3124,-3.3124,-3.3124,-3.3124,-3.3124,-3.3124,-3.3124,-3.3124,-3.3124,-3.3124,-3.3124,-3.3124,-3.3136,-3.3354,-3.4403,-3.5548,-3.6603,-3.8235,-3.9388,-3.9388,-3.9388,-3.9388,-3.9388,-3.9388,-3.9388,-3.9388,-3.9388,-3.9388,-3.9388,-3.9388,-3.9388,-3.9388,-3.9388,-3.9388,-3.9388,-3.9388,-3.9388,-3.9388,-3.9388,-3.9388,-3.9388,-3.9388,-3.9388,-3.9388,-3.9388,-3.9388,-2.418,-2.7168,-3.0294,-3.1926,-3.2704,-3.3124,-3.3124,-3.3124,-3.3124,-3.3124,-3.3571,-3.401,-3.401,-3.4462,-3.4826,-3.4826,-3.4889,-3.4939,-3.4939,-3.4939,-3.4914,-3.4839,0.0,0.0,0.0,0.0,0.0,0.0,-3.401,-3.4223,-3.47,-3.468,-3.468,-3.468,-3.4261,-3.4236,-3.4713,-3.3771,-3.3533,-3.401,-3.352,-3.3257,-3.3181,-3.3083,-3.3065,-3.3052,-3.3176,-3.3224,-3.3181,-3.3106,-3.3124,-3.3124,-3.3124,-3.3124,-3.3124,-3.3124,-3.3124,-3.3124,-3.3124,-3.3124,-3.3124,-3.3124,-3.3124,-3.3124,-3.3124,-3.3124,-3.3124,-3.3124,-3.3124,-3.3124,-3.3124,-3.3124,-3.3124,-3.3124,-3.3124,-3.3124,-3.3124,-3.3124,-3.3366,-3.4319,-3.6055,-3.7732,-3.8786,-3.9196,-3.9388,-3.9388,-3.9388,-3.9388,-3.9388,-3.9388,-3.9388,-3.9388,-3.9388,-3.9388,-3.9388,-3.9388,-3.9388,-3.9388,-3.9388,-3.9388,-3.9388,-3.9388,-3.9388,-3.9388,-3.9388,-3.9388,-3.9388,-3.9388,-3.9388,-3.9388,-3.9388,-3.9388,-2.5109,-2.7306,-2.939,-3.165,-3.2403,-3.2679,-3.3006,-3.3124,-3.3124,-3.3124,-3.3269,-3.3432,-3.3432,-3.3884,-3.4261,-3.4261,-3.4512,-3.468,-3.468,-3.468,-3.4613,-3.4299,0.0,0.0,0.0,0.0,0.0,0.0,-3.3432,-3.3545,-3.3784,-3.3796,-3.3796,-3.3796,-3.3558,-3.3558,-3.3796,-3.3319,-3.3206,-3.3432,-3.3194,-3.3124,-3.3124,-3.3124,-3.3124,-3.3124,-3.3124,-3.3124,-3.3124,-3.3124,-3.3124,-3.3124,-3.3124,-3.3124,-3.3124,-3.3124,-3.3124,-3.3124,-3.3124,-3.3124,-3.3124,-3.3124,-3.3124,-3.3124,-3.3124,-3.3124,-3.3124,-3.3124,-3.3124,-3.3124,-3.3124,-3.3124,-3.3124,-3.3124,-3.3124,-3.3124,-3.3124,-3.3124,-3.3568,-3.5233,-3.6773,-3.8155,-3.9211,-3.9388,-3.9388,-3.9388,-3.9388,-3.9388,-3.9388,-3.9388,-3.9388,-3.9388,-3.9388,-3.9388,-3.9388,-3.9388,-3.9388,-3.9388,-3.9388,-3.9388,-3.9388,-3.9388,-3.9388,-3.9388,-3.9388,-3.9388,-3.9388,-3.9388,-3.9388,-3.9388,-3.9388,-3.9388,-2.5121,-2.6628,-2.7896,-3.052,-3.1587,-3.2152,-3.2729,-3.2968,-3.3124,0.0,-3.3124,-3.3124,-3.3124,-3.342,-3.3696,-3.3696,-3.4035,-3.4299,-3.4299,-3.4299,-3.4148,0.0,0.0,0.0,0.0,0.0,0.0,0.0,-3.3124,-3.3124,-3.3124,-3.3124,-3.3124,-3.3124,-3.3124,-3.3124,-3.3124,-3.3124,-3.3124,-3.3124,-3.3124,-3.3124,-3.3124,-3.3124,-3.3124,-3.3124,-3.3124,-3.3124,-3.3124,-3.3124,-3.3124,-3.3124,-3.3124,-3.3124,-3.3124,-3.3124,-3.3124,-3.3124,-3.3124,-3.3124,-3.3124,-3.3124,-3.3124,-3.3124,-3.3124,-3.3124,-3.3124,-3.3124,-3.3124,-3.3124,-3.3124,-3.3124,-3.3124,-3.3124,-3.3124,-3.3124,-3.3124,-3.352,-3.4366,-3.59,-3.7309,-3.8477,-3.9262,-3.9388,-3.9388,-3.9388,-3.9388,-3.9388,-3.9388,-3.9388,-3.9388,-3.9388,-3.9388,-3.9388,-3.9388,-3.9388,-3.9388,-3.9388,-3.9388,-3.9388,-3.9388,-3.9388,-3.9388,-3.9388,-3.9388,-3.9388,-3.9388,-3.9388,-3.9388,-3.9388,-3.9388,-3.9388,-2.2083,-2.3753,-2.549,-2.7758,-2.9892,-3.1574,-3.2127,-3.2679,-3.3124,-3.3124,-3.3124,-3.3124,-3.3124,-3.3106,-3.3162,-3.3162,-3.3187,-3.3156,-3.3156,-3.3156,-3.3156,0.0,0.0,0.0,0.0,0.0,0.0,0.0,-3.3124,-3.3124,-3.3124,-3.3124,-3.3124,-3.3124,-3.3124,-3.3124,-3.3124,-3.3124,-3.3124,-3.3124,-3.3124,-3.3124,-3.3124,-3.3124,-3.3124,-3.3124,-3.3124,-3.3124,-3.3124,-3.3124,-3.3124,-3.3124,-3.3124,-3.3124,-3.3124,-3.3124,-3.3124,-3.3124,-3.3124,-3.3124,-3.3124,-3.3124,-3.3124,-3.3124,-3.3124,-3.3124,-3.3124,-3.3124,-3.3124,-3.3124,-3.3124,-3.3124,-3.3124,-3.3124,-3.3124,-3.3124,-3.3124,-3.4644,-3.6085,-3.6173,-3.7899,-3.9343,-3.9373,-3.9388,-3.9388,-3.9388,-3.9388,-3.9388,-3.9388,-3.9388,-3.9388,-3.9388,-3.9388,-3.9388,-3.9388,-3.9388,-3.9388,-3.9388,-3.9388,-3.9388,-3.9388,-3.9388,-3.9388,-3.9388,-3.9388,-3.9388,-3.9388,-3.9388,-3.9388,-3.9388,-3.9388,-3.9388,-2.1845,-2.2749,-2.3828,-2.6402,-2.8172,-2.9528,-3.0444,-3.1625,-3.2516,-3.2516,-3.2817,-3.3124,-3.3124,-3.3124,-3.3124,-3.3124,-3.3124,-3.3124,-3.3124,-3.3124,-3.3124,0.0,0.0,0.0,0.0,0.0,0.0,0.0,0.0,-3.3124,-3.3124,-3.3124,-3.3124,-3.3124,-3.3124,-3.3124,-3.3124,-3.3124,-3.3124,-3.3124,-3.3124,-3.3124,-3.3124,-3.3124,-3.3124,-3.3124,-3.3124,-3.3124,-3.3124,-3.3124,-3.3124,-3.3124,-3.3124,-3.3124,-3.3124,-3.3124,-3.3124,-3.3124,-3.3124,-3.3124,-3.3124,-3.3124,-3.3124,-3.3124,-3.3124,-3.3124,-3.3124,-3.3124,-3.3124,-3.3124,-3.3124,-3.3124,-3.3124,-3.3124,-3.3124,-3.3288,-3.3991,-3.5217,-3.6413,-3.7099,-3.8411,-3.9388,-3.9388,-3.9388,-3.9388,-3.9388,-3.9388,-3.9388,-3.9388,-3.9388,-3.9388,-3.9388,-3.9388,-3.9388,-3.9388,-3.9388,-3.9388,-3.9388,-3.9388,-3.9388,-3.9388,-3.9388,-3.9388,-3.9388,-3.9388,-3.9388,-3.9388,-3.9388,-3.9388,-3.9388,-3.9388,-3.9388,-2.1167,-2.1744,-2.2661,-2.5292,-2.659,-2.7708,-2.9402,-3.0633,-3.1499,-3.1863,-3.239,-3.2842,-3.3043,-3.3124,-3.3124,-3.3124,-3.3124,-3.3124,-3.3124,-3.3124,0.0,0.0,0.0,0.0,0.0,0.0,0.0,0.0,0.0,0.0,-3.3124,-3.3124,-3.3124,-3.3124,-3.3124,-3.3124,-3.3124,-3.3124,-3.3124,-3.3124,-3.3124,-3.3124,-3.3124,-3.3124,-3.3124,-3.3124,-3.3124,-3.3124,-3.3124,-3.3124,-3.3124,-3.3124,-3.3124,-3.3124,-3.3124,-3.3124,-3.3124,-3.3124,-3.3124,-3.3124,-3.3124,-3.3124,-3.3124,-3.3124,-3.3124,-3.3124,-3.3124,-3.3124,-3.3124,-3.3124,-3.3124,-3.3124,-3.3124,-3.3124,-3.3124,-3.3488,-3.4914,-3.5723,-3.6505,-3.758,-3.8667,-3.9388,-3.9388,-3.9388,-3.9388,-3.9388,-3.9388,-3.9388,-3.9388,-3.9388,-3.9388,-3.9388,-3.9388,-3.9388,-3.9388,-3.9388,-3.9388,-3.9388,-3.9388,-3.9388,-3.9388,-3.9388,-3.9388,-3.9388,-3.9388,-3.9388,-3.9388,-3.9388,-3.9388,-3.9388,-3.9388,-3.9388,0.0,0.0,0.0,-2.4155,-2.5096,-2.6226,-2.9001,0.0,-3.0005,-3.1097,-3.175,-3.2315,-3.296,-3.3074,-3.3074,-3.3074,-3.3099,-3.3124,-3.3124,-3.3124,0.0,0.0,0.0,0.0,0.0,0.0,0.0,0.0,-3.3124,-3.3124,-3.3124,-3.3124,-3.3124,-3.3124,-3.3124,-3.3124,-3.3124,-3.3124,-3.3124,-3.3124,-3.3124,-3.3124,-3.3124,-3.3124,-3.3124,-3.3124,-3.3124,-3.3124,-3.3124,-3.3124,-3.3124,-3.3124,-3.3124,-3.3124,-3.3124,-3.3124,-3.3124,-3.3124,-3.3124,-3.3124,-3.3124,-3.3124,-3.3124,-3.3124,-3.3124,-3.3124,-3.3124,-3.3124,-3.3124,-3.3124,-3.3124,-3.3124,-3.3124,-3.3124,-3.3124,-3.367,-3.5734,-3.6223,-3.6533,-3.7631,-3.8682,-3.9388,-3.9388,-3.9388,-3.9388,-3.9388,-3.9388,-3.9388,-3.9388,-3.9388,-3.9388,-3.9388,-3.9388,-3.9388,-3.9388,-3.9388,-3.9388,-3.9388,-3.9388,-3.9388,-3.9388,-3.9388,-3.9388,-3.9388,-3.9388,-3.9388,-3.9388,-3.9388,-3.9388,-3.9388,-3.9388,-3.9388,-1.9911,0.0,0.0,0.0,0.0,0.0,0.0,0.0,-2.7844,-2.9302,-3.0068,-3.0746,-3.1687,-3.1851,-3.1851,-3.1851,-3.2541,-3.3124,-3.3124,-3.3124,0.0,0.0,0.0,0.0,0.0,0.0,0.0,0.0,-3.3124,-3.3124,-3.3124,-3.3124,-3.3124,-3.3124,-3.3124,-3.3124,-3.3124,-3.3124,-3.3124,-3.3124,-3.3124,-3.3124,-3.3124,-3.3124,-3.3124,-3.3124,-3.3124,-3.3124,-3.3124,-3.3124,-3.3124,-3.3124,-3.3124,-3.3124,-3.3124,-3.3124,-3.3124,-3.3124,-3.3124,-3.3124,-3.3124,-3.3124,-3.3124,-3.3124,-3.3124,-3.3124,-3.3124,-3.3124,-3.3124,-3.3124,-3.3124,-3.3124,-3.3124,-3.3124,-3.3124,-3.367,-3.5734,-3.6207,-3.6761,-3.8597,-3.9196,-3.9388,-3.9388,-3.9388,-3.9388,-3.9388,-3.9388,-3.9388,-3.9388,-3.9388,-3.9388,-3.9388,-3.9388,-3.9388,-3.9388,-3.9388,-3.9388,-3.9388,-3.9388,-3.9388,-3.9388,-3.9388,-3.9388,-3.9388,-3.9388,-3.9388,-3.9388,-3.9388,-3.9388,-3.9388,-3.9388,-3.9388,-2.0665,-2.0779,-2.1207,-2.1911,0.0,0.0,-2.4255,-2.5071,-2.5963,0.0,-2.8699,-2.9428,-3.052,-3.0721,-3.0796,-3.1035,-3.1625,-3.2202,-3.2654,-3.2918,0.0,0.0,0.0,0.0,0.0,-3.3124,-3.3124,-3.3124,-3.3124,-3.3124,-3.3124,-3.3124,-3.3124,-3.3124,-3.3124,-3.3124,-3.3124,-3.3124,-3.2955,-3.2717,-3.2717,-3.2717,-3.2717,-3.2717,-3.2855,-3.3124,-3.3124,-3.3124,-3.3124,-3.3124,-3.3124,-3.3124,-3.3124,-3.3124,-3.3124,-3.3124,-3.3124,-3.3124,-3.3124,-3.3124,-3.3124,-3.3124,-3.3124,-3.3124,-3.3124,-3.3124,-3.3124,-3.3124,-3.3124,-3.3124,-3.3124,-3.3124,-3.3124,-3.3124,-3.3441,-3.422,-3.5854,-3.6565,-3.7367,-3.9053,-3.9388,-3.9388,-3.9388,-3.9388,-3.9388,-3.9388,-3.9388,-3.9388,-3.9388,-3.9388,-3.9388,-3.9388,-3.9388,-3.9388,-3.9388,-3.9388,-3.9388,-3.9388,-3.9388,-3.9388,-3.9388,-3.9388,-3.9388,-3.9388,-3.9388,-3.9239,-3.899,-3.9239,-3.9388,-3.9388,-3.9388,-3.9275,-2.1832,-2.1719,-2.2096,-2.3464,-2.2786,0.0,-2.4619,-2.4506,-2.4456,0.0,-2.7205,-2.7921,-2.9114,-2.9327,-2.9503,-3.0068,-3.0306,-3.0821,-3.1964,-3.2566,0.0,0.0,0.0,0.0,-3.3111,-3.3124,-3.3056,-3.3023,-3.2918,-3.2893,-3.2893,-3.2893,-3.2893,-3.2893,-3.2893,-3.2893,-3.2893,-3.2893,-3.2629,-3.2127,-3.2127,-3.2127,-3.2127,-3.2127,-3.2403,-3.2893,-3.2955,-3.298,-3.3023,-3.3056,-3.3124,-3.3124,-3.3124,-3.3124,-3.3124,-3.3124,-3.3124,-3.3124,-3.3124,-3.3124,-3.3124,-3.3124,-3.3124,-3.3124,-3.3124,-3.3124,-3.3124,-3.3124,-3.3124,-3.3124,-3.3124,-3.3124,-3.3111,-3.324,-3.3992,-3.5005,-3.6146,-3.7112,-3.8136,-3.9192,-3.9388,-3.9388,-3.9388,-3.9388,-3.9388,-3.9388,-3.9388,-3.9388,-3.9388,-3.9388,-3.9388,-3.9388,-3.9388,-3.9388,-3.9388,-3.9388,-3.9388,-3.9388,-3.9388,-3.9388,-3.9388,-3.9388,-3.9388,-3.9388,-3.9349,-3.8975,-3.8287,-3.8901,-3.92,-3.92,-3.92,-3.8871,-2.3058,-2.315,-2.3364,-2.2786,-2.3088,0.0,-2.2485,-2.2824,-2.3396,0.0,-2.3998,-2.455,-2.6126,-2.6414,-2.6603,-2.7216,-2.8386,-2.9792,-3.1336,-3.165,0.0,0.0,0.0,0.0,-3.3031,-3.3124,-3.288,-3.2416,-3.1976,-3.1712,-3.1712,-3.1712,-3.1712,-3.1712,-3.1712,-3.1712,-3.1712,-3.1712,-3.1662,-3.1549,-3.1549,-3.1549,-3.1549,-3.1549,-3.1612,-3.175,-3.219,-3.239,-3.2416,-3.288,-3.3124,-3.3124,-3.3124,-3.3124,-3.3124,-3.3124,-3.3124,-3.3124,-3.3124,-3.3124,-3.3124,-3.3124,-3.3124,-3.3124,-3.3124,-3.3124,-3.3124,-3.3124,-3.3124,-3.3124,-3.3124,-3.3124,-3.3313,-3.4191,-3.4546,-3.5207,-3.7081,-3.7663,-3.813,-3.9207,-3.9388,-3.9388,-3.9388,-3.9388,-3.9388,-3.9388,-3.9388,-3.9388,-3.9388,-3.9388,-3.9388,-3.9388,-3.9388,-3.9388,-3.9388,-3.9388,-3.9388,-3.9388,-3.9388,-3.9388,-3.9388,-3.9388,-3.9388,-3.9388,-3.8871,-3.8272,-3.7599,-3.7734,-3.7793,-3.7793,-3.7793,-3.7734,-2.4249,-2.4161,-2.4343,-2.4029,-2.3753,0.0,0.0,-2.2937,-2.2932,-2.3772,-2.3496,-2.3534,-2.4958,-2.4983,-2.4983,-2.5548,-2.6804,-2.7984,-2.885,-3.0357,-3.1486,0.0,0.0,0.0,-3.2202,-3.2227,-3.2114,-3.1825,-3.1549,-3.1386,-3.1386,-3.1386,-3.1386,-3.1386,-3.1386,-3.1386,-3.1386,-3.1386,-3.126,-3.0997,-3.0997,-3.0997,-3.0997,-3.0997,-3.1148,-3.1399,-3.1687,-3.18,-3.1825,-3.2114,-3.2403,-3.2667,-3.2968,-3.3124,-3.3124,-3.3124,-3.3124,-3.3124,-3.3124,-3.3124,-3.3124,-3.3124,-3.3124,-3.3124,-3.3124,-3.3124,-3.3124,-3.3124,-3.3124,-3.3124,-3.3124,-3.3124,-3.3356,-3.4428,-3.5083,-3.5873,-3.7453,-3.8217,-3.8774,-3.928,-3.9388,-3.9388,-3.9388,-3.9388,-3.9388,-3.9388,-3.9388,-3.9388,-3.9388,-3.9388,-3.9388,-3.9388,-3.9388,-3.9388,-3.9388,-3.9388,-3.9388,-3.9388,-3.9388,-3.9388,-3.9388,-3.9095,-3.8751,-3.8422,-3.7778,-3.7285,-3.6941,-3.6626,-3.6791,-3.7404,-3.7404,-3.724,-2.5435,-2.5209,-2.5322,-2.5423,-2.4682,-2.3973,0.0,0.0,0.0,-2.3966,-2.3421,0.0,0.0,0.0,0.0,0.0,0.0,0.0,0.0,-2.8422,0.0,0.0,0.0,0.0,0.0,-3.0947,-3.0896,-3.1223,-3.0846,-3.0746,-3.106,-3.1085,-3.1085,-3.1085,-3.1085,-3.1085,-3.1085,-3.1085,-3.0871,-3.0457,-3.0457,-3.0457,-3.0457,-3.0457,-3.0683,-3.1085,-3.1198,-3.1248,-3.1248,-3.1348,-3.165,-3.2102,-3.2692,-3.298,-3.3111,-3.2955,-3.298,-3.3056,-3.2955,-3.298,-3.3124,-3.3124,-3.3124,-3.3124,-3.3124,-3.3124,-3.3124,-3.3124,-3.3124,-3.3124,-3.3124,-3.3124,-3.3386,-3.443,-3.548,-3.6493,-3.7557,-3.862,-3.9388,-3.9388,-3.9388,-3.9388,-3.9388,-3.9388,-3.9388,-3.9388,-3.9388,-3.9388,-3.9388,-3.9388,-3.9388,-3.9388,-3.9269,-3.923,-3.923,-3.911,-3.9,-3.9,-3.9,-3.9,-3.9,-3.8497,-3.7898,-3.724,-3.6746,-3.6432,-3.6297,-3.5759,-3.6043,-3.7045,-3.7045,-3.6776,-2.6612,-2.6663,-2.6666,-2.5259,-2.5862,-2.6076,-2.3238,0.0,-2.3439,-2.2133,0.0,0.0,0.0,0.0,0.0,0.0,0.0,0.0,-2.3559,-2.5096,-2.6804,-2.8298,0.0,0.0,0.0,-2.9352,-2.9101,-3.0595,-2.8863,-2.8398,-2.9892,-2.998,-2.998,-2.998,-2.998,-2.998,-2.998,-2.998,-2.9942,-2.988,-2.988,-2.988,-2.988,-2.988,-2.9917,-3.0005,-3.0482,-3.0708,-3.0733,-3.1198,-3.1424,-3.1537,-3.2089,-3.2629,-3.3061,-3.2503,-3.2641,-3.3006,-3.2491,-3.2641,-3.3124,-3.3124,-3.3124,-3.3124,-3.3124,-3.3124,-3.3124,-3.3124,-3.3124,-3.3124,-3.3124,-3.3124,-3.336,-3.4451,-3.5461,-3.6499,-3.7558,-3.8625,-3.9388,-3.9388,-3.9388,-3.9388,-3.9388,-3.9388,-3.9388,-3.9388,-3.9388,-3.9388,-3.9388,-3.9388,-3.9388,-3.9388,-3.8871,-3.8497,-3.8497,-3.7973,-3.7644,-3.7644,-3.7644,-3.7644,-3.7644,-3.7554,-3.7225,-3.6596,-3.6522,-3.6207,-3.5609,-3.5549,-3.5579,-3.5729,-3.5729,-3.5684,-2.6713,-2.6901,-2.7077,-2.6025,-2.6038,-2.585,-2.4155,-2.3597,-2.3389,0.0,0.0,0.0,0.0,0.0,0.0,0.0,-2.2498,0.0,0.0,0.0,-2.4782,0.0,0.0,0.0,0.0,0.0,0.0,0.0,-2.7695,-2.7532,-2.9202,-2.9289,-2.9453,-2.9779,-2.9792,-2.9792,-2.9792,-2.9792,-2.9792,-2.9792,-2.9792,-2.9792,-2.9792,-2.9792,-2.9792,-2.9804,-3.0043,-3.0143,-3.0156,-3.0369,-3.0645,-3.0972,-3.1198,-3.1625,-3.2064,-3.1825,-3.1888,-3.2064,-3.1813,-3.1888,-3.2152,-3.2466,-3.2365,-3.2215,-3.2923,-3.2842,-3.2641,-3.298,-3.283,-3.2574,-3.2603,-3.2748,-3.3214,-3.4286,-3.5576,-3.6842,-3.7904,-3.8803,-3.9388,-3.9388,-3.9388,-3.9388,-3.9388,-3.9388,-3.9388,-3.9388,-3.9388,-3.9388,-3.9388,-3.9388,-3.9275,-3.8871,-3.8556,-3.8227,-3.7853,-3.7569,-3.7404,-3.7404,-3.7404,-3.724,-3.6881,-3.6881,-3.6567,-3.5923,-3.5923,-3.5774,-3.5504,-3.5504,-3.5504,-3.5504,-3.5504,-3.5504,-2.6914,0.0,0.0,0.0,0.0,0.0,0.0,0.0,0.0,0.0,0.0,0.0,0.0,0.0,-2.1656,-2.1506,0.0,-2.1845,0.0,-2.1857,0.0,0.0,0.0,0.0,0.0,0.0,0.0,0.0,0.0,-2.6402,-2.8373,-2.8587,-2.8963,-2.9528,-2.9704,-2.9792,-2.9792,-2.9792,-2.9792,-2.9792,-2.9792,-2.9792,-2.9792,-2.9792,-2.9792,-2.9792,-2.9792,-2.9792,-2.9792,-2.9792,-3.003,-3.0394,-3.0394,-3.062,-3.0972,-3.1122,-3.1273,-3.1373,-3.1223,-3.1273,-3.1449,-3.1851,-3.1725,-3.1574,-3.2541,-3.2441,-3.2102,-3.2679,-3.2428,-3.2035,-3.2279,-3.2587,-3.3078,-3.4125,-3.5618,-3.7008,-3.7792,-3.8728,-3.9364,-3.917,-3.914,-3.914,-3.914,-3.929,-3.9388,-3.9388,-3.9388,-3.9313,-3.9155,-3.914,-3.8871,-3.8197,-3.7973,-3.7674,-3.7195,-3.6985,-3.6881,-3.6881,-3.6881,-3.6686,-3.6237,-3.6222,-3.5998,-3.5519,-3.5504,-3.5504,-3.5504,-3.5504,-3.5504,-3.5504,-3.5504,-3.5504,0.0,0.0,0.0,-2.4745,0.0,0.0,0.0,0.0,-2.4424,0.0,0.0,0.0,0.0,-2.2644,-2.2108,-2.1581,-2.1506,0.0,0.0,0.0,0.0,0.0,0.0,0.0,0.0,0.0,0.0,0.0,0.0,0.0,-2.7193,-2.7846,-2.8386,-2.89,-2.9503,-2.9792,-2.9792,-2.9792,-2.9792,-2.9792,-2.9792,-2.9792,-2.9792,-2.9792,-2.9792,-2.9792,-2.9792,-2.9792,-2.9792,-2.9792,-2.9804,-2.9817,-2.9817,-2.9829,-2.9905,-3.0444,-3.0959,-3.1323,-3.0821,-3.0972,-3.1386,-3.1411,-3.1399,-3.1499,-3.2064,-3.1851,-3.1537,-3.2089,-3.1838,-3.1631,-3.2539,-3.2804,-3.3037,-3.4063,-3.5601,-3.6796,-3.6823,-3.817,-3.923,-3.8556,-3.8422,-3.8422,-3.8422,-3.8975,-3.9388,-3.9388,-3.9388,-3.9185,-3.8512,-3.8422,-3.8167,-3.7509,-3.6911,-3.6537,-3.6522,-3.5923,-3.5564,-3.5564,-3.5564,-3.5549,-3.5534,-3.5534,-3.5534,-3.5504,-3.5504,-3.5504,-3.5504,-3.5504,-3.5504,-3.5504,-3.5504,-3.5504,0.0,0.0,-2.816,-2.6138,0.0,0.0,0.0,0.0,0.0,0.0,0.0,0.0,-2.3308,-2.2656,-2.2246,-2.2071,-2.1418,-2.0842,0.0,0.0,0.0,0.0,0.0,0.0,0.0,0.0,0.0,0.0,-2.413,0.0,0.0,-2.7291,-2.7821,-2.836,-2.8574,-2.885,-2.9214,-2.9176,-2.9415,-2.9792,-2.9792,-2.9792,-2.9792,-2.9792,-2.9792,-2.9792,-2.9792,-2.9792,-2.9792,-2.9792,-2.9792,-2.9792,-2.9792,-2.9792,-2.9817,-2.9993,-3.0181,-3.0306,-3.0131,-3.0181,-3.0394,-3.0758,-3.0633,-3.0495,-3.1399,-3.1298,-3.0984,-3.1524,-3.1295,-3.0926,-3.1276,-3.155,-3.1979,-3.2959,-3.4412,-3.5795,-3.6458,-3.7721,-3.8531,-3.7878,-3.8093,-3.8257,-3.7808,-3.7943,-3.8242,-3.8676,-3.8362,-3.8003,-3.7778,-3.7749,-3.7509,-3.6866,-3.6611,-3.6312,-3.5878,-3.5624,-3.5504,-3.5504,-3.5504,-3.5504,-3.5504,-3.5504,-3.5504,-3.5504,-3.5504,-3.5504,-3.5504,-3.5504,-3.5504,-3.5504,-3.5504,-3.5504,-2.8448,-2.8624,0.0,-2.6901,-2.6361,0.0,-2.433,0.0,-2.4607,0.0,0.0,0.0,0.0,-2.292,-2.2309,-2.2309,-2.1408,-2.0629,0.0,-2.0377,0.0,0.0,0.0,0.0,0.0,0.0,-2.2661,-2.3615,-2.3326,0.0,0.0,0.0,-2.703,-2.7795,-2.8009,-2.8285,-2.8599,-2.8637,-2.8825,-2.9202,-2.9202,-2.9302,-2.9478,-2.9478,-2.9591,-2.9792,-2.9792,-2.9792,-2.9792,-2.9792,-2.9792,-2.9792,-2.9792,-2.9792,-2.9792,-2.9792,-2.9792,-2.9792,-2.9792,-2.9792,-2.9854,-3.0206,-3.008,-2.9955,-3.0846,-3.0746,-3.0432,-3.0959,-3.0743,-3.0403,-3.0746,-3.1266,-3.1915,-3.2884,-3.4351,-3.5731,-3.6345,-3.7319,-3.7853,-3.721,-3.7419,-3.7584,-3.715,-3.6881,-3.703,-3.7913,-3.7689,-3.733,-3.7105,-3.709,-3.6836,-3.6207,-3.6133,-3.5968,-3.5549,-3.5504,-3.5504,-3.5504,-3.5504,-3.5504,-3.5504,-3.5504,-3.5504,-3.5504,-3.5504,-3.5504,-3.5504,-3.5504,-3.5504,-3.5504,-3.5504,-3.5504]}]]